[[{"header":{"parameterUnit":"m.s-1","parameterCategory":1,"la1":30.6,"la2":28.766,"lo1":-90.7593,"lo2":-88.6598,"dy":0.0162,"dx":0.0183,"nx":116,"ny":114,"refTime":"2023-04-12T06:00:00:Z","depth":0,"parameterNumber":2,"parameterNumberName":"U-component_of_WINDS"},"data":[0.0,0.0,0.0,0.0,0.0,0.0,0.0,0.0,0.0,0.0,0.0,0.0,0.0,0.0,0.0,0.0,0.0,0.0,0.0,0.0,0.0,0.0,0.0,0.0,0.0,0.0,0.0,0.0,0.0,0.0,0.0,0.0,0.0,0.0,0.0,0.0,0.0,0.0,0.0,0.0,0.0,0.0,0.0,0.0,0.0,0.0,0.0,0.0,0.0,0.0,0.0,0.0,0.0,0.0,0.0,0.0,0.0,0.0,0.0,0.0,0.0,0.0,0.0,0.0,0.0,0.0,0.0,0.0,0.0,0.0,0.0,0.0,0.0,0.0,0.0,0.0,0.0,0.0,0.0,0.0,0.0,0.0,0.0,0.0,0.0,0.0,0.0,0.0,0.0,0.0,0.0,0.0,0.0,0.0,0.0,0.0,0.0,0.0,0.0,0.0,0.0,0.0,0.0,0.0,0.0,0.0,0.0,0.0,0.0,0.0,0.0,0.0,0.0,0.0,0.0,0.0,0.0,0.0,0.0,0.0,0.0,0.0,0.0,0.0,0.0,0.0,0.0,0.0,0.0,0.0,0.0,0.0,0.0,0.0,0.0,0.0,0.0,0.0,0.0,0.0,0.0,0.0,0.0,0.0,0.0,0.0,0.0,0.0,0.0,0.0,0.0,0.0,0.0,0.0,0.0,0.0,0.0,0.0,0.0,0.0,0.0,0.0,0.0,0.0,0.0,0.0,0.0,0.0,0.0,0.0,0.0,0.0,0.0,0.0,0.0,0.0,0.0,0.0,0.0,0.0,0.0,0.0,0.0,0.0,0.0,0.0,0.0,0.0,0.0,0.0,0.0,0.0,0.0,0.0,0.0,0.0,0.0,0.0,0.0,0.0,0.0,0.0,0.0,0.0,0.0,0.0,0.0,0.0,0.0,0.0,0.0,0.0,0.0,0.0,0.0,0.0,0.0,0.0,0.0,0.0,0.0,0.0,0.0,0.0,0.0,0.0,0.0,0.0,0.0,0.0,0.0,0.0,0.0,0.0,0.0,0.0,0.0,0.0,0.0,0.0,0.0,0.0,0.0,0.0,0.0,0.0,0.0,0.0,0.0,0.0,0.0,0.0,0.0,0.0,0.0,0.0,0.0,0.0,0.0,0.0,0.0,0.0,0.0,0.0,0.0,0.0,0.0,0.0,0.0,0.0,0.0,0.0,0.0,0.0,0.0,0.0,0.0,0.0,0.0,0.0,0.0,0.0,0.0,0.0,0.0,0.0,0.0,0.0,0.0,0.0,0.0,0.0,0.0,0.0,0.0,0.0,0.0,0.0,0.0,0.0,0.0,0.0,0.0,0.0,0.0,0.0,0.0,0.0,0.0,0.0,0.0,0.0,0.0,0.0,0.0,0.0,0.0,0.0,0.0,0.0,0.0,0.0,0.0,0.0,0.0,0.0,0.0,0.0,0.0,0.0,0.0,0.0,0.0,0.0,0.0,0.0,0.0,0.0,0.0,0.0,0.0,0.0,0.0,0.0,0.0,0.0,0.0,0.0,0.0,0.0,0.0,0.0,0.0,0.0,0.0,0.0,0.0,0.0,0.0,0.0,0.0,0.0,0.0,0.0,0.0,0.0,0.0,0.0,0.0,0.0,0.0,0.0,0.0,0.0,0.0,0.0,0.0,0.0,0.0,0.0,0.0,0.0,0.0,0.0,0.0,0.0,0.0,0.0,0.0,0.0,0.0,0.0,0.0,0.0,0.0,0.0,0.0,0.0,0.0,0.0,0.0,0.0,0.0,0.0,0.0,0.0,0.0,0.0,0.0,0.0,0.0,0.0,0.0,0.0,0.0,0.0,0.0,0.0,0.0,0.0,0.0,0.0,0.0,0.0,0.0,0.0,0.0,0.0,0.0,0.0,0.0,0.0,0.0,0.0,0.0,0.0,0.0,0.0,0.0,0.0,0.0,0.0,0.0,0.0,0.0,0.0,0.0,0.0,0.0,0.0,0.0,0.0,0.0,0.0,0.0,0.0,0.0,0.0,0.0,0.0,0.0,0.0,0.0,0.0,0.0,0.0,0.0,0.0,0.0,0.0,0.0,0.0,0.0,0.0,0.0,0.0,0.0,0.0,0.0,0.0,0.0,0.0,0.0,0.0,0.0,0.0,0.0,0.0,0.0,0.0,0.0,0.0,0.0,0.0,0.0,0.0,0.0,0.0,0.0,0.0,0.0,0.0,0.0,0.0,0.0,0.0,0.0,0.0,0.0,0.0,0.0,0.0,0.0,0.0,0.0,0.0,0.0,0.0,0.0,0.0,0.0,0.0,0.0,0.0,0.0,0.0,0.0,0.0,0.0,0.0,0.0,0.0,0.0,0.0,0.0,0.0,0.0,0.0,0.0,0.0,0.0,0.0,0.0,0.0,0.0,0.0,0.0,0.0,0.0,0.0,0.0,0.0,0.0,0.0,0.0,0.0,0.0,0.0,0.0,0.0,0.0,0.0,0.0,0.0,0.0,0.0,0.0,0.0,0.0,0.0,0.0,0.0,0.0,0.0,0.0,0.0,0.0,0.0,0.0,0.0,0.0,0.0,0.0,0.0,0.0,0.0,0.0,0.0,0.0,0.0,0.0,0.0,0.0,0.0,0.0,0.0,0.0,0.0,0.0,0.0,0.0,0.0,0.0,0.0,0.0,0.0,0.0,0.0,0.0,0.0,0.0,0.0,0.0,0.0,0.0,0.0,0.0,0.0,0.0,0.0,0.0,0.0,0.0,0.0,0.0,0.0,0.0,0.0,0.0,0.0,0.0,0.0,0.0,0.0,0.0,0.0,0.0,0.0,0.0,0.0,0.0,0.0,0.0,0.0,0.0,0.0,0.0,0.0,0.0,0.0,0.0,0.0,0.0,0.0,0.0,0.0,0.0,0.0,0.0,0.0,0.0,0.0,0.0,0.0,0.0,0.0,0.0,0.0,0.0,0.0,0.0,0.0,0.0,0.0,0.0,0.0,0.0,0.0,0.0,0.0,0.0,0.0,0.0,0.0,0.0,0.0,0.0,0.0,0.0,0.0,0.0,0.0,0.0,0.0,0.0,0.0,0.0,0.0,0.0,0.0,0.0,0.0,0.0,0.0,0.0,0.0,0.0,0.0,0.0,0.0,0.0,0.0,0.0,0.0,0.0,0.0,0.0,0.0,0.0,0.0,0.0,0.0,0.0,0.0,0.0,0.0,0.0,0.0,0.0,0.0,0.0,0.0,0.0,0.0,0.0,0.0,0.0,0.0,0.0,0.0,0.0,0.0,0.0,0.0,0.0,0.0,0.0,0.0,0.0,0.0,0.0,0.0,0.0,0.0,0.0,0.0,0.0,0.0,0.0,0.0,0.0,0.0,0.0,0.0,0.0,0.0,0.0,0.0,0.0,0.0,0.0,0.0,0.0,0.0,0.0,0.0,0.0,0.0,0.0,0.0,0.0,0.0,0.0,0.0,0.0,0.0,0.0,0.0,0.0,0.0,0.0,0.0,0.0,0.0,0.0,0.0,0.0,0.0,0.0,0.0,0.0,0.0,0.0,0.0,0.0,0.0,0.0,0.0,0.0,0.0,0.0,0.0,0.0,0.0,0.0,0.0,0.0,0.0,0.0,0.0,0.0,0.0,0.0,0.0,0.0,0.0,0.0,0.0,0.0,0.0,0.0,0.0,0.0,0.0,0.0,0.0,0.0,0.0,0.0,0.0,0.0,0.0,0.0,0.0,0.0,0.0,0.0,0.0,0.0,0.0,0.0,0.0,0.0,0.0,0.0,0.0,0.0,0.0,0.0,0.0,0.0,0.0,0.0,0.0,0.0,0.0,0.0,0.0,0.0,0.0,0.0,0.0,0.0,0.0,0.0,0.0,0.0,0.0,0.0,0.0,0.0,0.0,0.0,0.0,0.0,0.0,0.0,0.0,0.0,0.0,0.0,0.0,0.0,0.0,0.0,0.0,0.0,0.0,0.0,0.0,0.0,0.0,0.0,0.0,0.0,0.0,0.0,0.0,0.0,0.0,0.0,0.0,0.0,0.0,0.0,0.0,0.0,0.0,0.0,0.0,0.0,0.0,0.0,0.0,0.0,0.0,0.0,0.0,0.0,0.0,0.0,0.0,0.0,0.0,0.0,0.0,0.0,0.0,0.0,0.0,0.0,0.0,0.0,0.0,0.0,0.0,0.0,0.0,0.0,0.0,0.0,0.0,0.0,0.0,0.0,0.0,0.0,0.0,0.0,0.0,0.0,0.0,0.0,0.0,0.0,0.0,0.0,0.0,0.0,0.0,0.0,0.0,0.0,0.0,0.0,0.0,0.0,0.0,0.0,0.0,0.0,0.0,0.0,0.0,0.0,0.0,0.0,0.0,0.0,0.0,0.0,0.0,0.0,0.0,0.0,0.0,0.0,0.0,0.0,0.0,0.0,0.0,0.0,0.0,0.0,0.0,0.0,0.0,0.0,0.0,0.0,0.0,0.0,0.0,0.0,0.0,0.0,0.0,0.0,0.0,0.0,0.0,0.0,0.0,0.0,0.0,0.0,0.0,0.0,0.0,0.0,0.0,0.0,0.0,0.0,0.0,0.0,0.0,0.0,0.0,0.0,0.0,0.0,0.0,0.0,0.0,0.0,0.0,0.0,0.0,0.0,0.0,0.0,0.0,0.0,0.0,0.0,0.0,0.0,0.0,0.0,0.0,0.0,0.0,0.0,0.0,0.0,0.0,0.0,0.0,0.0,0.0,0.0,0.0,0.0,0.0,0.0,0.0,0.0,0.0,0.0,0.0,0.0,0.0,0.0,0.0,0.0,0.0,0.0,0.0,0.0,0.0,0.0,0.0,0.0,0.0,0.0,0.0,0.0,0.0,0.0,0.0,0.0,0.0,0.0,0.0,0.0,0.0,0.0,0.0,0.0,0.0,0.0,0.0,0.0,0.0,0.0,0.0,0.0,0.0,0.0,0.0,0.0,0.0,0.0,0.0,0.0,0.0,0.0,0.0,0.0,0.0,0.0,0.0,0.0,0.0,0.0,0.0,0.0,0.0,0.0,0.0,0.0,0.0,0.0,0.0,0.0,0.0,0.0,0.0,0.0,0.0,0.0,0.0,0.0,0.0,0.0,0.0,0.0,0.0,0.0,0.0,0.0,0.0,0.0,0.0,0.0,0.0,0.0,0.0,0.0,0.0,0.0,0.0,0.0,0.0,0.0,0.0,0.0,0.0,0.0,0.0,0.0,0.0,0.0,0.0,0.0,0.0,0.0,0.0,0.0,0.0,0.0,0.0,0.0,0.0,0.0,0.0,0.0,0.0,0.0,0.0,0.0,0.0,0.0,0.0,0.0,0.0,0.0,0.0,0.0,0.0,0.0,0.0,0.0,0.0,0.0,0.0,0.0,0.0,0.0,0.0,0.0,0.0,0.0,0.0,0.0,0.0,0.0,0.0,0.0,0.0,0.0,0.0,0.0,0.0,0.0,0.0,0.0,0.0,0.0,0.0,0.0,0.0,0.0,0.0,0.0,0.0,0.0,0.0,0.0,0.0,0.0,0.0,0.0,0.0,0.0,0.0,0.0,0.0,0.0,0.0,0.0,0.0,0.0,0.0,0.0,0.0,0.0,0.0,0.0,0.0,0.0,0.0,0.0,0.0,0.0,0.0,0.0,0.0,0.0,0.0,0.0,0.0,0.0,0.0,0.0,0.0,0.0,0.0,0.0,0.0,0.0,0.0,0.0,0.0,0.0,0.0,0.0,0.0,0.0,0.0,0.0,0.0,0.0,0.0,0.0,0.0,0.0,0.0,0.0,0.0,0.0,0.0,0.0,0.0,0.0,0.0,0.0,0.0,0.0,0.0,0.0,0.0,0.0,0.0,0.0,0.0,0.0,0.0,0.0,0.0,0.0,0.0,0.0,0.0,0.0,0.0,0.0,0.0,0.0,0.0,0.0,0.0,0.0,0.0,0.0,0.0,0.0,0.0,0.0,0.0,0.0,0.0,0.0,0.0,0.0,0.0,0.0,0.0,0.0,0.0,0.0,0.0,0.0,0.0,0.0,0.0,0.0,0.0,0.0,0.0,0.0,0.0,0.0,0.0,0.0,0.0,0.0,0.0,-3.8844,-3.8193,0.0,0.0,0.0,0.0,0.0,0.0,0.0,0.0,0.0,0.0,0.0,0.0,0.0,0.0,0.0,0.0,0.0,0.0,0.0,0.0,0.0,0.0,0.0,0.0,0.0,0.0,0.0,0.0,0.0,0.0,0.0,0.0,0.0,0.0,0.0,0.0,0.0,0.0,-4.0616,-4.0415,-4.0355,-4.0187,-4.0186,-4.0301,0.0,0.0,0.0,0.0,0.0,0.0,0.0,0.0,0.0,0.0,0.0,0.0,0.0,0.0,0.0,0.0,0.0,0.0,0.0,0.0,0.0,0.0,0.0,0.0,0.0,0.0,0.0,0.0,0.0,0.0,0.0,0.0,0.0,0.0,0.0,0.0,0.0,0.0,0.0,0.0,0.0,0.0,0.0,0.0,0.0,0.0,0.0,0.0,0.0,0.0,0.0,0.0,0.0,0.0,0.0,0.0,0.0,0.0,0.0,0.0,0.0,0.0,0.0,0.0,0.0,0.0,0.0,0.0,0.0,0.0,-3.9975,-3.9543,0.0,0.0,0.0,0.0,0.0,0.0,0.0,0.0,0.0,0.0,0.0,0.0,0.0,0.0,0.0,0.0,0.0,0.0,0.0,0.0,0.0,0.0,0.0,-3.9031,-3.8935,-3.8723,-3.8707,-3.8707,0.0,0.0,0.0,0.0,0.0,0.0,0.0,-4.0129,-4.0731,-4.1571,-4.0784,-4.0327,-4.0234,-4.0038,-4.0087,-4.0301,-4.0301,0.0,0.0,0.0,0.0,0.0,0.0,0.0,0.0,0.0,0.0,0.0,0.0,0.0,0.0,0.0,0.0,0.0,0.0,0.0,0.0,0.0,0.0,0.0,0.0,0.0,0.0,0.0,0.0,0.0,0.0,0.0,0.0,0.0,0.0,0.0,0.0,0.0,0.0,0.0,0.0,0.0,0.0,0.0,0.0,0.0,0.0,0.0,0.0,0.0,0.0,0.0,0.0,0.0,0.0,0.0,0.0,0.0,0.0,0.0,0.0,0.0,0.0,0.0,-4.1003,-4.1028,-4.1028,-4.1039,-4.1025,-4.1025,-4.1025,-4.1011,-4.1007,-4.0945,0.0,0.0,0.0,0.0,0.0,0.0,0.0,0.0,0.0,0.0,0.0,0.0,0.0,0.0,0.0,0.0,0.0,0.0,0.0,0.0,0.0,-3.875,-3.8753,-3.8707,-3.8707,-3.8707,-3.8707,0.0,0.0,0.0,0.0,0.0,-4.0863,-4.1265,-4.1503,-4.1504,-4.0702,-4.0196,-3.9965,-4.0157,-4.0282,-4.0301,-4.0301,-4.0301,-4.0291,0.0,0.0,0.0,0.0,0.0,0.0,0.0,0.0,0.0,0.0,0.0,0.0,0.0,0.0,0.0,0.0,0.0,0.0,0.0,0.0,0.0,0.0,0.0,0.0,0.0,0.0,0.0,0.0,0.0,0.0,0.0,0.0,0.0,0.0,0.0,0.0,0.0,0.0,0.0,0.0,0.0,-3.827,-3.8387,0.0,0.0,0.0,0.0,0.0,0.0,0.0,0.0,0.0,0.0,0.0,0.0,0.0,-4.0981,-4.099,-4.099,-4.099,-4.0994,-4.1064,-4.1081,-4.1083,-4.1145,-4.117,-4.117,-4.117,0.0,-4.099,-4.0981,0.0,0.0,0.0,0.0,0.0,0.0,0.0,0.0,0.0,0.0,0.0,0.0,0.0,0.0,0.0,0.0,0.0,0.0,0.0,0.0,0.0,-3.8707,-3.8611,-3.8385,-3.858,-3.8611,-3.8385,-3.8562,0.0,0.0,0.0,-4.045,-4.1537,-4.1917,-4.2063,-4.2011,-4.2115,-4.1841,-4.1256,-4.1423,-4.13,-4.0979,-4.0979,-4.0731,-4.0291,-4.0366,0.0,0.0,0.0,0.0,0.0,0.0,0.0,0.0,0.0,0.0,0.0,0.0,0.0,0.0,0.0,0.0,0.0,0.0,0.0,0.0,0.0,0.0,0.0,0.0,0.0,0.0,0.0,0.0,0.0,0.0,0.0,0.0,0.0,0.0,0.0,0.0,0.0,0.0,0.0,-3.912,-3.9295,-3.9742,-3.98,-3.98,0.0,0.0,0.0,0.0,0.0,0.0,0.0,0.0,0.0,-4.104,-4.1493,-4.1757,-4.1797,-4.2265,-4.2521,-4.2521,-4.255,-4.2554,-4.2554,-4.2597,-4.2617,-4.2617,-4.2617,-4.2575,-4.2441,-4.1462,-4.105,-4.1003,0.0,0.0,0.0,0.0,-4.0974,-4.1011,0.0,0.0,0.0,0.0,0.0,0.0,0.0,0.0,0.0,0.0,0.0,0.0,-3.8564,-3.8643,-3.853,-3.8135,-3.8467,-3.858,-3.8269,-3.8732,-3.9304,-3.997,-4.0451,-4.1185,-4.2192,-4.2454,-4.2593,-4.2617,-4.3068,-4.2936,-4.2337,-4.2443,-4.2259,-4.182,-4.182,-4.1266,-4.0291,-4.0342,-4.0366,-4.0366,0.0,0.0,0.0,0.0,0.0,0.0,0.0,0.0,0.0,0.0,0.0,0.0,0.0,0.0,0.0,0.0,0.0,0.0,0.0,0.0,0.0,0.0,0.0,0.0,0.0,0.0,0.0,0.0,0.0,0.0,0.0,0.0,0.0,0.0,0.0,0.0,0.0,-4.0014,-4.0228,-4.083,-4.0907,-4.0907,0.0,0.0,0.0,0.0,0.0,0.0,-4.1309,-4.1524,-4.1681,-4.1732,-4.2346,-4.2689,-4.2734,-4.3379,-4.3691,-4.3671,-4.3691,-4.3691,-4.3671,-4.3691,-4.3691,-4.3691,-4.3691,-4.3691,-4.3594,-4.2298,-4.176,-4.1732,-4.1679,-4.1652,-4.164,-4.1658,-4.1707,-4.1735,0.0,0.0,0.0,0.0,0.0,0.0,0.0,0.0,0.0,0.0,0.0,-3.8546,-3.8168,-3.8467,-3.853,-3.8135,-3.8467,-3.8692,-3.8658,-3.9405,-3.9967,-4.0265,-4.1263,-4.2198,-4.301,-4.3074,-4.3128,-4.3252,-4.2671,-4.2375,-4.2397,-4.2663,-4.2765,-4.2737,-4.2737,-4.1839,-4.0301,-4.0291,-4.032,-4.032,-4.032,0.0,0.0,0.0,0.0,0.0,0.0,0.0,0.0,0.0,0.0,0.0,0.0,0.0,0.0,0.0,0.0,0.0,0.0,0.0,0.0,0.0,0.0,0.0,0.0,0.0,0.0,0.0,0.0,0.0,0.0,0.0,0.0,0.0,0.0,0.0,0.0,0.0,0.0,-4.0907,-4.0907,0.0,0.0,0.0,0.0,-4.0902,-4.1734,-4.2206,-4.2148,-4.2985,-4.3469,-4.3468,-4.3589,-4.3633,-4.3633,-4.3672,-4.367,-4.3612,-4.367,-4.3669,-4.3614,-4.367,-4.3691,-4.3691,-4.3691,-4.3691,-4.3691,-4.3613,-4.3531,-4.3473,-4.3471,-4.3429,-4.3386,-4.3457,-4.3473,-4.3477,0.0,0.0,0.0,0.0,0.0,0.0,0.0,0.0,-3.8707,-3.8707,-3.8483,-3.8252,-3.8118,-3.8,-3.7879,-3.7739,-3.8085,-3.8302,-3.8302,-3.9312,-4.0168,-4.0793,-4.1675,-4.264,-4.3655,-4.4019,-4.412,-4.4006,-4.4158,-4.4129,-4.3959,-4.4255,-4.4112,-4.3567,-4.3567,-4.2937,-4.1877,-4.1304,-4.0769,-4.0301,-4.0301,-4.0319,0.0,0.0,0.0,0.0,0.0,0.0,0.0,0.0,0.0,0.0,0.0,0.0,0.0,0.0,0.0,0.0,0.0,0.0,0.0,0.0,0.0,0.0,0.0,0.0,0.0,0.0,0.0,0.0,0.0,0.0,0.0,0.0,0.0,0.0,0.0,0.0,0.0,-4.0907,-4.1393,0.0,-4.1747,-4.2272,-4.2597,-4.2572,-4.2877,-4.3107,-4.316,-4.3445,-4.3604,-4.3603,-4.4215,-4.451,-4.4461,-4.5077,-4.5351,-4.5349,-4.5351,-4.5351,-4.5349,-4.5351,-4.5371,-4.5371,-4.5371,-4.5371,-4.5371,-4.5371,-4.4707,-4.3669,-4.3669,-4.3646,-4.3621,-4.3667,-4.3669,-4.367,0.0,0.0,0.0,0.0,0.0,0.0,0.0,0.0,-3.8707,-3.8707,-3.8352,-3.8101,-3.8101,-3.7861,-3.7703,-3.7703,-3.8068,-3.8302,-3.8302,-3.9312,-4.0267,-4.1058,-4.1882,-4.2786,-4.3839,-4.4011,-4.425,-4.4533,-4.4953,-4.5087,-4.4969,-4.5194,-4.4991,-4.4437,-4.4437,-4.3978,-4.3176,-4.2584,-4.1877,-4.1141,-4.1141,-4.116,-4.1167,0.0,0.0,0.0,0.0,0.0,0.0,0.0,0.0,0.0,0.0,0.0,0.0,0.0,0.0,0.0,0.0,0.0,0.0,0.0,0.0,0.0,0.0,0.0,0.0,0.0,0.0,0.0,0.0,0.0,0.0,0.0,0.0,0.0,0.0,-4.1163,-4.1335,-4.1335,-4.2112,-4.2636,-4.2636,-4.3167,-4.349,-4.3475,-4.3767,-4.398,-4.4033,-4.4321,-4.4483,-4.4483,-4.5094,-4.5428,-4.5379,-4.5995,-4.6308,-4.6308,-4.6308,-4.6308,-4.6308,-4.6308,-4.6308,-4.6308,-4.6308,-4.6308,-4.6308,-4.6308,-4.5625,-4.457,-4.457,-4.457,-4.457,-4.457,-4.457,-4.457,0.0,0.0,0.0,0.0,0.0,0.0,0.0,-3.8707,-3.8707,-3.8707,-3.8352,-3.8101,-3.8101,-3.8085,-3.8085,-3.8101,-3.8467,-3.8692,-3.8707,-3.9441,-4.0267,-4.1111,-4.1899,-4.2727,-4.3608,-4.3072,-4.3428,-4.4788,-4.48,-4.4969,-4.5307,-4.5307,-4.5307,-4.5307,-4.5307,-4.4838,-4.4045,-4.4045,-4.3586,-4.287,-4.2813,-4.2843,-4.2808,0.0,0.0,0.0,0.0,0.0,0.0,0.0,0.0,0.0,0.0,0.0,0.0,0.0,0.0,0.0,0.0,0.0,0.0,0.0,0.0,0.0,0.0,0.0,0.0,0.0,0.0,0.0,0.0,0.0,0.0,0.0,0.0,0.0,-4.1153,-4.1723,-4.2233,-4.2233,-4.3005,-4.3544,-4.3544,-4.3553,-4.3557,-4.3493,-4.4312,-4.4816,-4.4744,-4.5669,-4.6202,-4.6202,-4.6266,-4.6308,-4.6308,-4.6308,-4.6308,-4.6308,-4.6308,-4.6308,-4.6308,-4.6308,-4.6308,-4.6308,-4.6308,-4.6308,-4.6308,-4.6308,-4.6308,-4.6308,-4.6308,-4.6308,-4.6308,-4.6308,-4.6308,-4.6308,0.0,0.0,0.0,0.0,0.0,0.0,0.0,-3.8707,-3.8707,-3.8707,-3.8352,-3.8101,-3.8101,-3.7844,-3.7773,-3.8068,-3.8203,-3.8385,-3.8692,-3.9441,-4.0614,-4.2193,-4.2649,-4.3287,-4.4167,-4.422,-4.4405,-4.4788,-4.5045,-4.5205,-4.5307,-4.5307,-4.5307,-4.5307,-4.5307,-4.5163,-4.4934,-4.4934,-4.48,-4.4513,-4.3291,-4.2814,-4.2805,0.0,0.0,0.0,0.0,0.0,0.0,0.0,0.0,0.0,0.0,0.0,0.0,0.0,0.0,0.0,0.0,0.0,0.0,0.0,0.0,0.0,0.0,0.0,0.0,0.0,0.0,0.0,0.0,0.0,0.0,0.0,-4.2605,-4.284,-4.1993,-4.2597,-4.3141,-4.3141,-4.3918,-4.4443,-4.4443,-4.4977,-4.5317,-4.5298,-4.5479,-4.5638,-4.5702,-4.5982,-4.6147,-4.6202,-4.6266,-4.6288,-4.6235,-4.6287,-4.6308,-4.6308,-4.6308,-4.6308,-4.6308,-4.6308,-4.6308,-4.6308,-4.6308,-4.6308,-4.6308,-4.6308,-4.6308,-4.6308,-4.6308,-4.6308,-4.6308,-4.6308,-4.6308,-4.6308,0.0,0.0,0.0,0.0,0.0,0.0,0.0,-3.8707,-3.8707,-3.8707,-3.8352,-3.8152,-3.8336,-3.7982,-3.7913,-3.832,-3.8352,-3.8451,-3.8673,-3.9562,-4.0644,-4.1975,-4.2391,-4.3106,-4.4215,-4.4277,-4.4538,-4.5011,-4.5194,-4.5307,-4.5307,-4.5307,-4.5307,-4.5307,-4.5307,-4.5307,-4.5307,-4.5307,-4.5307,-4.5211,-4.4246,-4.3845,-4.3817,-4.3484,-4.3396,-4.3459,-4.3528,-4.3593,-4.3705,-4.4165,0.0,0.0,0.0,0.0,0.0,0.0,0.0,0.0,0.0,0.0,0.0,0.0,0.0,0.0,0.0,0.0,0.0,0.0,0.0,0.0,0.0,0.0,0.0,0.0,-4.3505,-4.3879,-4.3355,-4.3724,-4.4035,-4.4035,-4.4792,-4.5297,-4.5297,-4.5723,-4.5991,-4.596,-4.5932,-4.5947,-4.6041,-4.6087,-4.6131,-4.6202,-4.6618,-4.6835,-4.6788,-4.7186,-4.7383,-4.7383,-4.7383,-4.7383,-4.7383,-4.7383,-4.7383,-4.7363,-4.6992,-4.6836,-4.6816,-4.6445,-4.6308,-4.6308,0.0,0.0,0.0,0.0,-4.6308,-4.6308,0.0,0.0,0.0,0.0,0.0,0.0,0.0,-3.8652,-3.8707,-3.8707,-3.8385,-3.8302,-3.8658,-3.8385,-3.8302,-3.8676,-3.8707,-3.8723,-3.8735,-3.9674,-4.0517,-4.1207,-4.1731,-4.2671,-4.4111,-4.3912,-4.4292,-4.5307,-4.5307,-4.5307,-4.5307,-4.5307,-4.5307,-4.5307,-4.5307,-4.5307,-4.5307,-4.5307,-4.5307,-4.5307,-4.5307,-4.5307,-4.5231,-4.4457,-4.4221,-4.4325,-4.4333,-4.4404,-4.463,-4.5406,0.0,0.0,0.0,0.0,0.0,0.0,0.0,0.0,0.0,0.0,0.0,0.0,0.0,0.0,0.0,0.0,0.0,0.0,0.0,0.0,0.0,0.0,0.0,0.0,-4.4365,-4.4948,-4.4948,-4.4948,-4.4948,-4.4948,-4.5574,-4.6002,-4.6002,-4.6086,-4.6116,-4.6047,-4.6126,-4.6215,-4.6284,-4.6352,0.0,0.0,0.0,-4.7754,-4.7754,-4.8516,-4.8906,-4.8906,-4.8906,-4.8906,-4.8906,-4.8906,-4.8906,-4.8867,-4.8086,-4.7754,-4.7695,-4.6914,-4.6582,-4.6562,-4.6387,-4.6308,-4.6308,-4.6308,-4.6308,-4.6308,0.0,0.0,0.0,0.0,0.0,0.0,0.0,-3.8285,-3.8707,-3.8707,-3.8627,-3.8611,-3.8692,-3.8627,-3.8611,-3.8692,-3.8707,-3.8795,-3.9021,-3.9421,-4.0403,-4.2071,-4.2463,-4.3399,-4.501,-4.4998,-4.5074,-4.5307,-4.5307,-4.5307,-4.5307,-4.5307,-4.5307,-4.5307,-4.5307,-4.5307,-4.5307,-4.5307,-4.5307,-4.5307,-4.5307,-4.5307,-4.5298,-4.5237,-4.516,-4.5091,-4.5208,-4.5208,-4.516,-4.5446,-4.554,-4.5566,-4.5676,-4.5723,0.0,0.0,0.0,0.0,0.0,0.0,0.0,0.0,0.0,0.0,0.0,0.0,0.0,0.0,0.0,0.0,0.0,0.0,0.0,-4.4559,-4.522,-4.5769,-4.5769,-4.5769,-4.5769,-4.5769,-4.5905,-4.6002,-4.6002,-4.6587,-4.6958,-4.6952,-4.7551,-4.7973,-4.8093,-4.8117,-4.8201,-4.8377,-4.8554,-4.8652,-4.8652,-4.8828,-4.8906,-4.8906,-4.8906,0.0,-4.8906,-4.8906,-4.8906,-4.8887,-4.8711,-4.8652,-4.8633,-4.8476,-4.8398,-4.8262,-4.6855,-4.6308,-4.6308,-4.6308,-4.6308,-4.6308,0.0,0.0,0.0,0.0,0.0,0.0,0.0,-3.74,-3.7792,-3.8198,-3.8155,-3.8248,-3.867,-3.8707,-3.8707,-3.8707,-3.8707,-3.8881,-3.9272,-3.9298,-4.0284,-4.2504,-4.2601,-4.3454,-4.5258,-4.5307,-4.5307,-4.5307,-4.5307,-4.5307,-4.5307,-4.5307,-4.5307,-4.5307,-4.5307,-4.5307,-4.5307,-4.5307,-4.5329,-4.5409,-4.5409,-4.5429,-4.5504,-4.5504,-4.5504,-4.5513,-4.5584,-4.5566,-4.5504,-4.5504,-4.5504,-4.5504,-4.5504,-4.5549,-4.5635,0.0,0.0,0.0,0.0,0.0,0.0,0.0,0.0,0.0,0.0,0.0,0.0,0.0,0.0,-4.5258,-4.4831,0.0,-4.5394,-4.5394,-4.5749,-4.6002,-4.6002,-4.6385,-4.6657,-4.6657,-4.6657,-4.6812,-4.7259,-4.7666,-4.7882,-4.7844,-4.8251,-4.8505,-4.8545,-4.8649,-4.8749,-4.884,-4.9316,-4.9551,-4.9551,-4.9941,-5.0156,-5.0156,-5.0156,-5.0156,-5.0156,-5.0156,-5.0156,-5.0137,-4.9726,-4.9551,-4.9512,-4.9082,-4.8906,-4.8808,-4.7949,-4.7598,-4.7558,-4.7109,-4.6953,-4.6894,0.0,0.0,0.0,0.0,0.0,0.0,0.0,-3.6512,-3.6859,-3.7543,-3.7419,-3.754,-3.8269,-3.8479,-3.8615,-3.8762,-3.8719,-3.8921,-3.9458,-3.9298,-4.0259,-4.2687,-4.2591,-4.3371,-4.5258,-4.5307,-4.5307,-4.5307,-4.5307,-4.5307,-4.5307,-4.5307,-4.5307,-4.5307,-4.5307,-4.5307,-4.5307,-4.5338,-4.5409,-4.5504,-4.5531,-4.5627,-4.5731,-4.5627,-4.5635,-4.5708,-4.5731,-4.5723,-4.5684,-4.5549,-4.5504,-4.5476,-4.537,-4.54,-4.5531,-4.57,-4.5831,0.0,0.0,0.0,0.0,0.0,0.0,0.0,0.0,-4.6002,-4.6002,-4.6002,-4.6002,-4.6002,-4.6002,-4.6002,-4.6002,-4.6002,-4.6002,-4.606,-4.623,-4.6851,-4.7434,-4.7764,-4.7667,-4.7822,-4.8522,-4.8746,-4.8825,-4.8774,-4.898,-4.9066,-4.9041,-4.9207,-4.9293,-4.9299,-5.0037,-5.043,-5.043,-5.1074,-5.1406,-5.1406,-5.1406,-5.1406,-5.1406,-5.1406,-5.1406,-5.1367,-5.0703,-5.043,-5.0371,-4.9687,-4.9394,-4.9394,-4.9394,-4.9394,-4.9257,-4.8222,-4.7851,-4.7754,0.0,0.0,0.0,0.0,0.0,0.0,0.0,0.0,-3.6701,-3.6968,-3.666,-3.6611,-3.7057,-3.7638,-3.8266,-3.899,-3.8837,-3.8921,-3.9458,-3.9458,-4.0453,-4.2698,-4.2774,-4.3557,-4.5258,-4.5307,-4.5307,-4.5307,-4.5307,-4.5307,-4.5307,-4.5307,-4.5307,-4.5307,-4.5307,-4.5307,-4.5317,-4.5438,-4.5485,-4.5513,-4.5635,-4.5761,-4.588,-4.5866,-4.5791,-4.5723,-4.5826,-4.5798,-4.5684,-4.5549,-4.5504,-4.5495,-4.5485,-4.5485,-4.5558,-4.5798,-4.5886,-4.5899,-4.5975,-4.6002,-4.6002,-4.6002,-4.6002,-4.6002,0.0,-4.6002,-4.6002,-4.6002,-4.6002,-4.6002,-4.6002,-4.6002,-4.6002,-4.6002,-4.6002,-4.6268,-4.7045,-4.724,-4.7881,-4.944,-4.893,-4.8483,-4.858,-4.925,-4.9695,-4.9732,-5.0402,-5.0873,-5.0984,-5.1019,-5.1058,-5.1113,-5.1211,-5.1269,-5.1269,-5.1367,-5.1406,-5.1406,-5.1406,-5.1406,-5.1406,-5.1406,-5.1406,-5.1387,-5.1308,-5.1269,-5.1269,-5.1151,-5.1112,-5.1112,-5.1128,-5.1127,-5.0931,-4.9333,-4.8747,-4.8743,0.0,0.0,0.0,0.0,0.0,0.0,0.0,0.0,0.0,-3.6371,-3.6157,-3.6199,-3.6829,-3.7143,-3.7654,-3.8502,-3.8317,-3.8617,-3.9667,-3.9452,-4.0095,-4.1953,-4.19,-4.2671,-4.4503,-4.4551,-4.4781,-4.5307,-4.5307,-4.5307,-4.5307,-4.5307,-4.5307,-4.5307,-4.5307,-4.5339,-4.5429,-4.5476,-4.5601,-4.5739,-4.5791,-4.5874,-4.5966,-4.5966,-4.5923,-4.5873,-4.5929,-4.5917,0.0,-4.5757,-4.5739,-4.5723,-4.5651,-4.5627,-4.564,-4.5833,-4.59,-4.5899,-4.5975,-4.6002,-4.6002,-4.6002,-4.6002,-4.6002,-4.6002,-4.6002,-4.6002,-4.6002,-4.6002,-4.6002,-4.6002,-4.6002,-4.6002,-4.6002,-4.6424,-4.689,-4.7259,-4.8172,-4.9085,-4.9809,-5.0037,-5.0114,-5.0114,-5.0417,-5.0622,-5.0646,-5.1046,-5.1274,-5.1295,-5.1335,-5.1365,-5.1406,-5.1406,-5.1406,-5.1406,-5.1406,-5.1406,-5.1406,-5.1406,-5.1406,-5.1406,-5.1406,-5.1405,-5.1404,-5.1404,-5.1404,-5.1404,-5.1402,-5.1402,-5.1401,-5.1399,-5.1396,-5.1257,-5.0032,-4.9603,-4.9523,0.0,0.0,0.0,0.0,0.0,0.0,0.0,0.0,0.0,0.0,-3.5591,-3.5743,-3.6614,-3.6678,-3.7028,-3.7875,-3.7698,-3.8122,-3.9453,-3.9169,-3.9724,-4.1437,-4.1317,-4.1992,-4.3624,-4.3663,-4.3978,-4.4609,-4.4609,-4.4609,-4.4609,-4.4838,-4.4965,-4.5005,-4.5254,-4.5419,-4.5566,-4.5582,-4.5723,-4.59,-4.5932,-4.596,-4.6002,-4.6002,-4.6002,-4.6002,-4.6002,-4.6002,-4.5986,-4.5912,-4.59,-4.5886,-4.5783,-4.5754,-4.5783,-4.5893,-4.5918,-4.5937,-4.5986,-4.6002,-4.6002,-4.6002,-4.6002,-4.6002,-4.6002,-4.6002,-4.6002,-4.6002,-4.6002,-4.6002,-4.6002,-4.6002,-4.6079,-4.6327,-4.689,-4.7473,-4.7958,-4.9098,-4.9994,-5.0222,-5.0825,-5.1205,-5.1235,-5.1217,-5.1215,-5.1222,-5.1327,-5.1377,-5.1334,-5.1366,-5.1406,-5.1406,-5.1406,-5.1406,-5.1406,-5.1406,-5.1406,-5.1406,-5.1406,-5.1406,-5.1405,-5.1404,-5.1402,-5.1398,-5.1398,-5.1398,-5.1398,-5.1397,-5.1396,-5.1396,-5.1394,-5.139,-5.1328,-5.0688,-5.0455,-5.0377,0.0,0.0,0.0,0.0,0.0,0.0,0.0,0.0,0.0,0.0,0.0,0.0,0.0,-3.6169,-3.6463,-3.7265,-3.7085,-3.7419,-3.8553,-3.8609,-3.9483,-4.1409,-4.1495,-4.1915,-4.2813,-4.2832,-4.2851,-4.2889,-4.2889,-4.2889,-4.2889,-4.3663,-4.4116,-4.4276,-4.513,-4.5575,-4.5708,-4.5826,-4.5893,-4.5906,-4.5964,-4.5997,-4.6002,-4.6002,-4.6002,-4.6002,-4.6002,-4.6002,-4.5986,-4.5912,-4.59,-4.59,-4.5893,-4.5893,-4.5912,-4.5969,-4.5997,-4.5997,-4.6002,-4.6002,-4.6002,-4.6002,-4.6002,-4.6002,-4.6002,-4.6002,-4.6002,-4.6002,-4.6002,-4.6002,-4.6002,-4.6002,-4.6268,-4.7123,-4.7273,-4.79,-4.9576,-4.9863,-5.0209,-5.1063,-5.118,-5.1229,-5.1288,-5.1245,-5.1225,-5.1294,-5.1367,-5.1403,-5.1405,-5.1405,-5.1405,-5.1406,-5.1406,-5.1405,-5.1405,-5.1406,-5.1405,-5.1399,-5.1403,-5.1403,-5.1398,-5.1398,-5.1398,-5.1398,-5.1398,-5.1398,-5.1398,-5.1393,-5.1409,-5.1408,-5.14,-5.1394,-5.1394,-5.1375,-5.1355,-5.1355,0.0,0.0,0.0,0.0,0.0,0.0,0.0,0.0,0.0,0.0,0.0,0.0,0.0,0.0,0.0,0.0,-3.654,-3.6851,-3.7984,-3.8401,-3.8981,-3.9804,-4.0406,-4.1094,-4.1915,-4.1934,-4.2231,-4.286,-4.286,-4.2905,-4.3002,-4.3272,-4.3431,-4.3473,-4.3781,-4.3975,-4.411,-4.417,-4.4555,-4.5163,-4.519,-4.5511,-4.6002,-4.6002,-4.6002,-4.6002,0.0,-4.6002,-4.5997,-4.5964,-4.5978,-4.5978,-4.5978,-4.5978,-4.5964,-4.5991,-4.6002,-4.6002,-4.6002,-4.6002,-4.6002,-4.6002,-4.6002,-4.6002,-4.6002,-4.6002,-4.6002,-4.6002,-4.6002,-4.6002,-4.6002,-4.6002,-4.6299,-4.722,-4.7816,-4.8568,-4.9746,-5.0408,-5.0872,-5.1164,-5.1245,-5.1279,-5.1295,-5.1282,-5.1288,-5.1356,-5.1387,-5.1656,-5.2221,-5.226,-5.2534,-5.3102,-5.3139,-5.312,-5.3123,-5.2555,-5.2262,-5.2262,-5.1675,-5.1398,-5.1393,-5.1393,-5.1409,-5.1403,-5.1403,-5.1403,-5.1403,-5.1402,-5.14,-5.14,-5.1396,-5.1394,-5.1394,-5.1394,-5.1394,-5.1394,0.0,0.0,0.0,0.0,0.0,0.0,0.0,0.0,0.0,0.0,0.0,0.0,0.0,0.0,0.0,0.0,0.0,-3.6343,-3.7386,-3.777,-3.8167,-3.8624,-3.9476,-4.0185,-4.0703,-4.1018,-4.1464,-4.2085,-4.2085,-4.2125,-4.2213,-4.2533,-4.2671,-4.2714,-4.3023,-4.324,-4.3379,-4.3379,-4.3749,-4.4365,-4.4676,-4.5103,-4.5594,-4.5885,-4.6002,0.0,-4.6002,-4.6002,-4.6002,-4.6002,-4.6002,-4.6002,-4.6002,-4.6002,-4.6002,-4.6002,-4.6002,-4.6002,-4.6002,-4.6002,-4.6002,-4.6002,-4.6002,-4.6002,-4.6002,-4.6002,-4.6002,-4.6002,-4.6002,-4.6002,-4.6002,-4.6002,-4.6391,-4.7629,-4.8263,-4.9011,-5.0198,-5.0874,-5.1232,-5.1274,-5.1302,-5.1338,-5.1344,-5.1594,-5.1789,-5.1835,-5.185,-5.2231,-5.3113,-5.3153,-5.3427,-5.3975,-5.3992,-5.3993,-5.3997,-5.345,-5.3001,-5.269,-5.2137,-5.1702,-5.1405,-5.1405,-5.1402,-5.1394,-5.1394,-5.1394,-5.1394,-5.1394,-5.1394,-5.1394,-5.1394,-5.1394,-5.1394,-5.1394,-5.1394,-5.1394,0.0,0.0,0.0,0.0,0.0,0.0,0.0,0.0,0.0,0.0,0.0,0.0,0.0,0.0,0.0,0.0,0.0,0.0,-3.6698,-3.6789,-3.714,-3.7899,-3.8773,-3.9243,-3.9301,-4.0105,-4.0556,-4.0602,-4.0602,-4.0602,-4.0628,-4.147,-4.1873,-4.1974,-4.2814,-4.3249,-4.3369,-4.3369,-4.3389,-4.351,-4.4384,-4.4753,-4.4889,-4.5691,-4.6002,-4.6002,-4.6002,-4.6002,-4.6002,-4.6002,-4.6002,-4.6002,-4.6002,-4.6002,-4.6002,-4.6002,-4.6002,-4.6002,-4.6002,-4.6002,-4.6002,-4.6002,-4.6002,-4.6002,-4.6002,-4.6002,-4.6002,-4.6002,-4.6002,-4.6002,-4.6002,-4.6007,-4.6556,-4.8266,-4.8577,-4.9202,-5.0891,-5.1233,-5.1331,-5.1386,-5.1445,-5.1462,-5.1476,-5.2202,-5.2695,-5.2734,-5.2765,-5.3144,-5.4024,-5.4063,-5.4086,-5.413,-5.4125,-5.4122,-5.4122,-5.4031,-5.3542,-5.2637,-5.263,-5.2195,-5.1394,-5.1394,-5.1394,-5.1394,-5.1394,-5.1394,-5.1394,-5.1394,-5.1394,-5.1394,-5.1394,-5.1394,-5.1394,-5.1394,-5.1394,-5.1394,0.0,0.0,0.0,0.0,0.0,0.0,0.0,0.0,0.0,0.0,0.0,0.0,0.0,0.0,0.0,0.0,0.0,0.0,-3.5885,-3.6476,-3.689,-3.7102,-3.7886,-3.8638,-3.9282,-3.952,-4.0004,-4.0745,-4.0745,-4.0761,-4.0828,-4.1056,-4.1168,-4.1189,-4.1417,-4.1529,-4.1568,-4.1568,-4.1937,-4.2617,-4.3471,-4.4229,-4.4889,-4.5691,-4.6002,-4.6002,-4.6002,-4.6002,-4.6002,-4.6002,-4.6002,-4.6002,-4.6002,-4.6002,-4.6002,-4.6002,-4.6002,-4.6002,-4.6002,-4.6002,-4.6002,-4.6002,-4.6002,-4.6002,-4.6002,-4.6002,-4.6002,-4.6002,-4.6002,-4.6002,-4.6002,-4.6046,-4.6422,-4.7527,-4.8254,-4.9072,-5.0222,-5.0953,-5.1386,-5.1406,-5.1966,-5.2362,-5.2372,-5.3141,-5.3907,-5.4551,-5.4037,-5.4053,-5.4912,-5.497,-5.5265,-5.5909,-5.5946,-5.5931,-5.5938,-5.4651,-5.3242,-5.173,-5.1728,-5.1629,-5.1394,-5.1394,-5.1394,-5.1394,-5.1394,-5.1394,-5.1394,-5.1394,-5.1394,-5.1394,-5.1394,-5.1394,-5.1394,-5.1394,-5.1394,-5.1394,0.0,0.0,0.0,0.0,0.0,0.0,0.0,0.0,0.0,0.0,0.0,0.0,0.0,0.0,0.0,0.0,0.0,0.0,0.0,-3.6157,-3.6406,-3.6401,-3.7182,-3.7829,-3.8313,-3.9073,-3.9567,-3.9751,-4.0488,-4.0689,-4.0383,-4.0733,-4.0911,-4.0949,-4.0949,-4.0949,-4.0942,-4.0942,-4.1234,0.0,0.0,-4.3785,-4.4364,-4.5551,-4.6002,-4.6002,-4.6002,-4.6002,-4.6002,-4.6002,-4.6002,-4.6002,-4.6002,-4.6002,-4.6002,-4.6002,-4.6002,-4.6002,-4.6002,-4.6002,-4.6002,-4.6002,-4.6002,-4.6002,-4.6002,-4.6002,-4.6002,-4.6002,-4.6002,-4.6002,-4.6002,-4.6044,-4.6385,-4.7259,-4.8123,-4.9026,-4.9961,-5.0859,-5.1406,-5.1401,-5.2169,-5.2704,-5.2704,-5.3834,-5.4771,-5.5259,-5.4849,-5.4947,-5.5825,-5.5864,-5.6098,-5.6586,-5.6606,-5.6413,-5.603,-5.4683,-5.3313,-5.196,-5.196,-5.1765,-5.1394,-5.1394,-5.1394,-5.1394,-5.1394,-5.1394,-5.1394,-5.1394,-5.1394,-5.1394,-5.1394,-5.1394,-5.1394,-5.1394,-5.1394,-5.1394,0.0,0.0,0.0,0.0,0.0,0.0,0.0,0.0,0.0,0.0,0.0,0.0,0.0,0.0,0.0,0.0,0.0,0.0,0.0,0.0,-3.5891,-3.5901,-3.6561,-3.6984,-3.71,-3.8576,-3.9101,-3.8581,-4.0033,-4.0446,-3.9896,-4.0595,-4.0933,-4.1006,-4.1006,-4.0994,-4.0992,-4.0992,-4.0992,-4.1145,-4.2713,-4.3406,-4.3669,0.0,-4.5905,-4.6002,-4.6002,-4.6002,-4.6002,-4.6002,-4.6002,-4.6002,-4.6002,-4.6002,-4.6002,-4.6002,-4.6002,-4.6002,-4.6002,-4.6002,-4.6002,-4.6002,-4.6002,-4.6002,-4.6002,-4.6002,-4.6002,-4.6002,-4.6002,-4.6002,-4.6002,-4.6044,-4.6355,-4.7122,-4.8074,-4.8992,-4.9805,-5.0781,-5.1402,-5.1398,-5.2175,-5.2704,-5.2704,-5.4285,-5.53,-5.53,-5.53,-5.5689,-5.6547,-5.6606,-5.6547,-5.643,-5.6313,-5.5845,-5.4968,-5.4205,-5.3385,-5.2528,-5.2528,-5.2136,-5.1394,-5.1394,-5.1394,-5.1394,-5.1394,-5.1394,-5.1394,-5.1394,-5.1394,-5.1394,-5.1394,-5.1394,-5.1394,-5.1394,-5.1394,-5.1394,0.0,0.0,0.0,0.0,0.0,0.0,0.0,0.0,0.0,0.0,-3.5907,-3.5811,0.0,0.0,0.0,0.0,0.0,0.0,0.0,0.0,0.0,-3.5901,-3.5978,-3.6358,-3.7081,-3.7392,-3.8188,-3.947,-3.9781,-4.0209,-4.0779,-4.0915,-4.0992,-4.1002,-4.1002,-4.1005,-4.0992,-4.0992,-4.0992,-4.1087,-4.2109,-4.2919,-4.361,-4.4618,0.0,0.0,-4.6002,-4.6002,-4.6002,-4.6002,-4.6002,-4.6002,-4.6002,-4.6002,-4.6002,-4.6002,-4.6002,-4.6002,-4.6002,-4.6002,-4.6002,-4.6002,-4.6002,-4.6002,-4.6002,-4.6002,-4.6002,-4.6002,-4.6002,-4.6002,-4.6002,-4.6044,-4.6177,-4.636,-4.7745,-4.8847,-4.9008,-5.0409,-5.1402,-5.1394,-5.2175,-5.2704,-5.2704,-5.4285,-5.53,-5.53,-5.53,-5.5689,-5.6547,-5.6606,-5.6274,-5.5552,-5.483,-5.4029,-5.3153,-5.2997,-5.2487,-5.1629,-5.1629,-5.155,-5.1394,-5.1394,-5.1394,-5.1394,-5.1394,-5.1394,-5.1394,-5.1394,-5.1394,-5.1394,-5.1394,-5.1394,-5.1394,-5.1394,-5.1394,-5.1394,0.0,0.0,0.0,0.0,0.0,0.0,0.0,-3.5992,-3.5992,-3.5992,-3.5978,-3.5938,-3.5853,-3.5914,-3.5947,0.0,0.0,0.0,0.0,0.0,0.0,0.0,0.0,0.0,-3.642,-3.6867,-3.7294,-3.7679,0.0,-3.9673,-3.9672,-4.0584,-4.102,-4.1049,-4.1049,-4.1053,-4.1055,-4.1055,-4.1055,-4.1133,-4.196,-4.2807,-4.3636,0.0,0.0,0.0,-4.6002,-4.6002,-4.6002,-4.6002,-4.6002,-4.6002,-4.6002,-4.6002,-4.6002,-4.6002,-4.6002,-4.6002,-4.6002,-4.6002,-4.6002,-4.6002,-4.6002,-4.6002,-4.6002,-4.6002,-4.6002,-4.6002,-4.6002,-4.6002,-4.6002,-4.6044,-4.6112,-4.6142,-4.7254,-4.828,-4.8743,-4.9902,-5.0887,-5.1355,-5.2175,-5.2704,-5.2704,-5.3873,-5.4615,-5.4615,-5.4615,-5.5005,-5.5884,-5.5493,-5.5064,-5.4635,-5.3776,-5.3112,-5.2704,-5.2253,-5.1804,-5.1394,-5.1394,-5.1394,-5.1394,-5.1394,-5.1394,-5.1394,-5.1394,-5.1394,-5.1394,-5.1394,-5.1394,-5.1394,-5.1394,-5.1394,-5.1394,-5.1394,-5.1394,-5.1394,0.0,0.0,0.0,0.0,0.0,0.0,0.0,-3.5992,-3.5992,-3.5992,-3.5992,-3.5992,-3.5992,-3.5992,-3.5992,0.0,0.0,0.0,0.0,0.0,0.0,0.0,0.0,0.0,0.0,0.0,0.0,-3.6075,-3.8136,0.0,0.0,0.0,0.0,0.0,-4.1092,-4.1107,-4.1109,-4.1109,-4.1109,0.0,0.0,-4.2668,0.0,0.0,0.0,0.0,0.0,-4.6002,-4.6002,-4.6002,-4.6002,-4.6002,-4.6002,-4.6002,-4.6002,-4.6002,-4.6002,-4.6002,-4.6002,-4.6002,-4.6002,-4.6002,-4.6002,-4.6002,-4.6002,-4.6002,-4.6002,-4.6002,-4.6002,-4.6002,-4.6002,-4.6046,-4.6087,-4.6118,-4.6885,-4.7791,-4.8671,-4.954,-5.0426,-5.1297,-5.1999,-5.2411,-5.2411,-5.321,-5.3717,-5.3717,-5.3717,-5.4108,-5.4966,-5.4205,-5.3717,-5.3717,-5.2878,-5.2411,-5.2411,-5.1746,-5.1394,-5.1394,-5.1394,-5.1394,-5.1394,-5.1394,-5.1394,-5.1394,-5.1394,-5.1394,-5.1394,-5.1394,-5.1394,-5.1394,-5.1394,-5.1394,-5.1394,-5.1394,-5.1394,-5.1394,0.0,0.0,0.0,0.0,0.0,0.0,0.0,-3.5992,-3.5992,-3.5992,-3.5992,-3.5992,-3.5992,-3.5992,-3.5992,0.0,0.0,0.0,0.0,0.0,0.0,0.0,0.0,0.0,0.0,0.0,0.0,-3.6971,-3.7224,0.0,0.0,0.0,0.0,0.0,0.0,-4.1093,-4.1109,-4.1109,0.0,0.0,0.0,0.0,0.0,0.0,0.0,0.0,0.0,-4.6002,-4.6002,-4.6002,-4.6002,-4.6002,-4.6002,-4.6002,-4.6002,-4.6002,-4.6002,-4.6002,-4.6002,-4.6002,-4.6002,-4.6002,-4.6002,-4.6002,-4.6002,-4.6002,-4.6002,-4.6002,-4.6002,-4.6002,-4.6002,-4.6007,-4.6054,-4.6165,-4.6872,-4.7736,-4.8679,-4.9544,-5.0425,-5.1301,-5.1472,-5.1511,-5.1511,-5.2312,-5.2821,-5.2821,-5.2821,-5.319,-5.4068,-5.3288,-5.2821,-5.2821,-5.196,-5.1511,-5.1511,-5.1433,-5.1394,-5.1394,-5.1394,-5.1394,-5.1394,-5.1394,-5.1394,-5.1394,-5.1394,-5.1394,-5.1394,-5.1394,-5.1394,-5.1394,-5.1394,-5.1394,-5.1394,-5.1394,-5.1394,-5.1394,0.0,0.0,0.0,0.0,0.0,0.0,-3.5992,-3.5992,-3.5992,-3.5992,-3.5992,-3.5992,-3.5992,-3.5992,-3.5992,-3.5992,0.0,0.0,0.0,0.0,0.0,0.0,0.0,0.0,0.0,0.0,-3.6031,-3.638,-3.6907,0.0,0.0,0.0,0.0,0.0,0.0,-4.1109,-4.1109,-4.1109,0.0,0.0,0.0,0.0,0.0,0.0,0.0,0.0,0.0,0.0,-4.6002,-4.6002,-4.6002,-4.6002,-4.6002,-4.6002,-4.6002,-4.6002,-4.6002,-4.6002,-4.6002,-4.6002,-4.6002,-4.6002,-4.6002,-4.6002,-4.6002,-4.6002,-4.6002,-4.6002,-4.6032,-4.6052,-4.6052,-4.6091,-4.6139,-4.6199,-4.6463,-4.7161,-4.8591,-4.9093,-4.9847,-5.1221,-5.1394,-5.1394,-5.1394,-5.1707,-5.1921,-5.1921,-5.1921,-5.2078,-5.2429,-5.2117,-5.1921,-5.1921,-5.159,-5.1394,-5.1394,-5.1394,-5.1394,-5.1394,-5.1394,-5.1394,-5.1394,-5.1394,-5.1394,-5.1394,-5.1394,-5.1394,-5.1394,-5.1394,-5.1394,-5.1394,-5.1394,-5.1394,-5.1394,-5.1394,-5.1394,-5.1394,0.0,0.0,0.0,0.0,0.0,-3.5992,-3.5992,-3.5992,-3.5992,-3.5992,-3.5992,-3.5992,-3.5992,-3.5992,-3.5991,-3.5967,-3.5965,0.0,0.0,0.0,0.0,0.0,0.0,0.0,0.0,0.0,-3.5899,-3.5907,-3.6511,-3.7399,0.0,0.0,-4.0032,-4.1109,0.0,0.0,0.0,0.0,0.0,0.0,0.0,0.0,0.0,0.0,0.0,0.0,0.0,0.0,0.0,0.0,0.0,-4.6002,-4.6002,-4.6002,-4.6002,-4.6002,-4.6002,-4.6002,-4.6002,-4.6002,-4.6002,-4.6002,-4.6002,-4.6002,-4.6002,-4.6002,-4.6002,-4.6002,-4.6044,-4.6098,-4.6098,-4.6153,-4.6206,-4.6196,-4.6205,-4.6816,-4.8552,-4.8799,-4.9454,-5.1182,-5.1394,-5.1394,-5.1394,-5.1394,-5.1394,-5.1394,-5.1394,-5.1394,-5.1394,-5.1394,-5.1394,-5.1394,-5.1394,-5.1394,-5.1394,-5.1394,-5.1394,-5.1394,-5.1394,-5.1394,-5.1394,-5.1394,-5.1394,-5.1394,-5.1394,-5.1394,-5.1394,-5.1394,-5.1394,-5.1394,-5.1394,-5.1394,-5.1394,-5.1394,-5.1394,-5.1394,0.0,0.0,0.0,0.0,0.0,0.0,-3.5992,-3.5992,-3.5992,-3.5992,-3.5992,-3.5992,-3.5992,-3.5992,-3.5967,-3.591,-3.5908,0.0,0.0,0.0,0.0,0.0,0.0,0.0,0.0,0.0,-3.5908,-3.5898,-3.5918,-3.6833,-3.8591,-3.8611,-3.9509,-4.1109,0.0,0.0,0.0,0.0,0.0,0.0,0.0,0.0,0.0,0.0,0.0,0.0,0.0,0.0,0.0,0.0,0.0,0.0,0.0,-4.6002,-4.6002,-4.6002,-4.6002,-4.6002,-4.6002,-4.6002,-4.6002,-4.6002,-4.6002,-4.6002,-4.6002,-4.6002,-4.6002,-4.6002,-4.6044,-4.6098,-4.6098,-4.6153,-4.6194,-4.6191,-4.6202,-4.6809,-4.8555,-4.8802,-4.945,-5.1183,-5.1394,-5.1394,-5.1394,-5.1394,-5.1394,-5.1394,-5.1394,-5.1394,-5.1394,-5.1394,-5.1394,-5.1394,-5.1394,-5.1394,-5.1394,-5.1394,-5.1394,-5.1394,-5.1394,-5.1394,-5.1394,-5.1394,-5.1394,-5.1394,-5.1394,-5.1394,-5.1394,-5.1394,-5.1394,-5.1394,-5.1394,-5.1394,-5.1394,-5.1394,-5.1394,-5.1394,0.0,0.0,0.0,0.0,0.0,0.0,0.0,-3.5992,-3.5992,-3.5992,-3.5992,-3.5992,-3.5992,-3.5963,-3.5939,-3.5965,-3.5935,0.0,0.0,0.0,0.0,0.0,0.0,0.0,0.0,0.0,-3.5971,-3.5965,-3.5965,-3.686,-3.8591,-3.8591,-3.9489,-4.1109,-4.1109,-4.1109,0.0,0.0,0.0,0.0,0.0,0.0,-4.3858,0.0,0.0,0.0,0.0,0.0,0.0,0.0,0.0,0.0,0.0,0.0,0.0,-4.6002,-4.6002,-4.6002,-4.6002,-4.6002,-4.6002,-4.6002,-4.6002,-4.6002,-4.6002,-4.6036,-4.606,-4.606,-4.6116,-4.6161,-4.6161,-4.6211,-4.6264,-4.6277,-4.6262,-4.6867,-4.8568,-4.8808,-4.9454,-5.1182,-5.1394,-5.1394,-5.1394,-5.1394,-5.1394,-5.1394,-5.1394,-5.1394,-5.1394,-5.1394,-5.1394,-5.1394,-5.1394,-5.1394,-5.1394,-5.1394,-5.1394,-5.1394,-5.1394,-5.1394,-5.1394,-5.1394,-5.1394,-5.1394,-5.1394,-5.1394,-5.1394,-5.1394,-5.1394,-5.1394,-5.1394,-5.1394,-5.1394,-5.1394,-5.1394,-5.1394,0.0,0.0,0.0,0.0,0.0,0.0,0.0,-3.5992,-3.5992,-3.5992,-3.5988,-3.5963,-3.5963,-3.5924,-3.5926,-3.5968,-3.5913,0.0,0.0,0.0,0.0,0.0,0.0,0.0,-3.5934,-3.5982,-3.5992,-3.5992,-3.6324,-3.7204,-3.8611,-3.8903,-3.9782,-4.1109,-4.1109,-4.1109,0.0,0.0,0.0,0.0,0.0,0.0,-4.4332,0.0,0.0,0.0,0.0,0.0,0.0,0.0,0.0,0.0,0.0,0.0,0.0,0.0,-4.6002,-4.6002,-4.6002,-4.6002,-4.6002,-4.6002,-4.6002,-4.6012,-4.6032,-4.6064,-4.6109,-4.6134,-4.6175,-4.6191,-4.6191,-4.6242,-4.63,-4.63,-4.63,-4.6885,-4.8564,-4.8798,-4.9442,-5.1199,-5.1394,-5.1394,-5.1394,-5.1394,-5.1394,-5.1394,-5.1394,-5.1394,-5.1394,-5.1394,-5.1394,-5.1394,-5.1394,-5.1394,-5.1394,-5.1394,-5.1394,-5.1394,-5.1394,-5.1394,-5.1394,-5.1394,-5.1394,-5.1394,-5.1394,-5.1394,0.0,-5.1394,-5.1394,-5.1394,-5.1394,-5.1394,-5.1394,-5.1394,-5.1394,-5.1394,0.0,0.0,0.0,0.0,0.0,0.0,0.0,-3.5992,-3.5992,-3.5991,-3.5939,-3.5908,-3.5908,-3.5895,-3.5902,-3.5907,0.0,0.0,0.0,0.0,0.0,0.0,0.0,0.0,-3.5992,-3.5992,-3.6031,-3.609,-3.6891,-3.777,-3.8708,-3.9449,-4.0268,-4.1109,-4.1109,-4.1109,-4.1109,-4.1109,-4.1596,-4.2474,-4.3352,-4.4211,0.0,0.0,0.0,0.0,0.0,0.0,0.0,0.0,0.0,0.0,0.0,0.0,0.0,0.0,0.0,0.0,0.0,-4.6012,-4.6012,-4.6003,-4.6003,-4.6027,-4.6091,-4.6112,0.0,-4.6199,-4.6206,-4.6211,-4.6211,-4.6261,-4.63,-4.63,-4.63,-4.6885,-4.8564,-4.8915,-4.9599,-5.1219,-5.1394,-5.1394,-5.1394,-5.1394,-5.1394,-5.1394,-5.1394,-5.1394,-5.1394,-5.1394,-5.1394,-5.1394,-5.1394,-5.1394,-5.1394,-5.1394,-5.1394,-5.1394,-5.1394,-5.1394,-5.1394,-5.1394,-5.1394,-5.1394,-5.1394,-5.1394,-5.1394,-5.1394,-5.1394,-5.1394,-5.1394,-5.1394,-5.1394,-5.1394,-5.1394,-5.1394,0.0,0.0,0.0,0.0,0.0,0.0,0.0,0.0,0.0,0.0,-3.5942,-3.5962,-3.5908,-3.5895,-3.5926,0.0,0.0,0.0,0.0,0.0,0.0,0.0,0.0,0.0,-3.5992,-3.5992,-3.6324,-3.6989,-3.7204,-3.8063,-3.9527,-3.9702,-4.0268,-4.1109,-4.1109,-4.1109,-4.1109,-4.1109,-4.1596,-4.2474,-4.3352,-4.4211,0.0,0.0,0.0,0.0,-4.627,-4.6245,0.0,0.0,0.0,0.0,0.0,0.0,0.0,0.0,-4.6002,-4.6017,-4.6056,0.0,-4.6087,-4.6139,-4.615,-4.6155,0.0,-4.6171,-4.6186,-4.6209,-4.6248,-4.6273,-4.6273,-4.6287,-4.63,-4.63,-4.63,-4.6885,-4.8564,-4.995,-5.0945,-5.1355,-5.1394,-5.1394,-5.1394,-5.1394,-5.1394,-5.1394,-5.1394,-5.1394,-5.1394,-5.1394,-5.1394,-5.1394,-5.1394,-5.1394,-5.1394,-5.1394,-5.1394,-5.1394,-5.1394,-5.1394,-5.1394,-5.1394,-5.1394,-5.1394,-5.1394,-5.1394,-5.1394,-5.1394,-5.1394,-5.1394,-5.1394,-5.1394,-5.1394,-5.1394,-5.1394,-5.1394,0.0,0.0,0.0,0.0,0.0,0.0,0.0,0.0,0.0,0.0,0.0,0.0,0.0,0.0,0.0,0.0,0.0,0.0,0.0,0.0,0.0,0.0,0.0,-3.5992,-3.5992,-3.6383,-3.6833,-3.7301,-3.8063,-3.8902,-3.9819,-4.021,-4.0659,-4.1109,-4.1109,-4.1109,-4.1129,-4.1537,-4.2201,-4.3079,-4.3957,0.0,0.0,0.0,0.0,0.0,-4.6305,-4.6276,0.0,-4.6211,-4.6185,-4.6156,0.0,0.0,0.0,0.0,-4.6091,-4.6105,-4.6147,-4.6125,-4.6118,-4.6173,-4.6202,-4.6207,-4.6201,-4.6209,-4.6211,-4.6245,-4.6273,-4.63,-4.63,-4.63,-4.63,-4.63,-4.6632,-4.7471,-4.9169,-5.0555,-5.1394,-5.1394,-5.1394,-5.1394,-5.1394,-5.1394,-5.1394,-5.1394,-5.1394,-5.1394,-5.1394,-5.1394,-5.1394,-5.1394,-5.1394,-5.1394,-5.1394,-5.1394,-5.1394,-5.1394,-5.1394,-5.1394,-5.1394,-5.1394,-5.1394,-5.1394,-5.1394,-5.1394,-5.1394,-5.1394,-5.1394,-5.1394,-5.1394,-5.1394,-5.1394,-5.1394,-5.1394,-5.1394,0.0,0.0,0.0,0.0,0.0,0.0,0.0,0.0,0.0,0.0,0.0,0.0,0.0,0.0,0.0,0.0,0.0,0.0,0.0,0.0,0.0,0.0,-3.6265,-3.6207,-3.6207,-3.7048,-3.7555,-3.7672,-3.9097,-3.9878,-4.0015,-4.0758,-4.1109,-4.1109,-4.1109,-4.1168,-4.1343,-4.2084,-4.2982,-4.3957,-4.4699,0.0,0.0,0.0,0.0,0.0,0.0,0.0,0.0,-4.6227,-4.6211,-4.6191,-4.6199,0.0,0.0,0.0,0.0,0.0,-4.619,-4.6153,-4.6125,-4.6191,-4.6217,-4.6222,-4.6211,-4.621,-4.6228,-4.6287,-4.63,-4.63,-4.63,-4.63,-4.63,-4.63,-4.7139,-4.8328,-4.9889,-5.0848,-5.1394,-5.1394,-5.1394,-5.1394,-5.1394,-5.1394,-5.1394,-5.1394,-5.1394,-5.1394,-5.1394,-5.1394,-5.1394,-5.1394,-5.1394,-5.1394,-5.1394,-5.1394,-5.1394,-5.1394,-5.1394,-5.1394,-5.1394,-5.1394,-5.1394,-5.1394,-5.1394,-5.1394,-5.1394,-5.1394,-5.1394,-5.1394,-5.1394,-5.1394,-5.1394,-5.1394,-5.1394,-5.1394,0.0,0.0,0.0,0.0,0.0,0.0,0.0,0.0,0.0,0.0,0.0,0.0,0.0,0.0,0.0,0.0,0.0,0.0,0.0,0.0,0.0,-3.8128,-3.7453,-3.7106,-3.7106,-3.7947,-3.8728,-3.9429,-3.9663,-4.0171,-4.0894,-4.1031,-4.1109,-4.1109,-4.1109,-4.1518,-4.2201,-4.2337,-4.3333,-4.4816,-4.4951,0.0,0.0,0.0,0.0,0.0,0.0,0.0,0.0,-4.6287,-4.6244,-4.6191,-4.6191,0.0,0.0,0.0,0.0,0.0,-4.619,-4.6191,-4.6191,-4.6261,-4.6276,-4.6274,-4.627,-4.6288,-4.6287,-4.6302,-4.63,-4.63,-4.63,-4.63,-4.63,-4.63,-4.7608,-4.8954,-4.9967,-5.0848,-5.1394,-5.1394,-5.1394,-5.1394,-5.1394,-5.1394,-5.1394,-5.1394,-5.1394,-5.1394,-5.1394,-5.1394,-5.1394,-5.1394,-5.1394,-5.1394,-5.1394,-5.1394,-5.1394,-5.1394,-5.1394,-5.1394,-5.1394,-5.1394,-5.1394,-5.1394,-5.1394,-5.1394,-5.1394,-5.1394,-5.1394,-5.1394,-5.1394,-5.1394,-5.1394,-5.1394,-5.1394,-5.1394,0.0,0.0,0.0,0.0,0.0,0.0,0.0,0.0,0.0,0.0,0.0,0.0,0.0,0.0,0.0,0.0,0.0,0.0,0.0,0.0,-3.851,-3.8506,-3.8598,-3.8427,-3.7957,-3.8803,-3.9429,-3.98,-4.0268,-4.0717,-4.1109,-4.1109,-4.1109,-4.1129,-4.1596,-4.2025,-4.2454,-4.3411,-4.4268,-4.5049,0.0,0.0,0.0,0.0,0.0,0.0,0.0,0.0,0.0,0.0,-4.6272,-4.6242,-4.6242,0.0,0.0,0.0,0.0,0.0,-4.6245,-4.6242,-4.6259,-4.6285,-4.63,-4.63,-4.63,-4.63,-4.63,-4.63,-4.63,-4.63,-4.63,-4.63,-4.6593,-4.749,-4.8291,-4.9267,-5.0614,-5.116,-5.1394,-5.1394,-5.1394,-5.1394,-5.1394,-5.1394,-5.1394,-5.1394,-5.1394,-5.1394,-5.1394,-5.1394,-5.1394,-5.1394,-5.1394,-5.1394,-5.1394,-5.1394,-5.1394,-5.1394,-5.1394,-5.1394,-5.1394,-5.1394,-5.1394,-5.1394,-5.1394,-5.1394,-5.1394,-5.1394,-5.1394,-5.1394,-5.1394,-5.1394,-5.1394,-5.1394,-5.1394,-5.1394,0.0,0.0,0.0,0.0,0.0,0.0,0.0,0.0,0.0,0.0,0.0,0.0,0.0,0.0,0.0,0.0,0.0,0.0,0.0,0.0,-3.9113,-3.9102,-3.9743,-3.9692,-3.8828,-3.9658,-4.0093,-4.0093,-4.0777,-4.1109,-4.1109,-4.1304,-4.1402,-4.1439,-4.2318,-4.2825,-4.3099,-4.4424,-4.5129,-4.5363,0.0,0.0,0.0,0.0,0.0,0.0,0.0,0.0,0.0,0.0,0.0,0.0,0.0,0.0,0.0,-4.63,-4.63,-4.63,-4.63,-4.63,-4.63,-4.63,-4.63,-4.63,-4.63,-4.63,-4.63,-4.63,-4.63,-4.63,-4.63,-4.63,-4.6846,-4.8525,-4.8798,-4.9403,-5.1141,-5.1394,-5.1394,-5.1394,-5.1394,-5.1394,-5.1394,-5.1394,-5.1394,-5.1394,-5.1394,-5.1394,-5.1394,-5.1394,-5.1394,-5.1394,-5.1394,-5.1297,-5.1102,-5.1297,-5.1394,-5.1394,-5.1394,-5.1394,-5.1394,-5.1394,-5.1394,-5.1394,-5.1394,-5.1394,-5.1394,-5.1394,-5.1394,-5.1394,-5.1394,-5.1394,-5.1394,-5.1394,-5.1394,-5.1394,0.0,0.0,0.0,0.0,0.0,0.0,0.0,0.0,0.0,0.0,0.0,0.0,0.0,0.0,0.0,0.0,0.0,0.0,0.0,0.0,-4.0918,-4.0918,-4.0961,-4.0595,-3.9726,-4.0556,-4.1012,-4.1012,-4.107,-4.1109,-4.1129,-4.1927,-4.2318,-4.2337,-4.3216,-4.4055,-4.4815,-4.4951,-4.548,-4.6202,-4.6261,0.0,0.0,0.0,0.0,0.0,0.0,0.0,0.0,0.0,0.0,0.0,0.0,0.0,-4.63,-4.63,-4.63,-4.63,-4.63,-4.63,-4.63,-4.63,-4.63,-4.63,-4.63,-4.63,-4.63,-4.63,-4.63,-4.63,-4.63,-4.63,-4.6846,-4.8525,-4.8798,-4.9403,-5.1141,-5.1394,-5.1394,-5.1394,-5.1394,-5.1394,-5.1394,-5.1394,-5.1394,-5.1394,-5.1394,-5.1394,-5.1394,-5.1394,-5.1394,-5.1394,-5.1394,-5.1004,-5.0202,-5.1004,-5.1394,-5.1394,-5.1394,-5.1394,-5.1394,-5.1394,-5.1394,-5.1394,-5.1394,-5.1394,-5.1394,-5.1394,-5.1394,-5.1394,-5.1394,-5.1394,-5.1394,-5.1394,-5.1394,-5.1394,0.0,0.0,0.0,0.0,0.0,0.0,0.0,0.0,0.0,0.0,0.0,0.0,0.0,0.0,0.0,0.0,0.0,0.0,0.0,-4.0918,-4.1093,-4.1093,-4.1092,-4.0941,-4.0623,-4.0929,-4.1109,-4.1109,-4.1109,-4.1382,-4.1927,-4.2259,-4.2689,-4.3255,-4.4114,-4.4699,-4.5049,-4.5578,-4.6007,-4.63,-4.63,-4.63,0.0,0.0,0.0,0.0,0.0,0.0,0.0,0.0,-4.63,-4.63,-4.63,-4.63,-4.63,-4.63,-4.63,-4.63,-4.63,-4.6305,-4.6306,-4.6302,-4.6305,-4.6308,-4.6308,-4.6308,-4.6295,-4.6249,-4.6263,-4.6306,-4.6302,-4.6749,-4.7471,-4.8623,-4.9247,-5.0028,-5.1238,-5.1394,-5.1394,-5.1394,-5.1394,-5.1394,-5.1394,-5.1394,-5.1394,-5.1394,-5.1394,-5.1394,-5.1394,-5.0887,-5.0592,-5.0592,-5.0067,-4.9618,-4.9286,-5.0165,-5.0592,-5.0592,-5.1141,-5.1394,-5.1394,-5.1394,-5.1394,-5.1394,-5.1394,-5.1394,-5.1394,-5.1394,-5.1394,-5.1394,-5.1394,-5.1394,-5.1394,-5.1394,-5.1394,-5.1394,0.0,0.0,0.0,0.0,0.0,0.0,0.0,0.0,0.0,0.0,0.0,0.0,0.0,0.0,0.0,0.0,0.0,0.0,-4.11,-4.11,-4.11,-4.11,-4.1092,-4.1236,-4.1507,-4.1514,-4.1382,-4.1109,-4.1382,-4.1967,-4.2825,-4.3099,-4.3548,-4.4153,-4.5012,-4.5402,-4.5441,-4.6046,-4.63,-4.63,-4.63,-4.63,0.0,0.0,0.0,0.0,0.0,0.0,0.0,0.0,-4.63,-4.63,-4.63,-4.63,-4.63,-4.63,-4.63,-4.63,-4.63,-4.6306,-4.6291,-4.6303,-4.6306,-4.6293,-4.6293,-4.6291,-4.6296,-4.625,-4.6249,-4.6261,-4.6305,-4.6994,-4.7836,-4.8663,-4.954,-5.0397,-5.1277,-5.1394,-5.1394,-5.1394,-5.1394,-5.1394,-5.1394,-5.116,-5.0984,-5.0984,-5.0731,-5.0575,-5.0575,-5.0008,-4.9694,-4.9694,-4.9111,-4.8681,-4.8427,-4.9538,-4.9967,-4.9694,-5.0848,-5.1394,-5.1394,-5.1394,-5.1394,-5.1394,-5.1394,-5.1394,-5.1394,-5.1394,-5.1394,-5.1394,-5.1394,-5.1394,-5.1394,-5.1394,-5.1394,-5.1394,0.0,0.0,0.0,0.0,0.0,0.0,0.0,0.0,0.0,0.0,0.0,0.0,0.0,0.0,0.0,0.0,0.0,0.0,-4.1111,-4.1113,-4.1113,-4.1113,-4.1124,-4.1537,-4.2396,-4.2415,-4.1986,-4.1129,-4.1986,-4.2864,-4.3725,-4.4602,-4.499,-4.5049,-4.5909,-4.63,-4.63,-4.63,-4.63,-4.63,-4.63,-4.63,-4.63,0.0,0.0,0.0,0.0,0.0,0.0,0.0,-4.63,-4.63,-4.63,-4.63,-4.63,-4.63,-4.63,-4.63,-4.63,-4.6306,-4.6291,-4.6303,-4.6306,-4.6293,-4.6293,-4.6306,-4.63,-4.63,-4.6247,-4.6211,-4.6308,-4.697,-4.7793,-4.8669,-4.954,-5.0416,-5.1277,-5.1394,-5.1394,-5.1394,-5.1394,-5.1394,-5.1394,-5.0612,-5.0104,-5.0104,-4.9286,-4.8798,-4.8798,-4.8798,-4.8798,-4.8798,-4.8779,-4.8388,-4.7606,-4.9245,-4.9655,-4.8818,-5.0575,-5.1394,-5.1394,-5.1394,-5.1394,-5.1394,-5.1394,-5.1394,-5.1394,-5.1394,-5.1394,-5.1394,-5.1394,-5.1394,-5.1394,-5.1394,-5.1394,-5.1394,0.0,0.0,0.0,0.0,0.0,0.0,0.0,0.0,0.0,0.0,0.0,0.0,0.0,0.0,0.0,0.0,0.0,0.0,-4.2011,-4.2596,-4.2932,-4.2939,-4.2923,-4.304,-4.3313,-4.3313,-4.3196,-4.2925,-4.3196,-4.3762,-4.4621,-4.4875,-4.5324,-4.5929,-4.6183,-4.63,-4.63,-4.63,-4.63,-4.63,-4.63,-4.63,-4.63,0.0,0.0,0.0,0.0,0.0,0.0,0.0,0.0,0.0,-4.63,-4.63,-4.63,-4.63,-4.63,-4.6302,-4.6308,-4.6291,-4.6293,-4.629,-4.6291,-4.6291,-4.6306,-4.6291,-4.6296,-4.6296,-4.6249,-4.6406,-4.7087,-4.7871,-4.8695,-4.9561,-5.0457,-5.1102,-5.1355,-5.1394,-5.1394,-5.1394,-5.1394,-5.1394,-5.1394,-5.0612,-5.0104,-5.0104,-4.9286,-4.8798,-4.8798,-4.8252,-4.7959,-4.7959,-4.7354,-4.6924,-4.669,-4.8349,-4.9052,-4.8818,-5.0575,-5.1394,-5.1394,-5.1394,-5.1394,-5.1394,-5.1394,-5.1394,-5.1394,-5.1394,-5.1043,-5.0553,-5.116,-5.1394,-5.1394,-5.1394,-5.1394,-5.1394,0.0,0.0,0.0,0.0,0.0,0.0,0.0,0.0,0.0,0.0,0.0,0.0,0.0,0.0,0.0,0.0,0.0,0.0,0.0,-4.34,-4.3699,-4.3704,-4.3705,-4.3833,-4.4126,-4.4478,-4.4624,-4.4578,-4.4273,-4.4575,-4.5433,-4.5433,-4.5726,-4.6216,-4.6275,-4.63,-4.63,-4.63,-4.63,-4.63,-4.63,-4.63,-4.63,0.0,0.0,0.0,0.0,0.0,0.0,0.0,0.0,0.0,-4.63,-4.63,-4.63,-4.63,-4.63,-4.6302,-4.6306,-4.6291,-4.6293,-4.6309,-4.6291,-4.6291,-4.6306,-4.6291,-4.6295,-4.6295,-4.6249,-4.6484,-4.7439,-4.8245,-4.905,-4.9952,-5.0828,-5.1394,-5.1394,-5.1394,-5.1394,-5.1394,-5.1394,-5.1394,-5.1394,-5.0301,-4.9577,-4.9577,-4.8486,-4.7803,-4.7803,-4.7354,-4.7081,-4.7081,-4.6573,-4.63,-4.63,-4.7959,-4.8798,-4.8818,-5.0575,-5.1394,-5.1394,-5.1394,-5.1394,-5.1394,-5.1394,-5.1199,-5.0906,-5.1258,-5.0887,-5.0182,-5.1063,-5.1394,-5.1394,-5.1394,-5.1394,-5.1394,0.0,0.0,0.0,0.0,0.0,0.0,0.0,0.0,0.0,0.0,-4.3601,0.0,0.0,0.0,0.0,0.0,0.0,0.0,0.0,0.0,-4.3938,-4.3938,-4.3938,-4.4231,-4.4906,-4.5689,-4.6021,-4.5899,-4.523,-4.5305,-4.6091,-4.6091,-4.6095,-4.6102,-4.6238,-4.6298,-4.63,-4.63,-4.63,-4.63,-4.63,-4.63,-4.63,-4.63,0.0,0.0,0.0,0.0,0.0,0.0,0.0,0.0,-4.63,-4.63,-4.63,-4.63,-4.63,-4.63,-4.6302,-4.6306,-4.629,-4.6303,-4.6306,-4.6293,-4.6293,-4.6306,-4.63,-4.6302,-4.6246,-4.6484,-4.7439,-4.8159,-4.8925,-4.9936,-5.077,-5.1316,-5.1394,-5.1394,-5.1394,-5.1394,-5.1394,-5.1394,-5.1394,-4.9813,-4.8798,-4.8798,-4.7256,-4.63,-4.63,-4.63,-4.63,-4.63,-4.63,-4.63,-4.63,-4.7959,-4.8798,-4.8818,-5.0575,-5.1394,-5.1394,-5.1394,-5.1394,-5.1394,-5.1394,-5.0906,-5.0163,-5.1043,-5.0887,-5.0182,-5.1063,-5.1394,-5.1394,-5.1394,-5.1394,-5.1394,0.0,0.0,0.0,0.0,0.0,0.0,0.0,0.0,0.0,0.0,0.0,0.0,0.0,0.0,0.0,0.0,0.0,0.0,0.0,0.0,-4.5742,-4.5742,-4.573,-4.5772,-4.5829,-4.6001,-4.6021,-4.5899,-4.575,-4.576,-4.5935,-4.5935,-4.5996,-4.6102,-4.6135,-4.6209,-4.63,-4.63,-4.63,-4.63,-4.63,-4.63,-4.63,-4.63,-4.63,0.0,0.0,0.0,0.0,0.0,0.0,0.0,-4.63,-4.63,-4.63,-4.63,-4.63,-4.6302,-4.6308,-4.6306,-4.6305,-4.6309,-4.6306,-4.6303,-4.6303,-4.6302,-4.6303,-4.6309,-4.6293,-4.6545,-4.7432,-4.7732,-4.834,-4.9852,-5.026,-5.0612,-5.1297,-5.1394,-5.1394,-5.1394,-5.1394,-5.1394,-5.1394,-4.9813,-4.8798,-4.8798,-4.7256,-4.63,-4.63,-4.63,-4.63,-4.63,-4.63,-4.63,-4.63,-4.7959,-4.8798,-4.8818,-5.0575,-5.1394,-5.1394,-5.1394,-5.1394,-5.1394,-5.1394,-5.0906,-5.0163,-5.1043,-5.0887,-5.0182,-5.1063,-5.1394,-5.1394,-5.1394,-5.1394,-5.1394,0.0,0.0,0.0,0.0,0.0,0.0,0.0,0.0,0.0,0.0,0.0,0.0,0.0,0.0,0.0,0.0,0.0,0.0,0.0,0.0,-4.6308,-4.6292,-4.6238,-4.6141,-4.6005,-4.5974,-4.5889,-4.5756,-4.5756,-4.579,-4.5853,-4.5853,-4.5889,-4.5954,-4.6064,-4.6141,-4.6211,-4.6273,-4.63,-4.63,-4.63,-4.63,-4.63,-4.63,-4.63,-4.63,-4.63,0.0,0.0,0.0,0.0,0.0,0.0,0.0,-4.63,-4.63,-4.63,-4.6302,-4.6306,-4.6303,-4.6302,-4.6306,-4.6303,-4.63,-4.63,-4.63,-4.6302,-4.6306,-4.6303,-4.6573,-4.743,-4.7606,-4.8016,-4.9267,-4.9481,-4.9774,-5.0653,-5.0789,-5.0926,-5.1355,-5.1394,-5.1394,-5.1394,-4.9813,-4.8798,-4.8798,-4.7256,-4.63,-4.63,-4.63,-4.63,-4.63,-4.63,-4.63,-4.63,-4.7959,-4.8798,-4.8818,-5.0575,-5.1394,-5.1394,-5.1394,-5.1394,-5.1394,-5.1394,-5.0906,-5.0163,-5.1043,-5.0887,-5.0182,-5.1063,-5.1394,-5.1394,-5.1394,-5.1394,-5.1394,0.0,0.0,0.0,0.0,0.0,0.0,0.0,0.0,0.0,0.0,0.0,0.0,0.0,0.0,0.0,0.0,0.0,0.0,0.0,0.0,0.0,-4.6267,-4.6167,-4.6033,-4.5897,-4.5829,-4.5727,-4.5594,-4.5594,-4.5671,-4.5764,-4.5764,-4.5778,-4.5814,-4.5988,-4.6087,-4.6105,-4.6243,-4.63,-4.63,-4.63,-4.63,-4.63,-4.63,-4.63,-4.63,-4.63,-4.63,-4.63,-4.63,0.0,0.0,0.0,0.0,-4.63,-4.63,-4.63,-4.63,-4.63,-4.63,-4.63,-4.63,-4.63,-4.63,-4.63,-4.63,-4.63,-4.63,-4.63,-4.6515,-4.7237,-4.7372,-4.7647,-4.8466,-4.8584,-4.8896,-4.9753,-4.987,-5.0143,-5.0867,-5.1082,-5.118,-5.118,-4.9735,-4.8798,-4.8798,-4.7256,-4.63,-4.63,-4.63,-4.63,-4.63,-4.63,-4.63,-4.63,-4.7959,-4.8798,-4.8818,-5.0575,-5.1394,-5.1394,-5.1394,-5.1394,-5.1394,-5.1394,-5.0984,-5.0377,-5.1102,-5.0984,-5.0397,-5.1121,-5.1394,-5.1394,-5.1394,-5.1394,-5.1394,0.0,0.0,0.0,0.0,0.0,0.0,0.0,0.0,0.0,0.0,-4.6199,0.0,0.0,0.0,0.0,0.0,0.0,0.0,0.0,0.0,0.0,-4.613,-4.6119,-4.6003,-4.5822,-4.5794,-4.5727,-4.5594,-4.5594,-4.5603,-4.5629,-4.5629,-4.5692,-4.5794,-4.5886,-4.5992,-4.6105,-4.6243,-4.63,-4.63,-4.63,-4.63,-4.63,-4.63,-4.63,-4.63,-4.63,-4.63,-4.63,-4.63,-4.63,0.0,0.0,0.0,-4.63,-4.63,-4.63,-4.63,-4.63,-4.63,-4.63,-4.63,-4.63,-4.63,-4.63,-4.63,-4.63,-4.63,-4.63,-4.6339,-4.6456,-4.6475,-4.6768,-4.7625,-4.7762,-4.8037,-4.8857,-4.8974,-4.9013,-4.913,-4.9813,-5.026,-5.026,-4.9384,-4.8798,-4.8798,-4.7256,-4.63,-4.63,-4.63,-4.63,-4.63,-4.63,-4.63,-4.63,-4.7959,-4.8798,-4.8818,-5.0575,-5.1394,-5.1394,-5.1394,-5.1394,-5.1394,-5.1394,-5.1336,-5.1238,-5.1355,-5.1336,-5.1238,-5.1355,-5.1394,-5.1394,-5.1394,-5.1394,-5.1394,0.0,0.0,0.0,0.0,0.0,0.0,0.0,0.0,0.0,0.0,0.0,-4.6199,0.0,0.0,0.0,0.0,0.0,0.0,0.0,0.0,0.0,-4.6107,-4.5954,-4.5854,-4.5807,-4.5739,-4.5651,-4.5594,-4.5594,-4.5594,-4.5594,-4.5594,-4.5637,-4.568,-4.584,-4.593,-4.6,-4.6211,-4.63,-4.63,-4.63,-4.63,-4.63,-4.63,-4.63,-4.63,-4.63,-4.63,-4.63,-4.63,-4.63,-4.63,-4.63,0.0,0.0,0.0,-4.63,-4.63,-4.63,-4.63,-4.63,-4.63,-4.63,-4.63,-4.63,-4.63,-4.63,-4.63,-4.63,-4.63,-4.63,-4.63,-4.6436,-4.6807,-4.6866,-4.7178,-4.8017,-4.8135,-4.8291,-4.8759,-4.915,-4.9364,-4.9364,-4.8623,-4.8111,-4.8068,-4.6975,-4.6292,-4.6292,-4.6292,-4.6294,-4.63,-4.63,-4.63,-4.63,-4.753,-4.8603,-4.954,-5.0809,-5.1394,-5.1394,-5.1394,-5.1394,-5.1394,-5.1394,-5.1394,-5.1394,-5.1394,-5.1394,-5.1394,-5.1394,-5.1394,-5.1394,-5.1394,-5.1394,-5.1394,0.0,0.0,0.0,0.0,0.0,0.0,0.0,0.0,0.0,0.0,0.0,0.0,0.0,0.0,0.0,0.0,0.0,0.0,0.0,0.0,0.0,-4.6041,-4.5821,-4.573,-4.5749,-4.5643,-4.5594,-4.5594,-4.5594,-4.5594,-4.5594,-4.5594,-4.5594,-4.5603,-4.5796,-4.5872,-4.5915,-4.6144,-4.6271,-4.63,-4.63,-4.63,-4.63,-4.63,-4.63,-4.63,-4.63,-4.63,-4.63,-4.63,-4.63,-4.63,-4.63,-4.63,0.0,0.0,0.0,-4.63,-4.63,-4.63,-4.63,-4.63,-4.63,-4.63,-4.63,-4.63,-4.63,-4.63,-4.63,-4.63,-4.63,-4.63,-4.63,-4.63,-4.63,-4.6534,-4.7178,-4.7276,-4.749,-4.8096,-4.8369,-4.8505,-4.8505,-4.7959,-4.7563,-4.7513,-4.6752,-4.6284,-4.6279,-4.626,-4.6264,-4.6273,-4.6296,-4.6296,-4.6296,-4.7157,-4.8445,-5.0104,-5.077,-5.1063,-5.1082,-5.1297,-5.1277,-5.1082,-5.1297,-5.1394,-5.1394,-5.1394,-5.1394,-5.1394,-5.1394,-5.1394,-5.1394,-5.1394,-5.1394,-5.1394,0.0,0.0,0.0,0.0,0.0,0.0,0.0,0.0,0.0,0.0,0.0,0.0,-4.6199,-4.6199,-4.6199,-4.6199,-4.6199,0.0,0.0,0.0,0.0,-4.5911,-4.5776,0.0,-4.5612,-4.5594,-4.5594,-4.5594,-4.5594,-4.5594,-4.5594,-4.5594,-4.5594,-4.5603,-4.5742,-4.5835,-4.591,-4.6053,-4.6181,-4.63,-4.63,-4.63,-4.63,-4.63,-4.63,-4.63,-4.63,-4.63,-4.63,-4.63,-4.63,-4.63,-4.63,-4.63,-4.63,0.0,0.0,0.0,-4.63,-4.63,-4.63,-4.63,-4.63,-4.63,-4.63,-4.63,-4.63,-4.63,-4.63,-4.63,-4.63,-4.63,-4.63,-4.63,-4.63,-4.6319,-4.6358,-4.6378,-4.6378,-4.6436,-4.7159,-4.7664,-4.7664,-4.7625,-4.7563,-4.7513,-4.6752,-4.626,-4.6209,-4.6209,-4.6209,-4.6209,-4.626,-4.6306,-4.6306,-4.7153,-4.8445,-5.0104,-5.0143,-5.0163,-5.0202,-5.1023,-5.0945,-5.0202,-5.1043,-5.1394,-5.1394,-5.1394,-5.1394,-5.1394,-5.1394,-5.1394,-5.1394,-5.1394,-5.1394,-5.1394,0.0,0.0,0.0,0.0,0.0,0.0,0.0,0.0,0.0,0.0,0.0,0.0,0.0,-4.6199,-4.6199,-4.6199,-4.6123,0.0,0.0,0.0,0.0,-4.5769,-4.5591,-4.5538,-4.5594,-4.5594,-4.5594,-4.5594,-4.5594,-4.5594,-4.5594,-4.5594,-4.5594,-4.5603,-4.5734,-4.5848,-4.591,-4.6045,-4.6178,-4.63,-4.63,-4.63,-4.63,-4.63,-4.63,-4.63,-4.63,-4.63,-4.63,-4.63,-4.63,-4.63,-4.63,-4.63,-4.63,-4.63,-4.63,-4.63,-4.63,-4.63,-4.63,-4.63,-4.63,-4.63,-4.63,-4.63,-4.63,-4.63,-4.63,-4.63,-4.63,-4.63,-4.63,-4.63,-4.63,-4.63,-4.63,-4.63,-4.63,-4.63,-4.6573,-4.6768,-4.6768,-4.6763,-4.6735,-4.6662,-4.6401,-4.6237,-4.6192,-4.6192,-4.6198,-4.6206,-4.6211,-4.6258,-4.6303,-4.7153,-4.7899,-4.8504,-4.9013,-4.9267,-4.9286,-4.9599,-4.9872,-5.0124,-5.0436,-5.0887,-5.1394,-5.1394,-5.1394,-5.1394,-5.1394,-5.1394,-5.1394,-5.1394,-5.1394,-5.1394,0.0,0.0,0.0,0.0,0.0,0.0,0.0,0.0,0.0,-4.6036,0.0,0.0,0.0,0.0,-4.6032,-4.6032,-4.5973,-4.59,-4.5821,-4.5626,-4.5568,-4.5669,-4.551,-4.5448,-4.5568,-4.5568,-4.5577,-4.5594,-4.5594,-4.5594,-4.5594,-4.5594,-4.5594,-4.5603,-4.5734,-4.5848,-4.591,-4.6045,-4.6178,-4.63,-4.63,-4.63,-4.63,-4.63,-4.63,-4.63,-4.63,-4.63,-4.63,-4.63,-4.63,-4.63,-4.63,-4.63,-4.63,-4.63,-4.63,-4.63,-4.63,-4.63,-4.63,-4.63,-4.63,-4.63,-4.63,-4.63,-4.63,-4.63,-4.63,-4.63,-4.63,-4.63,-4.63,-4.63,-4.63,-4.63,-4.63,-4.63,-4.63,-4.63,-4.63,-4.63,-4.63,-4.6292,-4.626,-4.6209,-4.6195,-4.6203,-4.6196,-4.6196,-4.6203,-4.6201,-4.6203,-4.6233,-4.6303,-4.686,-4.7313,-4.7606,-4.8135,-4.8408,-4.8408,-4.8681,-4.8974,-4.9284,-4.985,-5.0592,-5.1394,-5.1394,-5.1394,-5.1394,-5.1394,-5.1394,-5.1394,-5.1394,-5.1394,-5.1394,0.0,0.0,0.0,0.0,0.0,0.0,0.0,0.0,-4.5953,-4.5763,0.0,0.0,0.0,0.0,0.0,-4.5773,-4.5808,-4.5828,-4.5822,-4.5684,-4.5595,-4.5595,0.0,0.0,-4.5495,-4.5495,-4.5522,-4.5586,-4.5605,-4.5594,-4.5594,-4.5594,-4.5594,-4.5603,-4.5742,-4.5848,-4.591,-4.6045,-4.6178,-4.63,-4.63,-4.63,-4.63,-4.63,-4.63,-4.63,-4.63,-4.63,-4.63,-4.63,-4.63,-4.63,-4.63,-4.63,-4.63,-4.63,-4.63,-4.63,0.0,0.0,0.0,-4.63,-4.63,-4.63,-4.63,-4.63,-4.63,-4.63,-4.63,-4.63,-4.63,-4.63,-4.63,-4.63,-4.63,-4.63,-4.63,-4.63,-4.63,-4.63,-4.63,-4.63,-4.63,-4.629,-4.6279,-4.6209,-4.6192,-4.6196,-4.6199,-4.6199,-4.6206,-4.6203,-4.6198,-4.6233,-4.6303,-4.6294,-4.6729,-4.7567,-4.7567,-4.7567,-4.7586,-4.8369,-4.831,-4.7684,-4.9323,-5.0534,-5.1355,-5.1394,-5.1394,-5.1394,-5.1394,-5.1394,-5.1394,-5.1394,-5.1394,-5.1394,0.0,0.0,0.0,0.0,0.0,-4.5751,-4.571,-4.6279,-4.6705,0.0,0.0,0.0,-4.7654,-4.7606,-4.7511,-4.7388,-4.6857,-4.6467,-4.6321,-4.5726,-4.54,-4.5448,-4.5419,-4.5409,-4.5429,-4.5429,-4.5429,-4.5467,-4.5504,-4.5522,-4.5522,-4.5577,-4.5594,-4.5603,-4.579,-4.5872,-4.591,-4.6045,-4.6178,-4.63,-4.63,-4.63,-4.63,-4.63,-4.63,-4.63,-4.63,-4.63,-4.63,-4.63,-4.63,-4.63,-4.63,-4.63,-4.63,-4.63,-4.63,-4.63,-4.63,0.0,0.0,0.0,0.0,0.0,-4.63,-4.63,-4.63,-4.63,-4.63,-4.63,-4.63,-4.63,-4.63,-4.63,-4.63,-4.63,-4.63,-4.63,-4.63,-4.63,-4.63,-4.6298,-4.629,-4.626,-4.6226,-4.6192,-4.6196,-4.6203,-4.6199,-4.6199,-4.6199,-4.6206,-4.6203,-4.6217,-4.6233,-4.6284,-4.6409,-4.6651,-4.6651,-4.6651,-4.6671,-4.6885,-4.7217,-4.7645,-4.8308,-4.9187,-5.0221,-5.1063,-5.1394,-5.1394,-5.1394,-5.1394,-5.1394,-5.1394,-5.1394,-5.1394,0.0,0.0,0.0,0.0,0.0,-4.6629,-4.6581,-4.7047,-4.7392,0.0,0.0,0.0,-4.8094,-4.8137,-4.8111,-4.7942,-4.7481,-4.7162,-4.7054,-4.6596,-4.6186,-4.5865,-4.5865,-4.5713,-4.5409,-4.539,-4.54,-4.54,-4.5438,-4.5467,-4.5448,-4.5522,-4.5559,-4.5558,-4.5803,-4.5899,-4.5929,-4.6491,-4.657,-4.63,-4.63,-4.63,-4.63,-4.63,-4.63,-4.63,-4.63,-4.63,-4.63,-4.63,-4.63,-4.63,-4.63,-4.63,-4.63,-4.63,-4.63,-4.63,-4.63,-4.63,-4.63,-4.63,0.0,0.0,-4.63,-4.63,-4.63,-4.63,-4.63,-4.63,-4.63,-4.63,-4.63,-4.63,-4.63,-4.63,-4.63,-4.63,-4.63,-4.63,-4.6296,-4.6292,-4.6306,-4.625,-4.6195,-4.6206,-4.6209,-4.6199,-4.6199,-4.6199,-4.6199,-4.6199,-4.6196,-4.6209,-4.6198,-4.6277,-4.6308,-4.6294,-4.6298,-4.63,-4.63,-4.63,-4.6573,-4.71,-4.7608,-4.7996,-4.8445,-5.0535,-5.1394,-5.1394,-5.1394,-5.1394,-5.1394,-5.1394,-5.1394,-5.1394,0.0,0.0,-4.7777,-4.7777,-4.7871,-4.7913,-4.7799,-4.7958,-4.8066,0.0,-4.8006,-4.8063,-4.8063,-4.8179,-4.819,-4.8086,-4.7968,-4.7941,-4.7941,-4.7845,-4.7444,-4.6691,-4.6653,-4.633,-4.5675,-4.5666,-4.5629,-4.5525,-4.5525,-4.5496,-4.54,-4.5467,-4.5552,-4.5647,-4.5906,-4.6094,-4.624,-4.7293,-4.7295,-4.6573,-4.6475,-4.6436,-4.6436,-4.6339,-4.63,-4.63,-4.63,-4.63,-4.63,-4.63,-4.63,-4.63,-4.63,-4.63,-4.63,-4.63,-4.63,-4.63,-4.63,-4.63,-4.63,-4.63,-4.63,0.0,-4.63,-4.63,-4.63,-4.63,-4.63,-4.63,-4.63,-4.63,-4.63,-4.63,-4.63,-4.63,-4.63,-4.63,-4.63,-4.63,-4.6292,-4.6303,-4.6284,-4.622,-4.6203,-4.6203,-4.6206,-4.6199,-4.6199,-4.6199,-4.6199,-4.6199,-4.6193,-4.6203,-4.6206,-4.625,-4.6284,-4.6303,-4.6296,-4.63,-4.63,-4.63,-4.63,-4.6339,-4.712,-4.702,-4.655,-4.9774,-5.1238,-5.1394,-5.1394,-5.1394,-5.1394,-5.1394,-5.1394,-5.1394,0.0,-4.765,-4.765,-4.765,-4.7666,-4.7659,-4.7631,-4.8257,-4.8731,-4.8769,-4.9322,-4.9735,-4.9735,-4.9704,-4.9692,-4.9735,-4.9132,-4.8793,-4.8831,-4.82,-4.7712,-4.754,-4.754,-4.7474,-4.7333,-4.7333,-4.6999,-4.6284,-4.6345,-4.6031,-4.5399,-4.5419,-4.5784,-4.6484,-4.6744,-4.7264,-4.7942,-4.8379,-4.8466,-4.8252,-4.7608,-4.7352,-4.7276,-4.6573,-4.63,-4.63,-4.63,-4.63,-4.63,-4.63,-4.63,-4.63,-4.63,-4.63,-4.63,-4.63,-4.63,-4.63,-4.63,-4.63,-4.63,-4.63,-4.63,0.0,-4.63,-4.63,-4.63,-4.63,-4.63,-4.63,-4.63,-4.63,-4.63,-4.63,-4.63,-4.63,-4.63,-4.63,-4.63,-4.63,-4.6292,-4.6282,-4.6211,-4.6215,-4.62,-4.6203,-4.6199,-4.6199,-4.6199,-4.6199,-4.6199,-4.6199,-4.6203,-4.619,-4.6203,-4.6203,-4.6255,-4.6303,-4.6296,-4.63,-4.63,-4.63,-4.63,-4.63,-4.6475,-4.6454,-4.6452,-4.8486,-5.0126,-5.1394,-5.1394,-5.1394,-5.1394,-5.1394,-5.1394,-5.1394,-4.8852,-4.8852,-4.8852,-4.8852,-4.8852,-4.8852,-4.8852,-4.9232,-4.9511,-4.9536,-4.991,-5.0158,-5.0158,-5.012,-5.012,-5.0158,-4.9777,-4.956,-4.9596,-4.922,-4.8823,-4.8411,-4.8426,-4.8239,-4.7807,-4.7788,-4.7578,-4.7139,-4.7171,-4.7002,-4.66,-4.6633,-4.6904,-4.7357,-4.7639,-4.8002,-4.8497,-4.9162,-4.9442,-4.9384,-4.8545,-4.7959,-4.7547,-4.712,-4.6671,-4.63,-4.63,-4.63,-4.63,-4.63,-4.63,-4.63,-4.63,-4.63,-4.63,-4.63,-4.63,-4.63,-4.63,-4.63,-4.63,-4.63,-4.63,0.0,0.0,-4.63,-4.63,-4.63,-4.63,-4.63,-4.63,-4.63,-4.63,-4.63,-4.63,-4.63,-4.63,-4.63,-4.63,-4.63,-4.6267,-4.6233,-4.6209,-4.6206,-4.6206,-4.6199,-4.6199,-4.6199,-4.6199,-4.6199,-4.6199,-4.6199,-4.6199,-4.6206,-4.6203,-4.6201,-4.6233,-4.6303,-4.6296,-4.63,-4.63,-4.63,-4.63,-4.63,-4.63,-4.63,-4.6376,-4.7215,-4.9072,-5.1396,-5.1394,-5.1394,-5.1394,-5.1394,-5.1394,-5.1394,-5.007,-5.007,-5.007,-5.007,-5.007,-5.007,-5.007,-5.007,-5.007,-5.0082,-5.0082,-5.0082,-5.0082,-5.007,-5.007,-5.0082,-5.0082,-5.0082,-5.0095,-5.0151,-4.9902,-4.9272,-4.9293,-4.9003,-4.8304,-4.8285,-4.8208,-4.8048,-4.8048,-4.796,-4.7788,-4.7862,-4.8001,-4.8208,-4.8477,-4.8729,-4.9027,-4.9926,-5.033,-5.028,-4.9579,-4.8818,-4.8055,-4.7899,-4.7295,-4.6534,-4.6358,-4.63,-4.63,-4.63,-4.63,-4.63,-4.63,-4.63,-4.63,-4.63,-4.63,-4.63,-4.63,-4.63,-4.63,-4.63,-4.63,-4.63,0.0,0.0,0.0,-4.63,-4.63,-4.63,-4.63,-4.63,-4.6241,-4.6085,-4.6183,-4.6241,-4.6066,-4.6183,-4.63,-4.63,-4.6243,-4.6206,-4.6206,-4.62,-4.6199,-4.6199,-4.6199,-4.6199,-4.6199,-4.6199,-4.6199,-4.6199,-4.6199,-4.6206,-4.6203,-4.6201,-4.6233,-4.6303,-4.6296,-4.63,-4.63,-4.63,-4.63,-4.63,-4.63,-4.63,-4.63,-4.6474,-4.8174,-5.0694,-5.0965,-5.1219,-5.1394,-5.1394,-5.1394,-5.1394,-4.9906,-4.9906,-4.9906,-4.9906,-4.9906,-4.9906,-4.9906,-4.9906,-4.9933,-5.0005,-5.0018,-5.0018,-5.0018,-4.9965,-4.9952,-5.0005,-5.0018,-5.0044,-5.0095,-5.0151,-5.0162,-5.0073,-5.0133,-5.013,-5.0015,-5.0015,-4.9671,-4.8945,-4.8945,-4.8563,-4.7788,-4.7818,-4.8231,-4.8971,-4.92,-4.9784,-5.0649,-5.0942,-5.1135,-5.1238,-5.1141,-5.0594,-4.9733,-4.8954,-4.8154,-4.7352,-4.6573,-4.63,-4.63,-4.63,-4.63,-4.63,-4.63,-4.63,-4.63,-4.63,-4.63,-4.63,-4.63,-4.63,-4.63,-4.63,-4.63,-4.63,-4.63,0.0,-4.63,-4.63,0.0,-4.63,-4.63,0.0,0.0,-4.5265,-4.5792,-4.6027,-4.5265,-4.5812,-4.63,-4.63,-4.6243,-4.6206,-4.6206,-4.62,-4.6199,-4.6199,-4.6199,-4.6199,-4.6199,-4.6199,-4.6199,-4.6199,-4.6199,-4.6206,-4.6203,-4.6201,-4.6233,-4.6303,-4.6296,-4.63,-4.63,-4.63,-4.63,-4.63,-4.63,-4.63,-4.6358,-4.7137,-4.7684,-4.8154,-4.9401,-5.0514,-5.1394,-5.1394,-5.1394,-5.1394,-5.0101,-4.9912,-4.9912,-4.9912,-4.9912,-4.9912,-4.9912,-4.9912,-4.9912,-4.9939,-4.9933,-4.9933,-4.9933,-4.9925,-4.9906,-4.9952,-4.9933,-4.9946,-4.9992,-5.0057,-5.0076,-5.0076,-5.0194,-5.0236,-5.0236,-5.0278,-5.013,-4.9805,-4.9805,-4.9614,-4.9251,-4.9251,-4.9473,-4.9873,-5.0029,-5.0422,-5.0972,-5.1099,-5.1239,-5.1394,-5.1394,-5.118,-5.077,-4.9891,-4.8738,-4.7547,-4.7198,-4.6729,-4.63,-4.63,-4.63,-4.63,-4.63,-4.63,-4.63,-4.63,-4.63,-4.63,-4.63,-4.63,-4.63,-4.63,-4.63,-4.63,-4.63,-4.63,-4.63,-4.63,0.0,0.0,0.0,0.0,0.0,0.0,-4.6066,-4.6163,-4.5812,-4.6066,-4.6298,-4.6292,-4.6284,-4.6233,-4.6195,-4.6193,-4.6199,-4.6199,-4.6199,-4.6199,-4.6199,-4.6199,-4.6199,-4.6199,-4.6199,-4.6193,-4.6198,-4.6203,-4.6238,-4.6294,-4.6298,-4.63,-4.63,-4.63,-4.63,-4.63,-4.63,-4.63,-4.6339,-4.669,-4.7139,-4.7664,-4.825,-4.905,-4.995,-5.0457,-5.0651,-5.0651,-5.0827,-5.058,-5.058,-5.058,-5.058,-5.058,-5.058,-5.058,-5.058,-5.058,-5.058,-5.058,-5.058,-5.0391,-5.0258,-5.0258,-5.0044,-4.9912,-4.9912,-4.9965,-5.0005,-5.0005,-5.0101,-5.0163,-5.0163,-5.0243,-5.0278,-5.0278,-5.029,-5.0302,-5.0302,-5.0302,-5.0325,-5.039,-5.0497,-5.0703,-5.0972,-5.1033,-5.1191,-5.1394,-5.1394,-5.1394,-5.1297,-5.0436,-4.9206,-4.7899,-4.7684,-4.7042,-4.63,-4.63,-4.63,-4.63,-4.63,-4.63,-4.63,-4.63,-4.63,-4.63,-4.63,-4.63,-4.63,-4.63,-4.63,-4.63,-4.63,-4.63,-4.63,-4.63,-4.63,0.0,0.0,0.0,-4.6222,-4.5987,0.0,-4.6222,-4.5987,-4.6144,-4.6298,-4.629,-4.6069,-4.5899,-4.5849,-4.5836,-4.5848,-4.5848,-4.6063,-4.6199,-4.6199,-4.6199,-4.6199,-4.6199,-4.6199,-4.6193,-4.6201,-4.6206,-4.6238,-4.6296,-4.63,-4.63,-4.63,-4.63,-4.63,-4.63,-4.63,-4.63,-4.63,-4.63,-4.6671,-4.7276,-4.7508,-4.7803,-4.8252,-4.9345,-4.9733,-4.9733,-5.2329,-5.231,-5.231,-5.231,-5.231,-5.231,-5.231,-5.231,-5.231,-5.231,-5.231,-5.231,-5.231,-5.1623,-5.1154,-5.1154,-5.0391,-4.9912,-4.9912,-4.9965,-5.0005,-5.0005,-5.007,-5.0108,-5.0108,-5.0182,-5.02,-5.02,-5.0267,-5.0302,-5.0302,-5.0302,-5.0302,-5.0302,-5.039,-5.0596,-5.0913,-5.0972,-5.1156,-5.1394,-5.1394,-5.1394,-5.1297,-5.0436,-4.9538,-4.8662,-4.7879,-4.7042,-4.63,-4.63,-4.63,-4.63,-4.63,-4.63,-4.63,-4.63,-4.63,-4.63,-4.63,-4.63,-4.63,-4.63,-4.63,-4.63,-4.63,-4.63,-4.63,-4.63,-4.63,-4.63,-4.63,-4.63,-4.6027,-4.5187,-4.5753,0.0,0.0,-4.5773,-4.63,-4.63,-4.5501,-4.493,-4.4936,-4.4933,-4.4933,-4.4933,-4.5712,-4.6199,-4.6199,-4.6199,-4.6199,-4.6199,-4.6199,-4.6206,-4.6206,-4.6201,-4.6233,-4.6306,-4.6296,-4.63,-4.63,-4.63,-4.63,-4.63,-4.63,-4.63,-4.63,-4.63,-4.6319,-4.6436,-4.7276,-4.71,-4.6573,-4.8232,-4.8837,-4.8837,-5.4048,-5.4048,-5.3707,-5.2594,-5.2385,-5.2385,-5.2385,-5.2385,-5.2385,-5.2385,-5.2385,-5.2385,-5.2385,-5.2158,-5.1793,-5.1249,-5.094,-5.0523,-4.995,-4.9925,-4.992,-4.992,-5.0005,-5.0044,-5.0044,-5.0139,-5.02,-5.02,-5.0267,-5.0302,-5.0302,-5.0302,-5.0302,-5.0302,-5.0314,-5.0519,-5.0833,-5.0913,-5.1108,-5.1403,-5.1392,-5.1394,-5.1375,-5.1063,-5.0067,-4.8759,-4.8486,-4.749,-4.63,-4.63,-4.63,-4.63,-4.63,-4.63,-4.63,-4.63,-4.63,-4.63,-4.63,-4.63,-4.63,-4.63,-4.63,-4.63,-4.63,-4.63,-4.63,-4.63,-4.63,-4.63,-4.63,-4.63,-4.6202,-4.5909,-4.6105,-4.6202,0.0,-4.5617,-4.5437,-4.5432,-4.5119,-4.4696,-4.4158,-4.4582,-4.4897,-4.4907,-4.5715,-4.6199,-4.6199,-4.6199,-4.6199,-4.6199,-4.6199,-4.6193,-4.6201,-4.6206,-4.6238,-4.6296,-4.6298,-4.63,-4.63,-4.63,-4.63,-4.63,-4.63,-4.63,-4.63,-4.63,-4.63,-4.6339,-4.6612,-4.6554,-4.6436,-4.7588,-4.8017,-4.8076,-5.4901,-5.4901,-5.456,-5.348,-5.329,-5.329,-5.329,-5.329,-5.329,-5.329,-5.329,-5.329,-5.329,-5.3044,-5.2646,-5.2134,-5.1798,-5.1395,-5.0827,-5.0523,-5.0353,-5.0353,-5.0123,-4.9946,-4.9946,-5.0108,-5.0151,-5.0151,-5.0255,-5.0302,-5.0302,-5.0302,-5.0302,-5.0302,-5.0302,-5.0499,-5.0792,-5.0874,-5.1098,-5.1399,-5.139,-5.1394,-5.1394,-5.1394,-5.0321,-4.8798,-4.8798,-4.7725,-4.63,-4.63,-4.63,-4.63,-4.63,-4.63,-4.63,-4.63,-4.63,-4.63,-4.63,-4.63,-4.63,-4.63,-4.63,-4.63,-4.63,-4.63,-4.63,-4.63,-4.63,-4.63,-4.63,-4.63,-4.63,-4.63,-4.63,-4.63,0.0,-4.5558,-4.4871,-4.4573,-4.4224,-4.3921,-4.3695,-4.3866,-4.426,-4.4868,-4.5423,-4.5868,-4.618,-4.6199,-4.6199,-4.6199,-4.6199,-4.6193,-4.6201,-4.6203,-4.6238,-4.6296,-4.6298,-4.63,-4.63,-4.63,-4.63,-4.63,-4.63,-4.63,-4.63,-4.63,-4.63,-4.63,-4.63,-4.63,-4.6378,-4.6924,-4.7139,-4.7217,-5.4901,-5.4901,-5.4901,-5.4901,-5.4901,-5.4901,-5.4901,-5.4901,-5.4901,-5.4901,-5.4901,-5.4901,-5.4901,-5.4219,-5.3745,-5.3707,-5.2949,-5.2442,-5.2385,-5.1665,-5.123,-5.1192,-5.041,-4.995,-4.9912,-5.0031,-5.0095,-5.0095,-5.0231,-5.0302,-5.0302,-5.0302,-5.0302,-5.0302,-5.0302,-5.0489,-5.0797,-5.0867,-5.1093,-5.1399,-5.139,-5.1394,-5.1394,-5.1394,-5.0321,-4.8798,-4.8798,-4.7725,-4.63,-4.63,-4.63,-4.63,-4.63,-4.63,-4.63,-4.63,-4.63,-4.63,-4.63,-4.63,-4.63,-4.63,-4.63,-4.63,-4.63,-4.63,-4.63,-4.63,-4.63,-4.63,-4.63,-4.63,-4.63,-4.63,-4.63,-4.628,-4.6241,-4.55,-4.4602,-4.3743,-4.2877,-4.2648,-4.3401,-4.2811,-4.3058,-4.4663,-4.4816,-4.5225,-4.6082,-4.6141,-4.616,-4.6199,-4.6199,-4.6206,-4.6203,-4.6201,-4.6233,-4.6303,-4.6296,-4.63,-4.63,-4.63,-4.63,-4.63,-4.63,-4.63,-4.63,-4.63,-4.63,-4.63,-4.63,-4.63,-4.63,-4.63,-4.63,-4.63,-5.4901,-5.4901,-5.4901,-5.4901,-5.4901,-5.4901,-5.4901,-5.4901,-5.4901,-5.4901,-5.4901,-5.4901,-5.4901,-5.4731,-5.4352,-5.3745,-5.3499,-5.3101,-5.2442,-5.2196,-5.1817,-5.123,-5.0997,-5.0561,-4.9912,-4.9992,-5.0057,-5.0095,-5.0175,-5.0255,-5.0302,-5.0302,-5.0302,-5.0302,-5.0302,-5.0442,-5.0661,-5.0778,-5.1058,-5.1399,-5.139,-5.1394,-5.1394,-5.1394,-5.0321,-4.8798,-4.8798,-4.7725,-4.63,-4.63,-4.63,-4.63,-4.63,-4.63,-4.63,-4.63,-4.63,-4.63,-4.63,-4.63,-4.63,-4.63,-4.63,-4.63,-4.63,-4.63,-4.63,-4.63,-4.63,-4.63,-4.63,-4.63,-4.63,-4.63,-4.63,-4.6066,-4.5421,-4.4582,-4.3704,-4.2845,-4.1958,-4.1505,-4.1722,-4.2147,-4.2579,-4.3017,-4.359,-4.4319,-4.5186,-4.5235,-4.5527,-4.618,-4.6199,-4.6206,-4.6203,-4.6201,-4.6233,-4.6303,-4.6296,-4.63,-4.63,-4.63,-4.63,-4.63,-4.63,-4.63,-4.63,-4.63,-4.63,-4.63,-4.63,-4.63,-4.63,-4.63,-4.63,-4.63,-5.4871,-5.4901,-5.4901,-5.4901,-5.4901,-5.4901,-5.4901,-5.4901,-5.4901,-5.4901,-5.4901,-5.4901,-5.4901,-5.4901,-5.4731,-5.4257,-5.4219,-5.4029,-5.3518,-5.3158,-5.2779,-5.2324,-5.1604,-5.0978,-5.0486,-5.0155,-5.0018,-5.0057,-5.0139,-5.0212,-5.0267,-5.029,-5.0302,-5.0302,-5.0302,-5.0418,-5.0606,-5.0747,-5.1023,-5.1386,-5.1307,-5.1316,0.0,-5.1406,-5.0313,-4.879,-4.8796,-4.7725,-4.63,-4.63,-4.63,-4.63,-4.63,-4.63,-4.63,-4.63,-4.63,-4.63,-4.63,-4.63,-4.63,-4.63,-4.63,-4.63,-4.63,-4.63,-4.63,-4.63,-4.63,-4.63,-4.63,-4.63,-4.63,-4.63,-4.63,-4.6007,-4.5129,-4.425,-4.3372,-4.2494,-4.163,-4.1103,-4.1108,-4.1488,-4.2088,-4.2907,-4.2942,-4.3353,-4.4277,-4.4689,-4.5115,-4.5615,-4.5992,-4.6193,-4.6203,-4.6226,-4.6258,-4.6303,-4.6296,-4.63,-4.63,-4.63,-4.63,-4.63,-4.63,-4.63,-4.63,-4.63,-4.63,-4.63,-4.63,-4.63,-4.63,-4.63,-4.63,-4.63,-5.4822,-5.4901,-5.4901,-5.4901,-5.4901,-5.4901,-5.4901,-5.4886,-5.4871,-5.4871,-5.4856,-5.4841,-5.4871,-5.4871,-5.4871,-5.4901,-5.4901,-5.4901,-5.4901,-5.4257,-5.3821,-5.3707,-5.2305,-5.1433,-5.1192,-5.0502,-5.0119,-5.0018,-5.0126,-5.0207,-5.0212,-5.0278,-5.0302,-5.0302,-5.0302,-5.0418,-5.0606,-5.0723,-5.1002,-5.1353,-5.1165,-5.121,-5.14,-5.1394,-5.0323,-4.8803,-4.8794,-4.7725,-4.63,-4.63,-4.63,-4.63,-4.63,-4.63,-4.63,-4.63,-4.63,-4.63,-4.63,-4.63,-4.63,-4.63,-4.63,-4.63,-4.63,-4.63,-4.63,-4.63,-4.63,-4.63,-4.63,-4.63,-4.63,-4.63,-4.6202,-4.587,-4.5107,-4.4153,-4.3255,-4.2494,-4.1635,0.0,-4.1109,-4.0983,-4.1594,-4.3239,-4.2505,-4.2397,-4.3361,-4.4134,-4.4656,-4.4887,-4.5621,-4.6083,-4.6209,-4.6272,-4.6303,-4.6303,-4.6296,-4.63,-4.63,-4.63,-4.63,-4.63,-4.63,-4.63,-4.63,-4.63,-4.63,-4.63,-4.63,-4.63,-4.63,-4.63,-4.63,-4.63,-5.4822,-5.4901,-5.4901,-5.4901,-5.4901,-5.4901,-5.4901,-5.4757,-5.4645,-5.4645,-5.4554,-5.4522,-5.4629,-5.4645,-5.4726,-5.4886,-5.4901,-5.4901,-5.4901,-5.4769,-5.4389,-5.3726,-5.3423,-5.2608,-5.123,-5.1054,-5.0686,-5.0082,-5.0108,-5.0182,-5.029,-5.029,-5.0302,-5.0302,-5.0302,-5.0418,-5.0596,-5.0633,-5.0843,-5.1147,-5.1108,-5.1219,-5.1394,-5.1396,-5.031,-4.8796,-4.8798,-4.7725,-4.63,-4.63,-4.63,-4.63,-4.63,-4.63,-4.63,-4.63,-4.63,-4.63,-4.63,-4.63,-4.63,-4.63,-4.63,-4.63,-4.63,-4.63,-4.63,-4.63,-4.63,-4.63,-4.63,-4.63,-4.63,-4.63,-4.5695,-4.5168,-4.501,-4.3626,-4.2572,-4.2415,-4.1628,-4.1099,-4.1108,-4.107,-4.1198,-4.1538,-4.1371,-4.1616,-4.2397,-4.2583,-4.3323,-4.4772,-4.497,-4.5409,-4.6184,-4.6277,-4.6303,-4.6303,-4.6296,-4.63,-4.63,-4.63,-4.63,-4.63,-4.63,-4.63,-4.63,-4.63,-4.63,-4.63,-4.63,-4.63,-4.63,-4.63,-4.63,-4.63,-5.4549,-5.4761,-5.4822,-5.4632,-5.4581,-5.4482,-5.4226,-5.4243,-5.4416,-5.4711,-5.4698,-5.4683,-5.4761,-5.4776,-5.4791,-5.4886,-5.4901,-5.4901,-5.4901,-5.4901,-5.4731,-5.4352,-5.3916,-5.3328,-5.2513,-5.1628,-5.1025,-5.0675,-5.0298,-5.0133,-5.0194,-5.0267,-5.0302,-5.0302,-5.0302,-5.0418,-5.0587,-5.0497,-5.0641,-5.0933,-5.0946,-5.1061,-5.1249,-5.132,-5.0291,-4.8801,-4.8806,-4.7719,-4.63,-4.63,-4.63,-4.63,-4.63,-4.63,-4.63,-4.63,-4.63,-4.63,-4.63,-4.63,-4.63,-4.63,-4.63,-4.63,-4.63,-4.63,-4.63,-4.63,-4.63,-4.63,-4.63,-4.63,-4.63,-4.63,-4.5948,-4.5519,-4.5068,-4.386,-4.2851,-4.2403,-4.1512,-4.0974,-4.1033,-4.0983,-4.0971,-4.1042,-4.1011,-4.1149,-4.1455,-4.1941,-4.2563,-4.3365,-4.4229,-4.4914,-4.5373,-4.5854,-4.6096,-4.6084,-4.6087,-4.6095,-4.6098,-4.6153,-4.6206,-4.6206,-4.6273,-4.63,-4.63,-4.63,-4.63,-4.63,-4.63,-4.63,-4.63,-4.63,-4.63,-4.63,-5.4176,-5.45,-5.4648,-5.4245,-5.4176,-5.4033,-5.3607,-5.3777,-5.4104,-5.4597,-5.4745,-5.481,-5.4822,-5.4992,-5.5064,-5.492,-5.5072,-5.511,-5.492,-5.4901,-5.4901,-5.4901,-5.4295,-5.3878,-5.3707,-5.2229,-5.1376,-5.122,-5.0449,-5.0,-4.9873,-5.0155,-5.029,-5.0302,-5.0302,-5.0385,-5.0526,-5.0363,-5.0486,-5.0761,-5.0782,-5.0912,-5.1089,-5.1059,-5.0111,-4.8781,-4.8596,-4.7552,-4.6275,-4.6275,-4.6296,-4.63,-4.63,-4.63,-4.63,-4.63,-4.63,-4.63,-4.63,-4.63,-4.63,-4.63,-4.63,-4.63,-4.63,-4.63,-4.63,-4.63,-4.63,-4.63,-4.63,-4.63,-4.63,-4.63,-4.6144,-4.5851,-4.5343,-4.4153,-4.314,-4.2633,-4.1532,-4.0837,-4.0944,-4.0855,-4.0833,-4.0922,-4.089,-4.0852,-4.0775,-4.1485,-4.1942,-4.21,-4.353,-4.4414,-4.463,-4.5486,-4.5889,-4.5906,-4.5889,-4.5899,-4.5905,-4.6045,-4.6072,-4.6061,-4.6206,-4.6269,-4.6269,-4.6296,-4.63,-4.63,-4.63,-4.63,-4.63,-4.63,-4.63,-4.63,-5.3758,-5.4069,-5.4228,-5.3833,-5.3758,-5.3739,-5.3683,-5.3702,-5.3777,-5.3888,-5.4231,-5.4489,-5.4613,-5.533,-5.5564,-5.4943,-5.5621,-5.5735,-5.4958,-5.4901,-5.4901,-5.4901,-5.4825,-5.4446,-5.3726,-5.2779,-5.1954,-5.1283,-5.0423,-4.9689,-4.9127,-4.9863,-5.0236,-5.0302,-5.0302,-5.0314,-5.0337,-5.0314,-5.0421,-5.0635,-5.0753,-5.0926,-5.1044,-5.0439,-4.9624,-4.87,-4.7903,-4.7008,-4.6211,-4.6211,-4.6245,-4.63,-4.63,-4.63,-4.63,-4.63,-4.63,-4.63,-4.63,-4.63,-4.63,-4.63,-4.63,-4.63,-4.63,-4.63,-4.63,-4.63,-4.63,-4.63,-4.63,-4.63,-4.63,-4.63,-4.5636,-4.5363,-4.6085,-4.4019,-4.2672,-4.3393,-4.1883,-4.0795,-4.0824,-4.0815,-4.0776,-4.0723,-4.0786,-4.0771,-4.0718,-4.0796,-4.1222,-4.2073,-4.2908,-4.3807,-4.4771,-4.5536,-4.5899,-4.5899,-4.5899,-4.5899,-4.5905,-4.6045,-4.6021,-4.5925,-4.6057,-4.6128,-4.6135,-4.6245,-4.63,-4.63,-4.63,-4.63,-4.63,-4.63,-4.63,-4.63,-5.3226,-5.3606,-5.3796,-5.3408,-5.3267,-5.3122,-5.2799,-5.2935,-5.3067,-5.3025,-5.3587,-5.407,-5.4294,-5.5114,-5.5661,-5.5667,-5.6,-5.6057,-5.5697,-5.5185,-5.4901,-5.4901,-5.4901,-5.475,-5.4427,-5.3101,-5.2262,-5.1968,-5.0643,-4.986,-4.9607,-4.998,-5.0182,-5.0243,-5.0243,-5.0267,-5.0302,-5.0302,-5.0359,-5.0451,-5.0615,-5.0769,-5.0849,-5.0173,-4.9445,-4.8688,-4.7811,-4.6939,-4.6206,-4.6206,-4.6214,-4.6243,-4.629,-4.6292,-4.6292,-4.6298,-4.63,-4.63,-4.63,-4.63,-4.63,-4.63,-4.63,-4.63,-4.63,-4.63,-4.63,-4.63,-4.63,-4.63,-4.63,-4.63,-4.63,-4.63,-4.6007,-4.5863,-4.6145,-4.4779,-4.365,-4.3393,-4.2208,-4.1223,-4.0784,-4.0661,-4.0649,-4.0694,-4.077,-4.0735,-4.0581,-4.0655,-4.0842,-4.1132,-4.2435,-4.3344,-4.377,-4.507,-4.5718,-4.5718,-4.5718,-4.5718,-4.5725,-4.5866,-4.5917,-4.591,-4.6045,-4.6098,-4.6105,-4.6245,-4.63,-4.63,-4.63,-4.63,-4.63,-4.63,-4.63,-4.6284,-5.303,-5.3246,-5.3289,-5.2882,-5.2729,-5.2545,-5.2204,-5.2402,-5.2531,-5.2417,-5.2953,-5.3582,-5.4205,-5.5207,-5.5866,-5.598,-5.6336,-5.6341,-5.5849,-5.5242,-5.4901,-5.4901,-5.4901,-5.4901,-5.4901,-5.3518,-5.2665,-5.2385,-5.102,-5.0111,-4.9644,-4.9753,-4.9929,-5.02,-5.0212,-5.0267,-5.0302,-5.0302,-5.0302,-5.0325,-5.0526,-5.067,-5.0697,-4.9769,-4.9163,-4.8652,-4.7522,-4.6709,-4.6195,-4.6195,-4.6195,-4.6217,-4.6255,-4.6282,-4.6306,-4.6294,-4.6298,-4.63,-4.63,-4.63,-4.63,-4.63,-4.63,-4.63,-4.63,-4.63,-4.63,-4.63,-4.63,-4.63,-4.63,-4.63,-4.63,-4.63,-4.63,-4.6247,-4.6109,-4.5291,-4.4333,-4.3312,-4.2367,-4.149,-4.0725,-4.0564,-4.0542,-4.0629,-4.0686,-4.0655,-4.0512,-4.0581,-4.0628,-4.0564,-4.2205,-4.311,-4.3138,-4.4765,-4.5594,-4.5594,-4.5594,-4.5594,-4.5594,-4.57,-4.5782,-4.5875,-4.5987,-4.6045,-4.6053,-4.6238,-4.63,-4.63,-4.63,-4.63,-4.63,-4.63,-4.63,-4.6285,-5.3375,-5.2979,-5.2581,-5.2186,-5.2108,-5.215,-5.2287,-5.2311,-5.2264,-5.2126,-5.234,-5.3075,-5.4521,-5.5828,-5.6309,-5.5574,-5.6663,-5.6683,-5.5015,-5.492,-5.4901,-5.4901,-5.4901,-5.4901,-5.4901,-5.4105,-5.3271,-5.2385,-5.1585,-5.0361,-4.8821,-4.8964,-4.9444,-5.02,-5.0278,-5.0302,-5.0302,-5.0302,-5.0302,-5.0325,-5.0526,-5.067,-5.0639,-4.9103,-4.8623,-4.8573,-4.6842,-4.6219,-4.6199,-4.6199,-4.6199,-4.6206,-4.6198,-4.6255,-4.6303,-4.6306,-4.6292,-4.63,-4.63,-4.63,-4.63,-4.63,-4.63,-4.63,-4.63,-4.63,-4.63,-4.63,-4.63,-4.63,-4.63,-4.63,-4.63,-4.63,-4.63,-4.6247,-4.6109,-4.5291,-4.4333,-4.3312,-4.2367,-4.147,-4.0593,-4.0496,-4.0496,-4.0496,-4.0496,-4.0496,-4.0496,-4.0496,-4.0571,-4.0687,-4.2267,-4.3119,-4.3207,-4.4804,-4.5594,-4.5594,-4.5594,-4.5594,-4.5594,-4.5594,-4.5676,-4.5794,-4.5875,-4.5905,-4.592,-4.6184,-4.63,-4.63,-4.63,-4.63,-4.63,-4.63,-4.63,-4.6285,-5.3936,-5.3488,-5.3069,-5.2935,-5.2388,-5.198,-5.2005,-5.1956,-5.1882,-5.184,-5.1889,-5.242,-5.3611,-5.5012,-5.5884,-5.592,-5.6533,-5.6461,-5.5386,-5.5063,-5.4901,-5.4901,-5.4901,-5.4901,-5.4901,-5.4105,-5.3271,-5.2385,-5.159,-5.0632,-4.954,-4.9651,-4.9848,-5.0133,-5.0188,-5.0267,-5.0302,-5.0302,-5.0302,-5.0302,-5.0363,-5.0151,-4.9658,-4.8713,-4.8095,-4.7578,-4.6567,-4.6199,-4.6199,-4.6199,-4.6199,-4.6199,-4.6193,-4.6206,-4.622,-4.6231,-4.6262,-4.629,-4.629,-4.6296,-4.63,-4.63,-4.63,-4.63,-4.63,-4.63,-4.63,-4.63,-4.63,-4.63,-4.63,-4.63,-4.63,-4.63,-4.63,-4.6216,-4.5996,-4.5711,-4.5134,-4.4072,-4.3695,-4.2951,-4.1527,-4.1393,-4.1143,-4.0535,-4.0496,-4.0496,-4.0496,-4.0496,-4.0789,-4.1424,-4.2513,-4.3379,-4.3948,-4.5062,-4.5594,-4.5594,-4.5594,-4.5594,-4.5594,-4.5594,-4.562,-4.5676,-4.5834,-4.5899,-4.592,-4.6184,-4.63,-4.63,-4.63,-4.63,-4.63,-4.63,-4.63,-4.6285,-5.4587,-5.4013,-5.357,-5.357,-5.2849,-5.2305,-5.2404,-5.2054,-5.179,-5.184,-5.184,-5.2218,-5.3199,-5.4174,-5.4913,-5.5369,-5.5788,-5.5696,-5.4891,-5.4595,-5.4533,-5.4664,-5.468,-5.4761,-5.4901,-5.4408,-5.3594,-5.2385,-5.1282,-5.0429,-4.9893,-4.9978,-5.0031,-5.007,-5.0151,-5.0212,-5.0248,-5.029,-5.0302,-5.0302,-5.0302,-4.9912,-4.924,-4.8557,-4.783,-4.7105,-4.6442,-4.6199,-4.6199,-4.6199,-4.6199,-4.6199,-4.6199,-4.6206,-4.62,-4.6195,-4.6228,-4.6258,-4.6258,-4.6286,-4.6294,-4.6294,-4.6298,-4.63,-4.63,-4.63,-4.63,-4.63,-4.63,-4.63,-4.63,-4.63,-4.63,-4.63,-4.6269,-4.6144,-4.5925,-4.5886,-4.5467,-4.4408,-4.4297,-4.3778,-4.2431,-4.2297,-4.2066,-4.1516,-4.1477,-4.1477,-4.1477,-4.1162,-4.1239,-4.1769,-4.2951,-4.3797,-4.4297,-4.5171,-4.5594,-4.5594,-4.5594,-4.5594,-4.5594,-4.5594,-4.5594,-4.5612,-4.5815,-4.5899,-4.592,-4.6184,-4.63,-4.63,-4.63,-4.63,-4.63,-4.63,-4.63,-4.6285,-5.5294,-5.4652,-5.4099,-5.4099,-5.35,-5.3067,-5.3264,-5.2537,-5.1985,-5.2054,-5.206,-5.2347,-5.3127,-5.3321,-5.3614,-5.4126,-5.4591,-5.4517,-5.37,-5.3683,-5.387,-5.4245,-5.4298,-5.4484,-5.4856,-5.4886,-5.4086,-5.2385,-5.0713,-4.9912,-4.9893,-4.9978,-5.0005,-5.0018,-5.0145,-5.0207,-5.02,-5.0267,-5.0302,-5.0302,-5.0302,-4.9863,-4.9125,-4.8522,-4.7797,-4.7017,-4.6415,-4.6192,-4.6199,-4.6199,-4.6199,-4.6199,-4.6199,-4.6199,-4.6203,-4.62,-4.6195,-4.6206,-4.6206,-4.6255,-4.6303,-4.6303,-4.6292,-4.63,-4.63,-4.63,-4.63,-4.63,-4.63,-4.63,-4.63,-4.63,-4.63,-4.6296,-4.6178,-4.6049,-4.5905,-4.5848,-4.546,-4.4496,-4.4393,-4.4066,-4.3258,-4.3181,-4.3162,-4.3104,-4.3104,-4.3104,-4.3104,-4.2374,-4.1962,-4.1962,-4.3489,-4.4335,-4.4393,-4.519,-4.5594,-4.5594,-4.5594,-4.5594,-4.5586,-4.5586,-4.5586,-4.5612,-4.5809,-4.5899,-4.592,-4.6181,-4.63,-4.63,-4.63,-4.63,-4.63,-4.63,-4.63,-4.6285,-5.6115,-5.5553,-5.5079,-5.5079,-5.4556,-5.3889,-5.3236,-5.296,-5.257,-5.1862,-5.179,-5.1904,-5.22,-5.2347,-5.2516,-5.2752,-5.3807,-5.411,-5.3281,-5.3547,-5.3739,-5.3851,-5.4141,-5.4349,-5.4432,-5.4726,-5.4086,-5.2385,-5.0713,-4.9912,-4.9893,-4.9978,-5.0005,-4.9986,-5.0095,-5.0158,-5.02,-5.0231,-5.0255,-5.0302,-5.0302,-4.9438,-4.8146,-4.8097,-4.7229,-4.6048,-4.606,-4.6106,-4.6199,-4.6199,-4.6199,-4.6199,-4.6199,-4.6199,-4.6199,-4.6203,-4.6196,-4.6189,-4.6189,-4.6248,-4.6303,-4.6303,-4.6292,-4.63,-4.63,-4.63,-4.63,-4.63,-4.63,-4.63,-4.63,-4.63,-4.6271,-4.6153,-4.6112,-4.6048,-4.5854,-4.5808,-4.5672,-4.5323,-4.5287,-4.496,-4.4105,-4.4028,-4.3758,-4.3143,-4.3104,-4.3104,-4.3104,-4.3489,-4.3701,-4.3701,-4.4085,-4.4624,-4.5287,-4.5498,-4.5594,-4.5594,-4.5594,-4.5577,-4.5522,-4.5522,-4.5522,-4.554,-4.5743,-4.5842,-4.5915,-4.6189,-4.6294,-4.63,-4.63,-4.63,-4.63,-4.63,-4.63,-4.6302,-5.6492,-5.6241,-5.6043,-5.6043,-5.5448,-5.4727,-5.3918,-5.3455,-5.2902,-5.207,-5.1914,-5.1914,-5.2071,-5.2168,-5.2264,-5.2382,-5.3067,-5.3284,-5.285,-5.3033,-5.3244,-5.3428,-5.3644,-5.3833,-5.4015,-5.4416,-5.3898,-5.2385,-5.0713,-4.9912,-4.9912,-4.9939,-4.9946,-4.9965,-5.0031,-5.0063,-5.0101,-5.0163,-5.0212,-5.0267,-5.029,-4.9308,-4.7821,-4.7952,-4.7005,-4.565,-4.5916,-4.6056,-4.613,-4.6185,-4.6199,-4.6199,-4.6199,-4.6199,-4.6199,-4.6199,-4.6206,-4.6193,-4.6193,-4.6231,-4.625,-4.6282,-4.6292,-4.63,-4.63,-4.63,-4.63,-4.63,-4.63,-4.6275,-4.6216,-4.6211,-4.6153,-4.6037,-4.5988,-4.5911,-4.5827,-4.5742,-4.5684,-4.5603,-4.5594,-4.5421,-4.494,-4.4893,-4.4701,-4.4278,-4.4239,-4.4239,-4.4239,-4.4662,-4.4701,-4.4316,-4.4682,-4.5133,-4.5594,-4.5594,-4.5594,-4.5594,-4.5594,-4.5568,-4.5504,-4.5504,-4.5485,-4.5466,-4.5696,-4.5813,-4.5878,-4.6131,-4.6264,-4.6294,-4.6294,-4.6296,-4.63,-4.63,-4.63,-4.63,-5.6635,-5.6742,-5.6821,-5.6821,-5.6289,-5.562,-5.4903,-5.4053,-5.3272,-5.2534,-5.2246,-5.215,-5.2264,-5.2287,-5.2335,-5.2452,-5.2498,-5.2498,-5.2498,-5.2498,-5.2645,-5.299,-5.3075,-5.3265,-5.3587,-5.3808,-5.3427,-5.2385,-5.0713,-4.9912,-4.9912,-4.9912,-4.9912,-4.9893,-4.9965,-4.9992,-5.0018,-5.0114,-5.0175,-5.02,-5.0267,-4.9373,-4.7982,-4.797,-4.703,-4.5725,-4.5867,-4.595,-4.6012,-4.6138,-4.6189,-4.6199,-4.6199,-4.6199,-4.6199,-4.6199,-4.6199,-4.6199,-4.6199,-4.619,-4.6212,-4.6279,-4.6292,-4.6298,-4.63,-4.63,-4.63,-4.63,-4.63,-4.6269,-4.6112,-4.6098,-4.6049,-4.5919,-4.5848,-4.58,-4.5771,-4.5668,-4.5594,-4.5594,-4.5594,-4.5594,-4.5594,-4.5594,-4.5594,-4.5594,-4.5594,-4.5594,-4.5594,-4.5594,-4.5267,-4.4509,-4.521,-4.5594,-4.5594,-4.5594,-4.5594,-4.5594,-4.5594,-4.5559,-4.5485,-4.5485,-4.5438,-4.5419,-4.5675,-4.5783,-4.5813,-4.6091,-4.6231,-4.6282,-4.6282,-4.6288,-4.6277,-4.6277,-4.6296,-4.6298,-5.6662,-5.6873,-5.6977,-5.6977,-5.6971,-5.6653,-5.5837,-5.5018,-5.4157,-5.3266,-5.254,-5.2126,-5.2126,-5.224,-5.2311,-5.2335,-5.2428,-5.2498,-5.2498,-5.2498,-5.2544,-5.2595,-5.2922,-5.3138,-5.3182,-5.2527,-5.2259,-5.2385,-5.0713,-4.9912,-4.9912,-4.9912,-4.9912,-4.9912,-4.9912,-4.9952,-5.0005,-5.0031,-5.0108,-5.02,-5.02,-4.9682,-4.8823,-4.81,-4.7326,-4.6509,-4.5828,-4.5756,-4.6002,-4.6022,-4.6102,-4.6199,-4.6199,-4.6199,-4.6199,-4.6199,-4.6199,-4.6199,-4.6199,-4.619,-4.6212,-4.6279,-4.6306,-4.631,-4.6298,-4.63,-4.63,-4.63,-4.63,-4.6269,-4.6112,-4.6098,-4.6033,-4.5841,-4.5801,-4.5757,-4.5654,-4.5612,-4.5594,-4.5594,-4.5594,-4.5594,-4.5594,-4.5594,-4.5594,-4.5594,-4.5594,-4.5594,-4.5594,-4.5594,-4.5537,-4.5402,-4.5537,-4.5594,-4.5594,-4.5594,-4.5594,-4.5594,-4.5594,-4.555,-4.5419,-4.5419,-4.541,-4.5419,-4.5619,-4.5757,-4.5826,-4.6096,-4.6217,-4.6211,-4.6211,-4.6211,-4.6214,-4.6214,-4.626,-4.6286,-5.5848,-5.5981,-5.6193,-5.6555,-5.6679,-5.6541,-5.6013,-5.5304,-5.4502,-5.3634,-5.2822,-5.2317,-5.2317,-5.2382,-5.2405,-5.2405,-5.2475,-5.2498,-5.2498,-5.2498,-5.2498,-5.2498,-5.269,-5.2897,-5.3096,-5.2029,-5.1668,-5.2076,-5.061,-4.9912,-4.9912,-4.9912,-4.9912,-4.9912,-4.9912,-4.9925,-4.9952,-4.9973,-5.0044,-5.0108,-5.0163,-4.9735,-4.9014,-4.8648,-4.7731,-4.6608,-4.631,-4.6004,-4.5756,-4.5939,-4.6032,-4.6098,-4.6185,-4.6199,-4.6199,-4.6199,-4.6199,-4.6199,-4.6199,-4.619,-4.6209,-4.6242,-4.6275,-4.6306,-4.6292,-4.6296,-4.6275,-4.6211,-4.6184,-4.6135,-4.5978,-4.5947,-4.5871,-4.5719,-4.57,-4.5668,-4.5603,-4.5594,-4.5594,-4.5594,-4.5594,-4.5594,-4.5594,-4.5594,-4.5594,-4.5594,-4.5594,-4.5594,-4.5594,-4.5594,-4.5594,-4.5594,-4.5594,-4.5594,-4.5594,-4.5594,-4.5594,-4.5594,-4.5594,-4.5522,-4.54,-4.54,-4.538,-4.5369,-4.5595,-4.5724,-4.5777,-4.6072,-4.62,-4.6195,-4.6195,-4.6201,-4.6206,-4.6206,-4.6211,-4.6236,-5.5189,-5.5261,-5.5496,-5.5989,-5.609,-5.6043,-5.5887,-5.5058,-5.4298,-5.3802,-5.2888,-5.2345,-5.2498,-5.2498,-5.2498,-5.2498,-5.2498,-5.2498,-5.2498,-5.2498,-5.2498,-5.2498,-5.2498,-5.269,-5.3096,-5.1743,-5.1249,-5.1668,-5.0398,-4.9783,-4.9783,-4.9852,-4.9912,-4.9912,-4.9912,-4.9912,-4.9893,-4.9946,-4.9992,-5.0018,-5.0101,-4.9801,-4.9253,-4.914,-4.8266,-4.7076,-4.6819,-4.6337,-4.5869,-4.5912,-4.5977,-4.6051,-4.6177,-4.6199,-4.6199,-4.6199,-4.6199,-4.6199,-4.6199,-4.6209,-4.62,-4.6203,-4.6242,-4.6277,-4.6303,-4.6284,-4.6214,-4.6112,-4.6087,-4.6002,-4.5835,-4.5807,-4.5757,-4.562,-4.5594,-4.5594,-4.5594,-4.5594,-4.5594,-4.5594,-4.5594,-4.5594,-4.5594,-4.5594,-4.5594,-4.5594,-4.5594,-4.5594,-4.5594,-4.5594,-4.5594,-4.5594,-4.5594,-4.5594,-4.5594,-4.5594,-4.5594,-4.5594,-4.5594,-4.5522,-4.54,-4.54,-4.537,-4.5309,-4.5587,-4.5703,-4.5731,-4.6069,-4.6206,-4.62,-4.62,-4.6206,-4.6198,-4.6198,-4.6201,-4.6201,-5.5266,-5.5385,-5.5414,-5.5443,-5.549,-5.5455,-5.5461,-5.4112,-5.3321,-5.3814,-5.2598,-5.1884,-5.2434,-5.2498,-5.2498,-5.2498,-5.2498,-5.2498,-5.2498,-5.2498,-5.2498,-5.2498,-5.2498,-5.269,-5.3096,-5.1501,-5.0855,-5.123,-5.0041,-4.9446,-4.9427,-4.9755,-4.9912,-4.9912,-4.9912,-4.9912,-4.9912,-4.9912,-4.9933,-5.0005,-5.0018,-5.0038,-5.0016,-4.9291,-4.8976,-4.8708,-4.7095,-4.6675,-4.6764,-4.5981,-4.5922,-4.6192,-4.6196,-4.6199,-4.6199,-4.6199,-4.6199,-4.6199,-4.6199,-4.6199,-4.6203,-4.62,-4.6206,-4.6215,-4.6299,-4.6206,-4.6103,-4.6098,-4.6,-4.5897,-4.5815,-4.5807,-4.5757,-4.562,-4.5594,-4.5594,-4.5594,-4.5594,-4.5594,-4.5594,-4.5594,-4.5594,-4.5594,-4.5594,-4.5594,-4.5594,-4.5594,-4.5594,-4.5594,-4.5594,-4.5594,-4.5594,-4.5594,-4.5594,-4.5594,-4.5594,-4.5594,-4.5594,-4.5594,-4.5522,-4.54,-4.54,-4.537,-4.5309,-4.5587,-4.5703,-4.5731,-4.6069,-4.6199,-4.6199,-4.6199,-4.6199,-4.6203,-4.6203,-4.6193,-4.6203,-5.4173,-5.4205,-5.4316,-5.4703,-5.4765,-5.4918,-5.5325,-5.4033,-5.3071,-5.3311,-5.2332,-5.1694,-5.1927,-5.2275,-5.2498,-5.2498,-5.2498,-5.2498,-5.2498,-5.2498,-5.2498,-5.2498,-5.2498,-5.2572,-5.2717,-5.1334,-5.0679,-5.0836,-4.9615,-4.9155,-4.9415,-4.9537,-4.9698,-4.9912,-4.9912,-4.9912,-4.9912,-4.9912,-4.9906,-4.9933,-4.9992,-5.0044,-5.0057,-4.9778,-4.942,-4.8945,-4.8285,-4.7454,-4.6675,-4.6557,-4.6235,-4.5928,-4.6127,-4.6199,-4.6199,-4.6199,-4.6199,-4.6199,-4.6199,-4.6199,-4.6199,-4.6206,-4.6196,-4.6177,-4.6126,-4.6115,-4.6044,-4.5881,-4.5847,-4.5802,-4.5708,-4.5676,-4.5651,-4.5603,-4.5594,-4.5594,-4.5594,-4.5594,-4.5594,-4.5594,-4.5594,-4.5594,-4.5594,-4.5594,-4.5594,-4.5594,-4.5594,-4.5594,-4.5594,-4.5594,-4.5594,-4.5594,-4.5594,-4.5594,-4.5594,-4.5594,-4.5594,-4.5594,-4.5594,-4.5522,-4.54,-4.54,-4.537,-4.5309,-4.5587,-4.5703,-4.5731,-4.6069,-4.6199,-4.6199,-4.6199,-4.6199,-4.6199,-4.6199,-4.6203,-4.6206,-5.3501,-5.3501,-5.3651,-5.4059,-5.4124,-5.4267,-5.4738,-5.3641,-5.2763,-5.2707,-5.1964,-5.1458,-5.1586,-5.1975,-5.2298,-5.2498,-5.2498,-5.2498,-5.2498,-5.2498,-5.2498,-5.2498,-5.2498,-5.2498,-5.2498,-5.1158,-5.043,-5.043,-4.9232,-4.8782,-4.9057,-4.9286,-4.9518,-4.9755,-4.9852,-4.9912,-4.9912,-4.9912,-4.9912,-4.9893,-4.9952,-4.9992,-5.0005,-5.0057,-4.9765,-4.9313,-4.9065,-4.827,-4.7343,-4.7311,-4.6932,-4.6505,-4.6454,-4.6312,-4.6146,-4.6192,-4.6199,-4.6199,-4.6199,-4.6199,-4.6199,-4.6199,-4.6169,-4.6111,-4.6017,-4.5983,-4.5925,-4.5747,-4.5723,-4.5715,-4.562,-4.5594,-4.5594,-4.5594,-4.5594,-4.5594,-4.5594,-4.5594,-4.5594,-4.5594,-4.5594,-4.5594,-4.5594,-4.5594,-4.5594,-4.5594,-4.5594,-4.5594,-4.5594,-4.5594,-4.5594,-4.5594,-4.5594,-4.5594,-4.5594,-4.5594,-4.5594,-4.5594,-4.5594,-4.5522,-4.54,-4.54,-4.537,-4.5309,-4.5587,-4.5703,-4.5731,-4.6069,-4.6199,-4.6199,-4.6199,-4.6199,-4.6199,-4.6199,-4.6199,-4.6199,-5.3501,-5.3501,-5.3501,-5.3501,-5.3501,-5.3501,-5.3501,-5.2824,-5.224,-5.2114,-5.1464,-5.1152,-5.1538,-5.1576,-5.1835,-5.2434,-5.2498,-5.2498,-5.2498,-5.2498,-5.2498,-5.2498,-5.2498,-5.2498,-5.2498,-5.0927,-5.0112,-5.0112,-4.8895,-4.8287,-4.8325,-4.9059,-4.938,-4.9396,-4.9755,-4.9912,-4.9912,-4.9912,-4.9912,-4.9912,-4.9912,-4.9952,-5.0005,-5.0005,-5.0044,-4.9981,-4.9213,-4.903,-4.9075,-4.8192,-4.8092,-4.8149,-4.7274,-4.6552,-4.6042,-4.6174,-4.6215,-4.6219,-4.6199,-4.6199,-4.6199,-4.6196,-4.6093,-4.6007,-4.5993,-4.5835,-4.5696,-4.5696,-4.5648,-4.5594,-4.5594,-4.5594,-4.5594,-4.5594,-4.5594,-4.5594,-4.5594,-4.5594,-4.5594,-4.5594,-4.5594,-4.5594,-4.5594,-4.5594,-4.5594,-4.5594,-4.5594,-4.5594,-4.5594,-4.5594,-4.5594,-4.5594,-4.5594,-4.5594,-4.5594,-4.5594,-4.5594,-4.5594,-4.5594,-4.5522,-4.54,-4.54,-4.537,-4.5309,-4.5587,-4.5703,-4.5731,-4.6069,-4.6199,-4.6199,-4.6199,-4.6199,-4.6199,-4.6199,-4.6199,-4.6199,-5.3501,-5.3501,-5.3501,-5.3501,-5.3501,-5.3501,-5.3501,-5.2824,-5.2094,-5.1541,-5.1209,-5.0852,-5.0453,-5.1122,-5.1669,-5.186,-5.2251,-5.2498,-5.2498,-5.2498,-5.2498,-5.2498,-5.2498,-5.2498,-5.2498,-5.0927,-5.0112,-5.0112,-4.8605,-4.803,-4.8306,-4.8532,-4.8905,-4.9396,-4.9488,-4.9683,-4.9912,-4.9912,-4.9912,-4.9912,-4.9912,-4.9906,-4.9939,-4.9939,-4.9978,-4.9993,-4.9746,-4.9378,-4.8968,-4.8799,-4.8423,-4.8007,-4.7936,-4.7837,-4.7648,-4.7077,-4.7002,-4.6975,-4.6375,-4.6199,-4.6185,-4.6084,-4.6022,-4.5939,-4.5694,-4.5642,-4.5596,-4.551,-4.5512,-4.5531,-4.5586,-4.5594,-4.5594,-4.5594,-4.5594,-4.5594,-4.5594,-4.5594,-4.5594,-4.5594,-4.5594,-4.5594,-4.5594,-4.5594,-4.5594,-4.5594,-4.5594,-4.5594,-4.5594,-4.5594,-4.5594,-4.5594,-4.5594,-4.5594,-4.5594,-4.5594,-4.5594,-4.5594,-4.5594,-4.5522,-4.54,-4.54,-4.537,-4.5309,-4.5587,-4.5703,-4.5731,-4.6069,-4.6199,-4.6199,-4.6199,-4.6199,-4.6199,-4.6199,-4.6199,-4.6199,-5.3501,-5.3501,-5.3501,-5.3501,-5.3501,-5.3501,-5.3501,-5.3095,-5.2401,-5.132,-5.1111,-5.078,-4.9982,-5.0505,-5.1096,-5.1551,-5.2162,-5.2498,-5.2498,-5.2498,-5.2498,-5.2498,-5.2498,-5.2498,-5.2498,-5.0927,-5.0112,-5.0112,-4.8496,-4.7824,-4.807,-4.8229,-4.855,-4.8991,-4.927,-4.9503,-4.9712,-4.9838,-4.9912,-4.9912,-4.9912,-4.9912,-4.9912,-4.9912,-4.9939,-4.9965,-4.9965,-4.9682,-4.934,-4.943,-4.896,-4.837,-4.8594,-4.8496,-4.8217,-4.7841,-4.775,-4.7704,-4.7241,-4.7067,-4.6929,-4.6436,-4.61,-4.5816,-4.5558,-4.551,-4.5504,-4.541,-4.5448,-4.5513,-4.5559,-4.5577,-4.5594,-4.5594,-4.5594,-4.5729,-4.6067,-4.6105,-4.622,-4.6547,-4.6586,-4.6586,-4.6586,-4.6586,-4.6586,-4.6586,-4.6586,-4.6586,-4.6586,-4.6586,-4.6586,-4.6586,-4.6586,-4.6586,-4.6586,-4.6586,-4.6259,-4.5594,-4.5577,-4.5504,-4.54,-4.54,-4.537,-4.5309,-4.5587,-4.5703,-4.5731,-4.6069,-4.6199,-4.6199,-4.6199,-4.6199,-4.6199,-4.6199,-4.6199,-4.6199,-5.3501,-5.3501,-5.3501,-5.3501,-5.3501,-5.3501,-5.3501,-5.3501,-5.2959,-5.142,-5.1185,-5.0847,-4.9916,-4.9861,-5.0328,-5.1373,-5.2102,-5.2488,-5.2498,-5.2498,-5.2498,-5.2498,-5.2498,-5.2498,-5.2498,-5.0927,-5.0112,-5.0112,-4.8496,-4.7717,-4.7717,-4.8072,-4.8267,-4.8344,-4.9023,-4.9384,-4.943,-4.9755,-4.9912,-4.9912,-4.9912,-4.9912,-4.9912,-4.9912,-4.9912,-4.9912,-4.9912,-4.9952,-5.0005,-5.0005,-4.9588,-4.9113,-4.925,-4.8788,-4.8267,-4.8496,-4.8482,-4.8418,-4.8476,-4.8399,-4.8071,-4.7141,-4.6397,-4.5838,-4.5545,-4.5419,-4.5398,-4.5408,-4.5438,-4.5485,-4.5495,-4.5617,-4.5701,-4.5729,-4.5787,-4.6105,-4.6913,-4.7,-4.7278,-4.8009,-4.8105,-4.8105,-4.8105,-4.8105,-4.8105,-4.8105,-4.8105,-4.8105,-4.8105,-4.8105,-4.8105,-4.8105,-4.8105,-4.8105,-4.8105,-4.8105,-4.7336,-4.5825,-4.5753,-4.5649,-4.5515,-4.5505,-4.5435,-4.5309,-4.5587,-4.5703,-4.5731,-4.6069,-4.6199,-4.6199,-4.6199,-4.6199,-4.6199,-4.6199,-4.6199,-4.6199,-5.3501,-5.3501,-5.3501,-5.3501,-5.3501,-5.3501,-5.3501,-5.3501,-5.2959,-5.142,-5.1185,-5.0674,-4.9321,-4.9615,-5.0005,-5.0244,-5.1651,-5.2504,-5.2493,-5.2498,-5.2498,-5.2498,-5.2498,-5.2498,-5.2498,-5.0927,-5.0112,-5.0112,-4.8496,-4.7717,-4.7699,-4.7783,-4.799,-4.8325,-4.8747,-4.9123,-4.943,-4.9755,-4.9912,-4.9912,-4.9912,-4.9912,-4.9912,-4.9912,-4.9912,-4.9912,-4.9912,-4.9912,-4.9939,-4.9992,-4.9898,-4.9803,-4.9884,-4.9942,-4.9836,-4.924,-4.9134,-4.9111,-4.8503,-4.8314,-4.8207,-4.7825,-4.7614,-4.7124,-4.5668,-4.5329,-4.5338,-4.5398,-4.5409,-4.5448,-4.5485,-4.6061,-4.656,-4.6615,-4.7144,-4.7625,-4.7817,-4.7836,-4.7894,-4.8086,-4.8105,-4.8105,-4.8105,-4.8105,-4.8105,-4.8105,-4.8105,-4.8105,-4.8105,-4.8105,-4.8105,-4.8105,-4.8105,-4.8105,-4.8105,-4.8105,-4.7913,-4.7567,-4.7501,-4.7079,-4.6416,-4.6356,-4.596,-4.5309,-4.5587,-4.5703,-4.5731,-4.6069,-4.6199,-4.6199,-4.6199,-4.6199,-4.6199,-4.6199,-4.6199,-4.6199,-5.3501,-5.3501,-5.3501,-5.3501,-5.3501,-5.3501,-5.3501,-5.3501,-5.3078,-5.1894,-5.1437,-5.0777,-4.9644,-4.9494,-4.9585,-4.989,-5.1128,-5.2085,-5.2474,-5.2498,-5.2504,-5.2498,-5.2498,-5.2498,-5.2498,-5.1285,-5.0492,-5.0112,-4.8876,-4.8076,-4.7717,-4.7717,-4.7824,-4.803,-4.8402,-4.8765,-4.9155,-4.9503,-4.9755,-4.9912,-4.9912,-4.9912,-4.9912,-4.9912,-4.9912,-4.9912,-4.9912,-4.9912,-4.9912,-4.9952,-4.9978,-5.0005,-5.0044,-5.0175,-5.0248,-4.9908,-4.9826,-4.9769,-4.9476,-4.9324,-4.9144,-4.8642,-4.8515,-4.8168,-4.6789,-4.65,-4.6511,-4.6543,-4.6564,-4.6605,-4.6676,-4.7069,-4.7386,-4.7462,-4.7836,-4.8259,-4.8663,-4.8721,-4.8875,-4.9298,-4.9336,-4.9336,-4.9336,-4.9336,-4.9336,-4.9336,-4.9336,-4.9336,-4.9336,-4.9336,-4.9336,-4.9336,-4.9336,-4.9336,-4.9336,-4.9336,-4.9336,-4.9336,-4.8433,-4.7769,-4.7317,-4.7225,-4.6923,-4.6483,-4.637,-4.6315,-4.6304,-4.6221,-4.6199,-4.6199,-4.6199,-4.6199,-4.6199,-4.6199,-4.6199,-4.6199,-5.3501,-5.3501,-5.3501,-5.3501,-5.3501,-5.3501,-5.3501,-5.3501,-5.3213,-5.2418,-5.1674,-5.093,-5.0168,-4.9441,-4.9195,-4.9682,-5.0471,-5.1255,-5.2042,-5.2111,-5.2119,-5.2204,-5.2298,-5.2364,-5.2364,-5.1782,-5.1031,-5.0112,-4.9293,-4.8475,-4.7717,-4.7717,-4.7717,-4.7717,-4.8111,-4.8439,-4.8746,-4.9204,-4.9566,-4.9811,-4.9885,-4.9912,-4.9912,-4.9912,-4.9912,-4.9912,-4.9912,-4.9912,-4.9912,-4.9912,-4.9939,-4.9992,-4.9992,-5.0031,-5.0133,-5.0347,-5.031,-5.0248,-5.0466,-5.0429,-5.0149,-4.9461,-4.932,-4.9117,-4.8391,-4.7998,-4.7788,-4.7788,-4.7862,-4.7916,-4.7978,-4.8115,-4.8241,-4.8308,-4.8452,-4.8798,-4.951,-4.9625,-4.9894,-5.0616,-5.0712,-5.0712,-5.0712,-5.0712,-5.0712,-5.0712,-5.0712,-5.0712,-5.0712,-5.0712,-5.0712,-5.0712,-5.0712,-5.0712,-5.0712,-5.0712,-5.0712,-5.0693,-4.9172,-4.8363,-4.8199,-4.8075,-4.7955,-4.7837,-4.7419,-4.7238,-4.7203,-4.6658,-4.6414,-4.6414,-4.6258,-4.6199,-4.6199,-4.6199,-4.6199,-4.6219,-5.3501,-5.3501,-5.3501,-5.3501,-5.3501,-5.3501,-5.3501,-5.3501,-5.3213,-5.2418,-5.1674,-5.093,-5.0168,-4.9441,-4.9029,-4.9119,-4.9246,-4.9645,-5.0461,-5.0505,-5.0629,-5.0938,-5.1432,-5.1719,-5.1719,-5.2143,-5.1593,-5.0112,-4.9293,-4.8475,-4.7717,-4.7717,-4.7717,-4.7717,-4.8111,-4.8325,-4.842,-4.9125,-4.943,-4.9506,-4.9783,-4.9912,-4.9912,-4.9912,-4.9912,-4.9912,-4.9912,-4.9912,-4.9912,-4.9912,-4.9912,-4.9906,-4.9906,-4.9965,-5.0031,-5.005,-5.0126,-5.02,-5.0248,-5.029,-5.0264,-5.0168,-5.0149,-5.0111,-4.9996,-4.8839,-4.7788,-4.7788,-4.7843,-4.7926,-4.7988,-4.8614,-4.9144,-4.9212,-4.9856,-5.0385,-5.0519,-5.0519,-5.0577,-5.0693,-5.0712,-5.0712,-5.0712,-5.0712,-5.0712,-5.0712,-5.0712,-5.0712,-5.0712,-5.0712,-5.0712,-5.0712,-5.0712,-5.0712,-5.0712,-5.0712,-5.0712,-5.0712,-5.0393,-4.9823,-4.9034,-4.896,-4.8611,-4.8068,-4.8113,-4.8198,-4.8244,-4.7579,-4.7326,-4.7248,-4.6491,-4.6199,-4.6199,-4.6199,-4.6199,-4.6316,-5.3433,-5.3501,-5.3501,-5.3501,-5.3501,-5.3501,-5.3501,-5.3501,-5.3382,-5.3027,-5.23,-5.1539,-5.0794,-4.9695,-4.9009,-4.8984,-4.8997,-4.9294,-5.0007,-5.0035,-5.0237,-5.068,-5.0955,-5.126,-5.1576,-5.186,-5.1585,-5.0782,-4.9963,-4.9166,-4.8348,-4.7895,-4.7717,-4.7717,-4.7907,-4.809,-4.8344,-4.8834,-4.9188,-4.943,-4.9769,-4.9912,-4.9912,-4.9912,-4.9912,-4.9912,-4.9912,-4.9912,-4.9912,-4.9912,-4.9912,-4.9912,-4.9912,-4.9925,-4.9946,-4.9992,-5.0038,-5.0101,-5.0175,-5.0212,-5.0255,-5.029,-5.0302,-5.0302,-5.0302,-4.9729,-4.9213,-4.9213,-4.9217,-4.925,-4.9324,-4.9695,-4.9987,-5.0057,-5.0413,-5.0712,-5.0712,-5.0712,-5.0712,-5.0712,-5.0712,-5.0712,-5.0712,-5.0712,-5.0712,-5.0712,-5.0712,-5.0712,-5.0712,-5.0712,-5.0712,-5.0712,-5.0712,-5.0712,-5.0712,-5.0712,-5.0712,-5.0712,-5.0663,-5.0392,-4.9925,-4.986,-4.965,-4.9311,-4.9076,-4.9001,-4.9026,-4.8457,-4.8222,-4.8144,-4.7267,-4.6628,-4.6199,-4.6199,-4.6438,-4.6819]},{"header":{"parameterUnit":"m.s-1","parameterCategory":1,"la1":30.6,"la2":28.766,"lo1":-90.7593,"lo2":-88.6598,"dy":0.0162,"dx":0.0183,"nx":116,"ny":114,"refTime":"2023-04-12T06:00:00:Z","depth":0,"parameterNumber":3,"parameterNumberName":"V-component_of_WINDS"},"data":[0.0,0.0,0.0,0.0,0.0,0.0,0.0,0.0,0.0,0.0,0.0,0.0,0.0,0.0,0.0,0.0,0.0,0.0,0.0,0.0,0.0,0.0,0.0,0.0,0.0,0.0,0.0,0.0,0.0,0.0,0.0,0.0,0.0,0.0,0.0,0.0,0.0,0.0,0.0,0.0,0.0,0.0,0.0,0.0,0.0,0.0,0.0,0.0,0.0,0.0,0.0,0.0,0.0,0.0,0.0,0.0,0.0,0.0,0.0,0.0,0.0,0.0,0.0,0.0,0.0,0.0,0.0,0.0,0.0,0.0,0.0,0.0,0.0,0.0,0.0,0.0,0.0,0.0,0.0,0.0,0.0,0.0,0.0,0.0,0.0,0.0,0.0,0.0,0.0,0.0,0.0,0.0,0.0,0.0,0.0,0.0,0.0,0.0,0.0,0.0,0.0,0.0,0.0,0.0,0.0,0.0,0.0,0.0,0.0,0.0,0.0,0.0,0.0,0.0,0.0,0.0,0.0,0.0,0.0,0.0,0.0,0.0,0.0,0.0,0.0,0.0,0.0,0.0,0.0,0.0,0.0,0.0,0.0,0.0,0.0,0.0,0.0,0.0,0.0,0.0,0.0,0.0,0.0,0.0,0.0,0.0,0.0,0.0,0.0,0.0,0.0,0.0,0.0,0.0,0.0,0.0,0.0,0.0,0.0,0.0,0.0,0.0,0.0,0.0,0.0,0.0,0.0,0.0,0.0,0.0,0.0,0.0,0.0,0.0,0.0,0.0,0.0,0.0,0.0,0.0,0.0,0.0,0.0,0.0,0.0,0.0,0.0,0.0,0.0,0.0,0.0,0.0,0.0,0.0,0.0,0.0,0.0,0.0,0.0,0.0,0.0,0.0,0.0,0.0,0.0,0.0,0.0,0.0,0.0,0.0,0.0,0.0,0.0,0.0,0.0,0.0,0.0,0.0,0.0,0.0,0.0,0.0,0.0,0.0,0.0,0.0,0.0,0.0,0.0,0.0,0.0,0.0,0.0,0.0,0.0,0.0,0.0,0.0,0.0,0.0,0.0,0.0,0.0,0.0,0.0,0.0,0.0,0.0,0.0,0.0,0.0,0.0,0.0,0.0,0.0,0.0,0.0,0.0,0.0,0.0,0.0,0.0,0.0,0.0,0.0,0.0,0.0,0.0,0.0,0.0,0.0,0.0,0.0,0.0,0.0,0.0,0.0,0.0,0.0,0.0,0.0,0.0,0.0,0.0,0.0,0.0,0.0,0.0,0.0,0.0,0.0,0.0,0.0,0.0,0.0,0.0,0.0,0.0,0.0,0.0,0.0,0.0,0.0,0.0,0.0,0.0,0.0,0.0,0.0,0.0,0.0,0.0,0.0,0.0,0.0,0.0,0.0,0.0,0.0,0.0,0.0,0.0,0.0,0.0,0.0,0.0,0.0,0.0,0.0,0.0,0.0,0.0,0.0,0.0,0.0,0.0,0.0,0.0,0.0,0.0,0.0,0.0,0.0,0.0,0.0,0.0,0.0,0.0,0.0,0.0,0.0,0.0,0.0,0.0,0.0,0.0,0.0,0.0,0.0,0.0,0.0,0.0,0.0,0.0,0.0,0.0,0.0,0.0,0.0,0.0,0.0,0.0,0.0,0.0,0.0,0.0,0.0,0.0,0.0,0.0,0.0,0.0,0.0,0.0,0.0,0.0,0.0,0.0,0.0,0.0,0.0,0.0,0.0,0.0,0.0,0.0,0.0,0.0,0.0,0.0,0.0,0.0,0.0,0.0,0.0,0.0,0.0,0.0,0.0,0.0,0.0,0.0,0.0,0.0,0.0,0.0,0.0,0.0,0.0,0.0,0.0,0.0,0.0,0.0,0.0,0.0,0.0,0.0,0.0,0.0,0.0,0.0,0.0,0.0,0.0,0.0,0.0,0.0,0.0,0.0,0.0,0.0,0.0,0.0,0.0,0.0,0.0,0.0,0.0,0.0,0.0,0.0,0.0,0.0,0.0,0.0,0.0,0.0,0.0,0.0,0.0,0.0,0.0,0.0,0.0,0.0,0.0,0.0,0.0,0.0,0.0,0.0,0.0,0.0,0.0,0.0,0.0,0.0,0.0,0.0,0.0,0.0,0.0,0.0,0.0,0.0,0.0,0.0,0.0,0.0,0.0,0.0,0.0,0.0,0.0,0.0,0.0,0.0,0.0,0.0,0.0,0.0,0.0,0.0,0.0,0.0,0.0,0.0,0.0,0.0,0.0,0.0,0.0,0.0,0.0,0.0,0.0,0.0,0.0,0.0,0.0,0.0,0.0,0.0,0.0,0.0,0.0,0.0,0.0,0.0,0.0,0.0,0.0,0.0,0.0,0.0,0.0,0.0,0.0,0.0,0.0,0.0,0.0,0.0,0.0,0.0,0.0,0.0,0.0,0.0,0.0,0.0,0.0,0.0,0.0,0.0,0.0,0.0,0.0,0.0,0.0,0.0,0.0,0.0,0.0,0.0,0.0,0.0,0.0,0.0,0.0,0.0,0.0,0.0,0.0,0.0,0.0,0.0,0.0,0.0,0.0,0.0,0.0,0.0,0.0,0.0,0.0,0.0,0.0,0.0,0.0,0.0,0.0,0.0,0.0,0.0,0.0,0.0,0.0,0.0,0.0,0.0,0.0,0.0,0.0,0.0,0.0,0.0,0.0,0.0,0.0,0.0,0.0,0.0,0.0,0.0,0.0,0.0,0.0,0.0,0.0,0.0,0.0,0.0,0.0,0.0,0.0,0.0,0.0,0.0,0.0,0.0,0.0,0.0,0.0,0.0,0.0,0.0,0.0,0.0,0.0,0.0,0.0,0.0,0.0,0.0,0.0,0.0,0.0,0.0,0.0,0.0,0.0,0.0,0.0,0.0,0.0,0.0,0.0,0.0,0.0,0.0,0.0,0.0,0.0,0.0,0.0,0.0,0.0,0.0,0.0,0.0,0.0,0.0,0.0,0.0,0.0,0.0,0.0,0.0,0.0,0.0,0.0,0.0,0.0,0.0,0.0,0.0,0.0,0.0,0.0,0.0,0.0,0.0,0.0,0.0,0.0,0.0,0.0,0.0,0.0,0.0,0.0,0.0,0.0,0.0,0.0,0.0,0.0,0.0,0.0,0.0,0.0,0.0,0.0,0.0,0.0,0.0,0.0,0.0,0.0,0.0,0.0,0.0,0.0,0.0,0.0,0.0,0.0,0.0,0.0,0.0,0.0,0.0,0.0,0.0,0.0,0.0,0.0,0.0,0.0,0.0,0.0,0.0,0.0,0.0,0.0,0.0,0.0,0.0,0.0,0.0,0.0,0.0,0.0,0.0,0.0,0.0,0.0,0.0,0.0,0.0,0.0,0.0,0.0,0.0,0.0,0.0,0.0,0.0,0.0,0.0,0.0,0.0,0.0,0.0,0.0,0.0,0.0,0.0,0.0,0.0,0.0,0.0,0.0,0.0,0.0,0.0,0.0,0.0,0.0,0.0,0.0,0.0,0.0,0.0,0.0,0.0,0.0,0.0,0.0,0.0,0.0,0.0,0.0,0.0,0.0,0.0,0.0,0.0,0.0,0.0,0.0,0.0,0.0,0.0,0.0,0.0,0.0,0.0,0.0,0.0,0.0,0.0,0.0,0.0,0.0,0.0,0.0,0.0,0.0,0.0,0.0,0.0,0.0,0.0,0.0,0.0,0.0,0.0,0.0,0.0,0.0,0.0,0.0,0.0,0.0,0.0,0.0,0.0,0.0,0.0,0.0,0.0,0.0,0.0,0.0,0.0,0.0,0.0,0.0,0.0,0.0,0.0,0.0,0.0,0.0,0.0,0.0,0.0,0.0,0.0,0.0,0.0,0.0,0.0,0.0,0.0,0.0,0.0,0.0,0.0,0.0,0.0,0.0,0.0,0.0,0.0,0.0,0.0,0.0,0.0,0.0,0.0,0.0,0.0,0.0,0.0,0.0,0.0,0.0,0.0,0.0,0.0,0.0,0.0,0.0,0.0,0.0,0.0,0.0,0.0,0.0,0.0,0.0,0.0,0.0,0.0,0.0,0.0,0.0,0.0,0.0,0.0,0.0,0.0,0.0,0.0,0.0,0.0,0.0,0.0,0.0,0.0,0.0,0.0,0.0,0.0,0.0,0.0,0.0,0.0,0.0,0.0,0.0,0.0,0.0,0.0,0.0,0.0,0.0,0.0,0.0,0.0,0.0,0.0,0.0,0.0,0.0,0.0,0.0,0.0,0.0,0.0,0.0,0.0,0.0,0.0,0.0,0.0,0.0,0.0,0.0,0.0,0.0,0.0,0.0,0.0,0.0,0.0,0.0,0.0,0.0,0.0,0.0,0.0,0.0,0.0,0.0,0.0,0.0,0.0,0.0,0.0,0.0,0.0,0.0,0.0,0.0,0.0,0.0,0.0,0.0,0.0,0.0,0.0,0.0,0.0,0.0,0.0,0.0,0.0,0.0,0.0,0.0,0.0,0.0,0.0,0.0,0.0,0.0,0.0,0.0,0.0,0.0,0.0,0.0,0.0,0.0,0.0,0.0,0.0,0.0,0.0,0.0,0.0,0.0,0.0,0.0,0.0,0.0,0.0,0.0,0.0,0.0,0.0,0.0,0.0,0.0,0.0,0.0,0.0,0.0,0.0,0.0,0.0,0.0,0.0,0.0,0.0,0.0,0.0,0.0,0.0,0.0,0.0,0.0,0.0,0.0,0.0,0.0,0.0,0.0,0.0,0.0,0.0,0.0,0.0,0.0,0.0,0.0,0.0,0.0,0.0,0.0,0.0,0.0,0.0,0.0,0.0,0.0,0.0,0.0,0.0,0.0,0.0,0.0,0.0,0.0,0.0,0.0,0.0,0.0,0.0,0.0,0.0,0.0,0.0,0.0,0.0,0.0,0.0,0.0,0.0,0.0,0.0,0.0,0.0,0.0,0.0,0.0,0.0,0.0,0.0,0.0,0.0,0.0,0.0,0.0,0.0,0.0,0.0,0.0,0.0,0.0,0.0,0.0,0.0,0.0,0.0,0.0,0.0,0.0,0.0,0.0,0.0,0.0,0.0,0.0,0.0,0.0,0.0,0.0,0.0,0.0,0.0,0.0,0.0,0.0,0.0,0.0,0.0,0.0,0.0,0.0,0.0,0.0,0.0,0.0,0.0,0.0,0.0,0.0,0.0,0.0,0.0,0.0,0.0,0.0,0.0,0.0,0.0,0.0,0.0,0.0,0.0,0.0,0.0,0.0,0.0,0.0,0.0,0.0,0.0,0.0,0.0,0.0,0.0,0.0,0.0,0.0,0.0,0.0,0.0,0.0,0.0,0.0,0.0,0.0,0.0,0.0,0.0,0.0,0.0,0.0,0.0,0.0,0.0,0.0,0.0,0.0,0.0,0.0,0.0,0.0,0.0,0.0,0.0,0.0,0.0,0.0,0.0,0.0,0.0,0.0,0.0,0.0,0.0,0.0,0.0,0.0,0.0,0.0,0.0,0.0,0.0,0.0,0.0,0.0,0.0,0.0,0.0,0.0,0.0,0.0,0.0,0.0,0.0,0.0,0.0,0.0,0.0,0.0,0.0,0.0,0.0,0.0,0.0,0.0,0.0,0.0,0.0,0.0,0.0,0.0,0.0,0.0,0.0,0.0,0.0,0.0,0.0,0.0,0.0,0.0,0.0,0.0,0.0,0.0,0.0,0.0,0.0,0.0,0.0,0.0,0.0,0.0,0.0,0.0,0.0,0.0,0.0,0.0,0.0,0.0,0.0,0.0,0.0,0.0,0.0,0.0,0.0,0.0,0.0,0.0,0.0,0.0,0.0,0.0,0.0,0.0,0.0,0.0,0.0,0.0,0.0,0.0,0.0,0.0,0.0,0.0,0.0,0.0,0.0,0.0,0.0,0.0,0.0,0.0,0.0,0.0,0.0,0.0,0.0,0.0,0.0,0.0,0.0,0.0,0.0,0.0,0.0,0.0,0.0,0.0,0.0,0.0,0.0,0.0,0.0,0.0,0.0,0.0,0.0,0.0,0.0,0.0,0.0,0.0,0.0,0.0,0.0,0.0,0.0,0.0,0.0,0.0,0.0,0.0,0.0,-0.4812,-0.541,0.0,0.0,0.0,0.0,0.0,0.0,0.0,0.0,0.0,0.0,0.0,0.0,0.0,0.0,0.0,0.0,0.0,0.0,0.0,0.0,0.0,0.0,0.0,0.0,0.0,0.0,0.0,0.0,0.0,0.0,0.0,0.0,0.0,0.0,0.0,0.0,0.0,0.0,-0.7849,-0.7856,-0.8256,-0.8771,-0.8863,-0.8612,0.0,0.0,0.0,0.0,0.0,0.0,0.0,0.0,0.0,0.0,0.0,0.0,0.0,0.0,0.0,0.0,0.0,0.0,0.0,0.0,0.0,0.0,0.0,0.0,0.0,0.0,0.0,0.0,0.0,0.0,0.0,0.0,0.0,0.0,0.0,0.0,0.0,0.0,0.0,0.0,0.0,0.0,0.0,0.0,0.0,0.0,0.0,0.0,0.0,0.0,0.0,0.0,0.0,0.0,0.0,0.0,0.0,0.0,0.0,0.0,0.0,0.0,0.0,0.0,0.0,0.0,0.0,0.0,0.0,0.0,-0.3805,-0.42,0.0,0.0,0.0,0.0,0.0,0.0,0.0,0.0,0.0,0.0,0.0,0.0,0.0,0.0,0.0,0.0,0.0,0.0,0.0,0.0,0.0,0.0,0.0,-1.2918,-1.3264,-1.4046,-1.4088,-1.4088,0.0,0.0,0.0,0.0,0.0,0.0,0.0,-0.9634,-0.8843,-0.8552,-0.8205,-0.8296,-0.8828,-0.9428,-0.9301,-0.8612,-0.8612,0.0,0.0,0.0,0.0,0.0,0.0,0.0,0.0,0.0,0.0,0.0,0.0,0.0,0.0,0.0,0.0,0.0,0.0,0.0,0.0,0.0,0.0,0.0,0.0,0.0,0.0,0.0,0.0,0.0,0.0,0.0,0.0,0.0,0.0,0.0,0.0,0.0,0.0,0.0,0.0,0.0,0.0,0.0,0.0,0.0,0.0,0.0,0.0,0.0,0.0,0.0,0.0,0.0,0.0,0.0,0.0,0.0,0.0,0.0,0.0,0.0,0.0,0.0,-0.2732,-0.2644,-0.2644,-0.2465,-0.2374,-0.2374,-0.2374,-0.2598,-0.2957,-0.3717,0.0,0.0,0.0,0.0,0.0,0.0,0.0,0.0,0.0,0.0,0.0,0.0,0.0,0.0,0.0,0.0,0.0,0.0,0.0,0.0,0.0,-1.3913,-1.3962,-1.4088,-1.4088,-1.4088,-1.4088,0.0,0.0,0.0,0.0,0.0,-1.033,-0.896,-0.8397,-0.8775,-0.8605,-0.8911,-0.9733,-0.9087,-0.87,-0.8612,-0.8612,-0.8612,-0.8564,0.0,0.0,0.0,0.0,0.0,0.0,0.0,0.0,0.0,0.0,0.0,0.0,0.0,0.0,0.0,0.0,0.0,0.0,0.0,0.0,0.0,0.0,0.0,0.0,0.0,0.0,0.0,0.0,0.0,0.0,0.0,0.0,0.0,0.0,0.0,0.0,0.0,0.0,0.0,0.0,0.0,-0.398,-0.3992,0.0,0.0,0.0,0.0,0.0,0.0,0.0,0.0,0.0,0.0,0.0,0.0,0.0,-0.3045,-0.2911,-0.2911,-0.2911,-0.2867,-0.2017,-0.1614,-0.1569,-0.0763,-0.0404,-0.0404,-0.0404,0.0,-0.2911,-0.3045,0.0,0.0,0.0,0.0,0.0,0.0,0.0,0.0,0.0,0.0,0.0,0.0,0.0,0.0,0.0,0.0,0.0,0.0,0.0,0.0,0.0,-1.4088,-1.4292,-1.4783,-1.4377,-1.4292,-1.4783,-1.437,0.0,0.0,0.0,-1.1982,-1.1227,-0.9967,-0.9421,-0.9651,-0.9723,-0.9949,-1.0286,-0.9849,-0.9345,-0.871,-0.871,-0.8658,-0.8564,-0.7801,0.0,0.0,0.0,0.0,0.0,0.0,0.0,0.0,0.0,0.0,0.0,0.0,0.0,0.0,0.0,0.0,0.0,0.0,0.0,0.0,0.0,0.0,0.0,0.0,0.0,0.0,0.0,0.0,0.0,0.0,0.0,0.0,0.0,0.0,0.0,0.0,0.0,0.0,0.0,-0.4112,-0.413,-0.4177,-0.4183,-0.4183,0.0,0.0,0.0,0.0,0.0,0.0,0.0,0.0,0.0,-0.2106,-0.2038,-0.1823,-0.1277,-0.1291,-0.1253,-0.1253,-0.0836,-0.0603,-0.0603,-0.0186,0.0,0.0,0.0,-0.0464,-0.1297,-0.1856,-0.2286,-0.2732,0.0,0.0,0.0,0.0,-0.3135,-0.2598,0.0,0.0,0.0,0.0,0.0,0.0,0.0,0.0,0.0,0.0,0.0,0.0,-1.4419,-1.4208,-1.4454,-1.5311,-1.4622,-1.4377,-1.5026,-1.4529,-1.416,-1.4154,-1.329,-1.2591,-1.2148,-1.1276,-1.0817,-1.0724,-1.0688,-1.0655,-1.0556,-1.0288,-0.9708,-0.8889,-0.8889,-0.8771,-0.8564,-0.8025,-0.7801,-0.7801,0.0,0.0,0.0,0.0,0.0,0.0,0.0,0.0,0.0,0.0,0.0,0.0,0.0,0.0,0.0,0.0,0.0,0.0,0.0,0.0,0.0,0.0,0.0,0.0,0.0,0.0,0.0,0.0,0.0,0.0,0.0,0.0,0.0,0.0,0.0,0.0,0.0,-0.4206,-0.4228,-0.4291,-0.43,-0.43,0.0,0.0,0.0,0.0,0.0,0.0,-0.2527,-0.254,-0.2184,-0.1457,-0.1201,-0.0699,0.0,0.0,-0.0143,-0.0333,-0.0095,-0.0143,-0.0333,-0.0095,0.0,0.0,0.0,0.0,-0.0048,-0.0738,-0.1185,-0.1457,-0.223,-0.2684,-0.2866,-0.2593,-0.2049,-0.1366,0.0,0.0,0.0,0.0,0.0,0.0,0.0,0.0,0.0,0.0,0.0,-1.4412,-1.5228,-1.4622,-1.4454,-1.5311,-1.4622,-1.413,-1.4166,-1.4342,-1.4104,-1.3229,-1.2468,-1.22,-1.2485,-1.2402,-1.2214,-1.1842,-1.0986,-1.0565,-1.0473,-0.9605,-0.9139,-0.9084,-0.9084,-0.8893,-0.8612,-0.8564,-0.8524,-0.8524,-0.8524,0.0,0.0,0.0,0.0,0.0,0.0,0.0,0.0,0.0,0.0,0.0,0.0,0.0,0.0,0.0,0.0,0.0,0.0,0.0,0.0,0.0,0.0,0.0,0.0,0.0,0.0,0.0,0.0,0.0,0.0,0.0,0.0,0.0,0.0,0.0,0.0,0.0,0.0,-0.43,-0.43,0.0,0.0,0.0,0.0,-0.4164,-0.2918,-0.2581,-0.3641,-0.23,-0.1518,-0.1565,-0.0618,-0.0048,0.0,0.0,-0.0429,-0.1332,-0.0429,-0.0476,-0.1285,-0.0429,0.0,0.0,0.0,0.0,0.0,-0.0048,-0.0617,-0.1423,-0.1471,-0.2039,-0.2796,-0.185,-0.1423,-0.1281,0.0,0.0,0.0,0.0,0.0,0.0,0.0,0.0,-1.4088,-1.4088,-1.458,-1.5068,-1.5352,-1.5643,-1.5884,-1.6214,-1.5436,-1.4943,-1.4943,-1.4649,-1.4471,-1.4346,-1.4248,-1.4009,-1.366,-1.2363,-1.1925,-1.2411,-1.0754,-1.0289,-1.0909,-0.9912,-0.9376,-0.931,-0.931,-0.9175,-0.8901,-0.8779,-0.8666,-0.8612,-0.8612,-0.8432,0.0,0.0,0.0,0.0,0.0,0.0,0.0,0.0,0.0,0.0,0.0,0.0,0.0,0.0,0.0,0.0,0.0,0.0,0.0,0.0,0.0,0.0,0.0,0.0,0.0,0.0,0.0,0.0,0.0,0.0,0.0,0.0,0.0,0.0,0.0,0.0,0.0,-0.43,-0.4351,0.0,-0.4342,-0.3559,-0.3166,-0.3491,-0.281,-0.2212,-0.1932,-0.1659,-0.157,-0.1618,-0.0579,-0.034,-0.1019,-0.0344,-0.0148,-0.0495,-0.0148,-0.0198,-0.0495,-0.0148,0.0,0.0,0.0,0.0,0.0,0.0,-0.0195,-0.0476,-0.0476,-0.0714,-0.0999,-0.0619,-0.0476,-0.0429,0.0,0.0,0.0,0.0,0.0,0.0,0.0,0.0,-1.4088,-1.4088,-1.4866,-1.5394,-1.5394,-1.5925,-1.6247,-1.6247,-1.5477,-1.4943,-1.4943,-1.4649,-1.4656,-1.4995,-1.5244,-1.468,-1.3194,-1.2464,-1.2116,-1.2193,-1.0792,-1.0306,-1.0641,-0.9916,-0.9563,-0.9445,-0.9445,-0.9348,-0.9177,-0.9051,-0.8901,-0.8792,-0.8792,-0.8608,-0.8282,0.0,0.0,0.0,0.0,0.0,0.0,0.0,0.0,0.0,0.0,0.0,0.0,0.0,0.0,0.0,0.0,0.0,0.0,0.0,0.0,0.0,0.0,0.0,0.0,0.0,0.0,0.0,0.0,0.0,0.0,0.0,0.0,0.0,0.0,-0.41,-0.4344,-0.4344,-0.4426,-0.4481,-0.4481,-0.3634,-0.328,-0.3708,-0.2965,-0.2353,-0.2067,-0.1741,-0.1602,-0.1602,-0.0541,-0.0347,-0.104,-0.0351,0.0,0.0,0.0,0.0,0.0,0.0,0.0,0.0,0.0,0.0,0.0,0.0,0.0,0.0,0.0,0.0,0.0,0.0,0.0,0.0,0.0,0.0,0.0,0.0,0.0,0.0,0.0,-1.4088,-1.4088,-1.4088,-1.4866,-1.5394,-1.5394,-1.5436,-1.5436,-1.5394,-1.4622,-1.413,-1.4088,-1.4355,-1.4656,-1.4963,-1.5198,-1.3934,-1.1025,-1.2758,-1.2864,-1.1219,-1.117,-1.0641,-0.9579,-0.9579,-0.9579,-0.9579,-0.9579,-0.9531,-0.9412,-0.9412,-0.9314,-0.9112,-0.91,-0.8668,-0.8031,0.0,0.0,0.0,0.0,0.0,0.0,0.0,0.0,0.0,0.0,0.0,0.0,0.0,0.0,0.0,0.0,0.0,0.0,0.0,0.0,0.0,0.0,0.0,0.0,0.0,0.0,0.0,0.0,0.0,0.0,0.0,0.0,0.0,-0.3103,-0.3788,-0.4392,-0.4392,-0.452,-0.4625,-0.4625,-0.3715,-0.3667,-0.4907,-0.3536,-0.3085,-0.421,-0.2593,-0.1613,-0.1613,-0.0555,0.0,-0.0051,0.0,0.0,0.0,0.0,0.0,0.0,0.0,0.0,0.0,0.0,0.0,0.0,0.0,0.0,0.0,0.0,0.0,0.0,0.0,0.0,0.0,0.0,0.0,0.0,0.0,0.0,0.0,0.0,-1.4088,-1.4088,-1.4088,-1.4866,-1.5394,-1.5394,-1.5966,-1.6083,-1.5477,-1.5193,-1.4783,-1.413,-1.4355,-1.4382,-1.4118,-1.3601,-1.2925,-1.2197,-1.2004,-1.1691,-1.1219,-1.04,-0.9867,-0.9579,-0.9579,-0.9579,-0.9579,-0.9579,-0.96,-0.9551,-0.9551,-0.9522,-0.9462,-0.9202,-0.9003,-0.8757,0.0,0.0,0.0,0.0,0.0,0.0,0.0,0.0,0.0,0.0,0.0,0.0,0.0,0.0,0.0,0.0,0.0,0.0,0.0,0.0,0.0,0.0,0.0,0.0,0.0,0.0,0.0,0.0,0.0,0.0,0.0,-0.4009,-0.4408,-0.4043,-0.4289,-0.4534,-0.4534,-0.4616,-0.4671,-0.4671,-0.4628,-0.4763,-0.5111,-0.5081,-0.4495,-0.3296,-0.2913,-0.2418,-0.1613,-0.0555,-0.0353,-0.116,-0.0404,0.0,0.0,0.0,0.0,0.0,0.0,0.0,0.0,0.0,0.0,0.0,0.0,0.0,0.0,0.0,0.0,0.0,0.0,0.0,0.0,0.0,0.0,0.0,0.0,0.0,0.0,0.0,-1.4088,-1.4088,-1.4088,-1.4866,-1.5269,-1.4908,-1.5636,-1.5801,-1.495,-1.4866,-1.4664,-1.4124,-1.3961,-1.3452,-1.2334,-1.2306,-1.2005,-1.1332,-1.1091,-1.0847,-1.0547,-0.9916,-0.9579,-0.9579,-0.9579,-0.9579,-0.9579,-0.9579,-0.9579,-0.9579,-0.9579,-0.9579,-0.9558,-0.9405,-0.9319,-0.9264,-0.8748,-0.8386,-0.8055,-0.7675,-0.7295,-0.6971,-0.6551,0.0,0.0,0.0,0.0,0.0,0.0,0.0,0.0,0.0,0.0,0.0,0.0,0.0,0.0,0.0,0.0,0.0,0.0,0.0,0.0,0.0,0.0,0.0,0.0,-0.4237,-0.4612,-0.4557,-0.4596,-0.4628,-0.4628,-0.4708,-0.4761,-0.4761,-0.5007,-0.524,-0.5338,-0.5741,-0.5286,-0.3725,-0.3374,-0.272,-0.1613,-0.0559,-0.0307,-0.0919,-0.0309,0.0,0.0,0.0,0.0,0.0,0.0,0.0,0.0,0.0,0.0,0.0,0.0,0.0,0.0,0.0,0.0,0.0,0.0,0.0,0.0,0.0,0.0,0.0,0.0,0.0,0.0,0.0,-1.4068,-1.4088,-1.4088,-1.4783,-1.4943,-1.4166,-1.4783,-1.4943,-1.4173,-1.4088,-1.4046,-1.3955,-1.3275,-1.2098,-1.0322,-1.1182,-1.0986,-0.9477,-1.0188,-1.0277,-0.9579,-0.9579,-0.9579,-0.9579,-0.9579,-0.9579,-0.9579,-0.9579,-0.9579,-0.9579,-0.9579,-0.9579,-0.9579,-0.9579,-0.9579,-0.9562,-0.9348,-0.8947,-0.8415,-0.8267,-0.788,-0.7368,-0.7344,0.0,0.0,0.0,0.0,0.0,0.0,0.0,0.0,0.0,0.0,0.0,0.0,0.0,0.0,0.0,0.0,0.0,0.0,0.0,0.0,0.0,0.0,0.0,0.0,-0.4663,-0.4724,-0.4724,-0.4724,-0.4724,-0.4724,-0.474,-0.4784,-0.4784,-0.5098,-0.5356,-0.5603,-0.5919,-0.5675,-0.4712,-0.375,0.0,0.0,0.0,0.0,0.0,0.0,0.0,0.0,0.0,0.0,0.0,0.0,0.0,0.0,0.0,0.0,0.0,0.0,0.0,0.0,0.0,0.0,0.0,0.0,0.0,0.0,0.0,0.0,0.0,0.0,0.0,0.0,0.0,-1.3935,-1.4088,-1.4088,-1.425,-1.4292,-1.413,-1.425,-1.4292,-1.413,-1.4088,-1.3786,-1.3009,-1.2146,-1.13,-1.049,-0.995,-0.9621,-0.9567,-0.9719,-0.9735,-0.9579,-0.9579,-0.9579,-0.9579,-0.9579,-0.9579,-0.9579,-0.9579,-0.9579,-0.9579,-0.9579,-0.9579,-0.9579,-0.9579,-0.9579,-0.9525,-0.8844,-0.8932,-0.9276,-0.8583,-0.8685,-0.9034,-0.8372,-0.8184,-0.8035,-0.7388,-0.7089,0.0,0.0,0.0,0.0,0.0,0.0,0.0,0.0,0.0,0.0,0.0,0.0,0.0,0.0,0.0,0.0,0.0,0.0,0.0,-0.4683,-0.4753,-0.476,-0.476,-0.476,-0.476,-0.476,-0.4774,-0.4784,-0.4784,-0.5359,-0.5714,-0.5765,-0.6313,-0.5784,-0.3785,-0.347,-0.2421,-0.0369,-0.0106,0.0,0.0,0.0,0.0,0.0,0.0,0.0,0.0,0.0,0.0,0.0,0.0,0.0,0.0,0.0,0.0,0.0,0.0,0.0,0.0,0.0,0.0,0.0,0.0,0.0,0.0,0.0,0.0,0.0,0.0,-1.2924,-1.3105,-1.3246,-1.3605,-1.3921,-1.4075,-1.4088,-1.4088,-1.4088,-1.4088,-1.3483,-1.21,-1.2015,-1.1361,-0.9862,-0.9786,-0.9733,-0.962,-0.9579,-0.9579,-0.9579,-0.9579,-0.9579,-0.9579,-0.9579,-0.9579,-0.9579,-0.9579,-0.9579,-0.9579,-0.9579,-0.9377,-0.8981,-0.8981,-0.8779,-0.8382,-0.8382,-0.8382,-0.8333,-0.7935,-0.8035,-0.8382,-0.8382,-0.8382,-0.8382,-0.8382,-0.8134,-0.7637,0.0,0.0,0.0,0.0,0.0,0.0,0.0,0.0,0.0,0.0,0.0,0.0,0.0,0.0,-0.4757,-0.4712,0.0,-0.4771,-0.4771,-0.4758,-0.4784,-0.4784,-0.4875,-0.4904,-0.4904,-0.4904,-0.492,-0.4967,-0.5378,-0.572,-0.5874,-0.5764,-0.5259,-0.4247,-0.3135,-0.1969,-0.0853,-0.0269,0.0,0.0,0.0,0.0,0.0,0.0,0.0,0.0,0.0,0.0,0.0,0.0,0.0,0.0,0.0,0.0,0.0,0.0,0.0,0.0,0.0,0.0,0.0,0.0,0.0,0.0,0.0,0.0,0.0,0.0,-1.1951,-1.2021,-1.2063,-1.293,-1.3525,-1.3458,-1.3626,-1.3769,-1.3822,-1.3997,-1.3307,-1.1408,-1.2015,-1.1449,-0.922,-0.9833,-1.0013,-0.962,-0.9579,-0.9579,-0.9579,-0.9579,-0.9579,-0.9579,-0.9579,-0.9579,-0.9579,-0.9579,-0.9579,-0.9579,-0.943,-0.8981,-0.8382,-0.8233,-0.7686,-0.7039,-0.7686,-0.7637,-0.7188,-0.7039,-0.7089,-0.7338,-0.8134,-0.8382,-0.8531,-0.9179,-0.8928,-0.8233,-0.7238,-0.6492,0.0,0.0,0.0,0.0,0.0,0.0,0.0,0.0,-0.4784,-0.4784,-0.4784,-0.4784,-0.4784,-0.4784,-0.4784,-0.4784,-0.4784,-0.4784,-0.479,-0.4859,-0.4924,-0.4986,-0.502,-0.501,-0.5026,-0.51,-0.5392,-0.5563,-0.5665,-0.504,-0.4562,-0.4398,-0.2633,-0.1506,-0.1291,-0.0437,0.0,0.0,0.0,0.0,0.0,0.0,0.0,0.0,0.0,0.0,0.0,0.0,0.0,0.0,0.0054,0.0054,0.0108,0.0162,0.0162,0.0161,0.0105,0.0104,0.0156,0.0,0.0,0.0,0.0,0.0,0.0,0.0,0.0,-1.1748,-1.1082,-1.2311,-1.2696,-1.1329,-1.1958,-1.2618,-1.2857,-1.361,-1.3307,-1.1408,-1.1408,-1.0745,-0.9173,-0.9189,-0.9358,-0.962,-0.9579,-0.9579,-0.9579,-0.9579,-0.9579,-0.9579,-0.9579,-0.9579,-0.9579,-0.9579,-0.9579,-0.9529,-0.8832,-0.8482,-0.8333,-0.7637,-0.6839,-0.6142,-0.6242,-0.6639,-0.7089,-0.6389,-0.6589,-0.7338,-0.8134,-0.8382,-0.8432,-0.8482,-0.8482,-0.8084,-0.6589,-0.6092,-0.5839,-0.5035,-0.4784,-0.4784,-0.4784,-0.4784,-0.4784,0.0,-0.4784,-0.4784,-0.4784,-0.4784,-0.4784,-0.4784,-0.4784,-0.4784,-0.4784,-0.4784,-0.4863,-0.4945,-0.4965,-0.5032,-0.5142,-0.5143,-0.5096,-0.5106,-0.5448,-0.5333,-0.457,-0.4742,-0.406,-0.2282,-0.1893,-0.1281,-0.0223,-0.0056,0.0,0.0,0.0,0.0,0.0,0.0,0.0,0.0,0.0,0.0,0.0,0.0,0.0,0.0,0.0279,0.0335,0.039,0.0669,0.0781,0.0778,0.0484,0.0532,0.0798,0.0,0.0,0.0,0.0,0.0,0.0,0.0,0.0,0.0,-0.9831,-1.0796,-1.1327,-1.0866,-1.1179,-1.1512,-1.1679,-1.2589,-1.2361,-1.0582,-1.1499,-1.1166,-0.9013,-0.9433,-0.9655,-0.951,-0.947,-0.9518,-0.9579,-0.9579,-0.9579,-0.9579,-0.9579,-0.9579,-0.9579,-0.9579,-0.9327,-0.8882,-0.8531,-0.7836,-0.6989,-0.6639,-0.6039,-0.5288,-0.5288,-0.5486,-0.5734,-0.5436,-0.5536,0.0,-0.6736,-0.6989,-0.7089,-0.7537,-0.7686,-0.7484,-0.6339,-0.5992,-0.5839,-0.5035,-0.4784,-0.4784,-0.4784,-0.4784,-0.4784,-0.4784,-0.4784,-0.4784,-0.4784,-0.4784,-0.4784,-0.4784,-0.4784,-0.4784,-0.4784,-0.4879,-0.4928,-0.4967,-0.5063,-0.5159,-0.518,-0.5259,-0.5267,-0.5267,-0.4799,-0.4484,-0.4431,-0.329,-0.2351,-0.1847,-0.112,-0.0504,0.0,0.0,0.0,0.0,0.0,0.0,0.0,0.0,0.0,0.0,0.0168,0.0336,0.0505,0.0505,0.0505,0.0505,0.0617,0.0673,0.0729,0.0841,0.1009,0.1118,0.0819,0.0758,0.0918,0.0,0.0,0.0,0.0,0.0,0.0,0.0,0.0,0.0,0.0,-0.9495,-1.0123,-1.0197,-1.0258,-1.0312,-1.0548,-1.1436,-1.1383,-0.9928,-1.1139,-1.097,-0.8902,-0.9444,-0.9646,-0.9322,-0.9331,-0.9348,-0.9482,-0.9482,-0.9482,-0.9482,-0.9531,-0.9404,-0.9208,-0.9258,-0.8829,-0.8035,-0.7832,-0.7089,-0.5992,-0.5741,-0.5338,-0.4784,-0.4784,-0.4784,-0.4784,-0.4784,-0.4784,-0.4935,-0.5739,-0.5992,-0.6092,-0.6689,-0.6889,-0.6689,-0.5889,-0.5689,-0.5539,-0.4935,-0.4784,-0.4784,-0.4784,-0.4784,-0.4784,-0.4784,-0.4784,-0.4784,-0.4784,-0.4784,-0.4784,-0.4784,-0.4784,-0.4792,-0.4869,-0.4928,-0.499,-0.5041,-0.4836,-0.4704,-0.4781,-0.4838,-0.4761,-0.4426,-0.3918,-0.3694,-0.3863,-0.2017,-0.1009,-0.1176,-0.0392,0.0056,0.0,0.0056,0.0112,0.0112,0.0056,0.0056,0.0224,0.0168,0.0168,0.028,0.0449,0.0673,0.0897,0.0897,0.0897,0.0897,0.0953,0.1009,0.1009,0.1121,0.129,0.14,0.1217,0.1156,0.1154,0.0,0.0,0.0,0.0,0.0,0.0,0.0,0.0,0.0,0.0,0.0,0.0,0.0,-0.8809,-0.9007,-0.9421,-1.0328,-1.0509,-0.9746,-0.9761,-0.9479,-0.8849,-0.882,-0.8909,-0.91,-0.9104,-0.9108,-0.9116,-0.9116,-0.9116,-0.9116,-0.9331,-0.8975,-0.8256,-0.8364,-0.7985,-0.7188,-0.6389,-0.6042,-0.5942,-0.5135,-0.4834,-0.4784,-0.4784,-0.4784,-0.4784,-0.4784,-0.4784,-0.4935,-0.5739,-0.5992,-0.5992,-0.6042,-0.6042,-0.5892,-0.5085,-0.4834,-0.4834,-0.4784,-0.4784,-0.4784,-0.4784,-0.4784,-0.4784,-0.4784,-0.4784,-0.4784,-0.4784,-0.4784,-0.4784,-0.4784,-0.4784,-0.4863,-0.4953,-0.5021,-0.5035,-0.5156,-0.4198,-0.3511,-0.3627,-0.3635,-0.3189,-0.2015,-0.291,-0.3245,-0.2352,-0.1401,-0.0561,0.028,0.0393,0.028,0.0,0.0224,0.0393,0.0393,0.0112,0.028,0.0841,0.0561,0.0561,0.0897,0.0897,0.0897,0.0897,0.0897,0.0897,0.0897,0.1177,0.129,0.1346,0.1627,0.1795,0.1795,0.1794,0.1793,0.1793,0.0,0.0,0.0,0.0,0.0,0.0,0.0,0.0,0.0,0.0,0.0,0.0,0.0,0.0,0.0,0.0,-0.8857,-0.9145,-0.8421,-0.9219,-0.9314,-0.8506,-0.8589,-0.8735,-0.8909,-0.8913,-0.8736,-0.838,-0.838,-0.8146,-0.7728,-0.7776,-0.7658,-0.7421,-0.7474,-0.7014,-0.6248,-0.5962,-0.5569,-0.5096,-0.4849,-0.4783,-0.4784,-0.4784,-0.4784,-0.4784,0.0,-0.4784,-0.4834,-0.5135,-0.5188,-0.5188,-0.5188,-0.5188,-0.5135,-0.4885,-0.4784,-0.4784,-0.4784,-0.4784,-0.4784,-0.4784,-0.4784,-0.4784,-0.4784,-0.4784,-0.4784,-0.4784,-0.4784,-0.4784,-0.4784,-0.4784,-0.456,-0.3924,-0.4499,-0.4837,-0.4188,-0.3746,-0.3557,-0.3578,-0.291,-0.2239,-0.1847,-0.2183,-0.2015,-0.1065,-0.0056,0.062,0.0741,0.0741,0.0688,0.0637,0.0754,0.0695,0.0464,0.0573,0.057,0.057,0.0676,0.0897,0.1177,0.1177,0.129,0.1514,0.1514,0.1514,0.1514,0.157,0.1627,0.1627,0.1739,0.1795,0.1795,0.1795,0.1795,0.1795,0.0,0.0,0.0,0.0,0.0,0.0,0.0,0.0,0.0,0.0,0.0,0.0,0.0,0.0,0.0,0.0,0.0,-0.7106,-0.6845,-0.7641,-0.7939,-0.7551,-0.7673,-0.7811,-0.7912,-0.7927,-0.7779,-0.7421,-0.7421,-0.7191,-0.678,-0.6879,-0.6758,-0.6479,-0.6526,-0.6125,-0.5374,-0.5374,-0.5081,-0.4663,-0.4696,-0.4741,-0.4742,-0.4772,-0.4784,0.0,-0.4784,-0.4784,-0.4784,-0.4784,-0.4784,-0.4784,-0.4784,-0.4784,-0.4784,-0.4784,-0.4784,-0.4784,-0.4784,-0.4784,-0.4784,-0.4784,-0.4784,-0.4784,-0.4784,-0.4784,-0.4784,-0.4784,-0.4784,-0.4784,-0.4784,-0.4784,-0.462,-0.3958,-0.4541,-0.4719,-0.3675,-0.3223,-0.2797,-0.2351,-0.1623,-0.1008,-0.056,-0.0901,-0.0904,-0.0283,0.0735,0.1254,0.1101,0.1102,0.1049,0.1001,0.1119,0.106,0.0825,0.0875,0.0867,0.0747,0.1081,0.1297,0.1458,0.1458,0.157,0.1795,0.1795,0.1795,0.1795,0.1795,0.1795,0.1795,0.1795,0.1795,0.1795,0.1795,0.1795,0.1795,0.0,0.0,0.0,0.0,0.0,0.0,0.0,0.0,0.0,0.0,0.0,0.0,0.0,0.0,0.0,0.0,0.0,0.0,-0.5239,-0.5293,-0.5592,-0.6172,-0.6271,-0.6303,-0.6313,-0.6352,-0.6378,-0.634,-0.634,-0.634,-0.6299,-0.6475,-0.6165,-0.5433,-0.5637,-0.531,-0.4606,-0.4606,-0.4608,-0.4573,-0.4665,-0.4704,-0.4718,-0.4752,-0.4784,-0.4784,-0.4784,-0.4784,-0.4784,-0.4784,-0.4784,-0.4784,-0.4784,-0.4784,-0.4784,-0.4784,-0.4784,-0.4784,-0.4784,-0.4784,-0.4784,-0.4784,-0.4784,-0.4784,-0.4784,-0.4784,-0.4784,-0.4784,-0.4784,-0.4784,-0.4784,-0.4734,-0.4739,-0.4913,-0.4945,-0.4575,-0.3559,-0.2405,-0.1288,-0.0112,0.0056,0.0561,0.1685,0.074,0.0115,0.0115,0.0921,0.145,0.1415,0.1416,0.1298,0.1063,0.1299,0.1417,0.1417,0.112,0.1168,0.1436,0.1665,0.1823,0.1795,0.1795,0.1795,0.1795,0.1795,0.1795,0.1795,0.1795,0.1795,0.1795,0.1795,0.1795,0.1795,0.1795,0.1795,0.1795,0.0,0.0,0.0,0.0,0.0,0.0,0.0,0.0,0.0,0.0,0.0,0.0,0.0,0.0,0.0,0.0,0.0,0.0,-0.4844,-0.5411,-0.5802,-0.5959,-0.6128,-0.6249,-0.6309,-0.6304,-0.6113,-0.5636,-0.5636,-0.5366,-0.4832,-0.4905,-0.4782,-0.4602,-0.4673,-0.4548,-0.4369,-0.4369,-0.4408,-0.4479,-0.4569,-0.4649,-0.4718,-0.4752,-0.4784,-0.4784,-0.4784,-0.4784,-0.4784,-0.4784,-0.4784,-0.4784,-0.4784,-0.4784,-0.4784,-0.4784,-0.4784,-0.4784,-0.4784,-0.4784,-0.4784,-0.4784,-0.4784,-0.4784,-0.4784,-0.4784,-0.4784,-0.4784,-0.4784,-0.4784,-0.4784,-0.413,-0.3348,-0.2595,-0.2529,-0.2196,-0.1096,-0.0667,-0.0336,-0.0056,0.0794,0.1485,0.1772,0.1566,0.1412,0.1428,0.1651,0.177,0.1798,0.18,0.1749,0.1769,0.1831,0.1709,0.1465,0.1371,0.1452,0.1693,0.175,0.1803,0.1795,0.1795,0.1795,0.1795,0.1795,0.1795,0.1795,0.1795,0.1795,0.1795,0.1795,0.1795,0.1795,0.1795,0.1795,0.1795,0.0,0.0,0.0,0.0,0.0,0.0,0.0,0.0,0.0,0.0,0.0,0.0,0.0,0.0,0.0,0.0,0.0,0.0,0.0,-0.408,-0.447,-0.4671,-0.5019,-0.519,-0.5257,-0.5318,-0.5165,-0.4793,-0.4882,-0.4681,-0.4244,-0.4281,-0.4074,-0.3673,-0.3673,-0.3448,-0.3042,-0.3042,-0.3064,0.0,0.0,-0.3975,-0.4076,-0.4587,-0.4784,-0.4784,-0.4784,-0.4784,-0.4784,-0.4784,-0.4784,-0.4784,-0.4784,-0.4784,-0.4784,-0.4784,-0.4784,-0.4784,-0.4784,-0.4784,-0.4784,-0.4784,-0.4784,-0.4784,-0.4784,-0.4784,-0.4784,-0.4784,-0.4784,-0.4784,-0.4784,-0.3927,-0.304,-0.2477,-0.1996,-0.1284,-0.0163,0.0,0.0224,0.0729,0.1366,0.1783,0.1783,0.188,0.1913,0.193,0.1915,0.1919,0.1949,0.1951,0.1959,0.1976,0.1977,0.1908,0.1651,0.1611,0.1687,0.1814,0.1814,0.1808,0.1795,0.1795,0.1795,0.1795,0.1795,0.1795,0.1795,0.1795,0.1795,0.1795,0.1795,0.1795,0.1795,0.1795,0.1795,0.1795,0.0,0.0,0.0,0.0,0.0,0.0,0.0,0.0,0.0,0.0,0.0,0.0,0.0,0.0,0.0,0.0,0.0,0.0,0.0,0.0,-0.2746,-0.3102,-0.3601,-0.3887,-0.3899,-0.4055,-0.411,-0.4012,-0.4208,-0.4206,-0.4017,-0.4088,-0.3626,-0.2688,-0.2688,-0.2238,-0.1387,-0.1387,-0.1387,-0.1482,-0.2612,-0.3083,-0.3245,0.0,-0.4774,-0.4784,-0.4784,-0.4784,-0.4784,-0.4784,-0.4784,-0.4784,-0.4784,-0.4784,-0.4784,-0.4784,-0.4784,-0.4784,-0.4784,-0.4784,-0.4784,-0.4784,-0.4784,-0.4784,-0.4784,-0.4784,-0.4784,-0.4784,-0.4784,-0.4784,-0.4784,-0.3927,-0.3191,-0.314,-0.2204,-0.1069,0.0054,0.0222,0.0617,0.1683,0.1822,0.1783,0.1783,0.1836,0.1871,0.1871,0.1871,0.1945,0.1975,0.1977,0.1975,0.1971,0.1967,0.195,0.186,0.1893,0.1864,0.1777,0.1777,0.1821,0.1795,0.1795,0.1795,0.1795,0.1795,0.1795,0.1795,0.1795,0.1795,0.1795,0.1795,0.1795,0.1795,0.1795,0.1795,0.1795,0.0,0.0,0.0,0.0,0.0,0.0,0.0,0.0,0.0,0.0,-0.2235,-0.3015,0.0,0.0,0.0,0.0,0.0,0.0,0.0,0.0,0.0,-0.3102,-0.3544,-0.3861,-0.3897,-0.393,-0.4014,-0.4148,-0.4181,-0.3827,-0.312,-0.313,-0.2597,-0.1656,-0.1656,-0.1566,-0.1387,-0.1387,-0.1387,-0.148,-0.2575,-0.3048,-0.3241,-0.4296,0.0,0.0,-0.4784,-0.4784,-0.4784,-0.4784,-0.4784,-0.4784,-0.4784,-0.4784,-0.4784,-0.4784,-0.4784,-0.4784,-0.4784,-0.4784,-0.4784,-0.4784,-0.4784,-0.4784,-0.4784,-0.4784,-0.4784,-0.4784,-0.4784,-0.4784,-0.4784,-0.3927,-0.2925,-0.2075,-0.0938,0.016,0.123,0.143,0.157,0.1795,0.1822,0.1783,0.1783,0.1836,0.1871,0.1871,0.1871,0.1945,0.1975,0.1977,0.1965,0.194,0.1915,0.1887,0.1798,0.1793,0.1833,0.1803,0.1803,0.18,0.1795,0.1795,0.1795,0.1795,0.1795,0.1795,0.1795,0.1795,0.1795,0.1795,0.1795,0.1795,0.1795,0.1795,0.1795,0.1795,0.0,0.0,0.0,0.0,0.0,0.0,0.0,-0.1296,-0.1296,-0.1296,-0.1649,-0.2041,-0.2468,-0.2118,-0.1884,0.0,0.0,0.0,0.0,0.0,0.0,0.0,0.0,0.0,-0.3828,-0.3875,-0.392,-0.4002,0.0,-0.3689,-0.2731,-0.2838,-0.2105,-0.0672,-0.0672,-0.0403,0.0045,0.0045,0.0045,-0.009,-0.1649,-0.1963,-0.1762,0.0,0.0,0.0,-0.4784,-0.4784,-0.4784,-0.4784,-0.4784,-0.4784,-0.4784,-0.4784,-0.4784,-0.4784,-0.4784,-0.4784,-0.4784,-0.4784,-0.4784,-0.4784,-0.4784,-0.4784,-0.4784,-0.4784,-0.4784,-0.4784,-0.4784,-0.4784,-0.4784,-0.3927,-0.3022,-0.2519,-0.1031,0.0263,0.0798,0.1416,0.1777,0.1793,0.1822,0.1783,0.1783,0.1881,0.1907,0.1907,0.1907,0.1921,0.1952,0.1938,0.1923,0.1908,0.1878,0.1855,0.1783,0.1825,0.1809,0.1795,0.1795,0.1795,0.1795,0.1795,0.1795,0.1795,0.1795,0.1795,0.1795,0.1795,0.1795,0.1795,0.1795,0.1795,0.1795,0.1795,0.1795,0.1795,0.0,0.0,0.0,0.0,0.0,0.0,0.0,-0.1296,-0.1296,-0.1296,-0.1296,-0.1296,-0.1296,-0.1296,-0.1296,0.0,0.0,0.0,0.0,0.0,0.0,0.0,0.0,0.0,0.0,0.0,0.0,-0.3553,-0.3756,0.0,0.0,0.0,0.0,0.0,0.0314,0.0718,0.1391,0.1391,0.1391,0.0,0.0,-0.0791,0.0,0.0,0.0,0.0,0.0,-0.4784,-0.4784,-0.4784,-0.4784,-0.4784,-0.4784,-0.4784,-0.4784,-0.4784,-0.4784,-0.4784,-0.4784,-0.4784,-0.4784,-0.4784,-0.4784,-0.4784,-0.4784,-0.4784,-0.4784,-0.4784,-0.4784,-0.4784,-0.4784,-0.413,-0.3374,-0.2922,-0.1637,-0.0417,0.0319,0.1027,0.1541,0.1791,0.1816,0.1773,0.1773,0.1858,0.1876,0.1876,0.1876,0.1889,0.1919,0.1893,0.1876,0.1876,0.1847,0.1773,0.1773,0.1807,0.1795,0.1795,0.1795,0.1795,0.1795,0.1795,0.1795,0.1795,0.1795,0.1795,0.1795,0.1795,0.1795,0.1795,0.1795,0.1795,0.1795,0.1795,0.1795,0.1795,0.0,0.0,0.0,0.0,0.0,0.0,0.0,-0.1296,-0.1296,-0.1296,-0.1296,-0.1296,-0.1296,-0.1296,-0.1296,0.0,0.0,0.0,0.0,0.0,0.0,0.0,0.0,0.0,0.0,0.0,0.0,-0.2707,-0.2725,0.0,0.0,0.0,0.0,0.0,0.0,0.13,0.1391,0.1391,0.0,0.0,0.0,0.0,0.0,0.0,0.0,0.0,0.0,-0.4784,-0.4784,-0.4784,-0.4784,-0.4784,-0.4784,-0.4784,-0.4784,-0.4784,-0.4784,-0.4784,-0.4784,-0.4784,-0.4784,-0.4784,-0.4784,-0.4784,-0.4784,-0.4784,-0.4784,-0.4784,-0.4784,-0.4784,-0.4784,-0.4734,-0.4029,-0.2066,-0.2405,-0.1876,0.1115,0.0811,0.066,0.1679,0.1797,0.1799,0.1799,0.1827,0.1787,0.1787,0.1787,0.1857,0.1888,0.1861,0.1787,0.1787,0.1814,0.1799,0.1799,0.1796,0.1795,0.1795,0.1795,0.1795,0.1795,0.1795,0.1795,0.1795,0.1795,0.1795,0.1795,0.1795,0.1795,0.1795,0.1795,0.1795,0.1795,0.1795,0.1795,0.1795,0.0,0.0,0.0,0.0,0.0,0.0,-0.1296,-0.1296,-0.1296,-0.1296,-0.1296,-0.1296,-0.1296,-0.1296,-0.1296,-0.1296,0.0,0.0,0.0,0.0,0.0,0.0,0.0,0.0,0.0,0.0,-0.2125,-0.1827,-0.1853,0.0,0.0,0.0,0.0,0.0,0.0,0.1391,0.1391,0.1391,0.0,0.0,0.0,0.0,0.0,0.0,0.0,0.0,0.0,0.0,-0.4784,-0.4784,-0.4784,-0.4784,-0.4784,-0.4784,-0.4784,-0.4784,-0.4784,-0.4784,-0.4784,-0.4784,-0.4784,-0.4784,-0.4784,-0.4784,-0.4784,-0.4784,-0.4784,-0.4784,-0.428,-0.3827,-0.3827,-0.3324,-0.2569,-0.1714,-0.142,-0.0823,0.053,0.091,0.1251,0.1733,0.1795,0.1795,0.1795,0.1806,0.1813,0.1813,0.1813,0.1819,0.1831,0.182,0.1813,0.1813,0.1802,0.1795,0.1795,0.1795,0.1795,0.1795,0.1795,0.1795,0.1795,0.1795,0.1795,0.1795,0.1795,0.1795,0.1795,0.1795,0.1795,0.1795,0.1795,0.1795,0.1795,0.1795,0.1795,0.1795,0.0,0.0,0.0,0.0,0.0,-0.1296,-0.1296,-0.1296,-0.1296,-0.1296,-0.1296,-0.1296,-0.1296,-0.1296,-0.1335,-0.1452,-0.1492,0.0,0.0,0.0,0.0,0.0,0.0,0.0,0.0,0.0,-0.1175,-0.0901,-0.0956,-0.049,0.0,0.0,0.0742,0.1391,0.0,0.0,0.0,0.0,0.0,0.0,0.0,0.0,0.0,0.0,0.0,0.0,0.0,0.0,0.0,0.0,0.0,-0.4784,-0.4784,-0.4784,-0.4784,-0.4784,-0.4784,-0.4784,-0.4784,-0.4784,-0.4784,-0.4784,-0.4784,-0.4784,-0.4784,-0.4784,-0.4784,-0.4784,-0.3927,-0.3224,-0.3224,-0.2318,-0.1513,-0.1159,-0.0756,-0.0204,0.0477,0.0958,0.1349,0.1731,0.1795,0.1795,0.1795,0.1795,0.1795,0.1795,0.1795,0.1795,0.1795,0.1795,0.1795,0.1795,0.1795,0.1795,0.1795,0.1795,0.1795,0.1795,0.1795,0.1795,0.1795,0.1795,0.1795,0.1795,0.1795,0.1795,0.1795,0.1795,0.1795,0.1795,0.1795,0.1795,0.1795,0.1795,0.1795,0.1795,0.0,0.0,0.0,0.0,0.0,0.0,-0.1296,-0.1296,-0.1296,-0.1296,-0.1296,-0.1296,-0.1296,-0.1296,-0.1452,-0.1843,-0.1882,0.0,0.0,0.0,0.0,0.0,0.0,0.0,0.0,0.0,-0.0862,0.0,0.0,0.0442,0.1305,0.1306,0.1337,0.1391,0.0,0.0,0.0,0.0,0.0,0.0,0.0,0.0,0.0,0.0,0.0,0.0,0.0,0.0,0.0,0.0,0.0,0.0,0.0,-0.4784,-0.4784,-0.4784,-0.4784,-0.4784,-0.4784,-0.4784,-0.4784,-0.4784,-0.4784,-0.4784,-0.4784,-0.4784,-0.4784,-0.4784,-0.3927,-0.3224,-0.3224,-0.2318,-0.126,-0.0202,-0.0907,-0.0817,0.1377,0.0799,0.0539,0.1676,0.1795,0.1795,0.1795,0.1795,0.1795,0.1795,0.1795,0.1795,0.1795,0.1795,0.1795,0.1795,0.1795,0.1795,0.1795,0.1795,0.1795,0.1795,0.1795,0.1795,0.1795,0.1795,0.1795,0.1795,0.1795,0.1795,0.1795,0.1795,0.1795,0.1795,0.1795,0.1795,0.1795,0.1795,0.1795,0.1795,0.0,0.0,0.0,0.0,0.0,0.0,0.0,-0.1296,-0.1296,-0.1296,-0.1296,-0.1296,-0.1296,-0.1531,-0.1648,-0.1492,-0.1726,0.0,0.0,0.0,0.0,0.0,0.0,0.0,0.0,0.0,0.0628,0.0903,0.0903,0.1046,0.1305,0.1305,0.1336,0.1391,0.1391,0.1391,0.0,0.0,0.0,0.0,0.0,0.0,0.0909,0.0,0.0,0.0,0.0,0.0,0.0,0.0,0.0,0.0,0.0,0.0,0.0,-0.4784,-0.4784,-0.4784,-0.4784,-0.4784,-0.4784,-0.4784,-0.4784,-0.4784,-0.4784,-0.423,-0.3726,-0.3726,-0.2266,-0.1007,-0.1007,-0.0151,0.0707,0.106,0.0808,0.0869,0.159,0.1385,0.1349,0.1731,0.1795,0.1795,0.1795,0.1795,0.1795,0.1795,0.1795,0.1795,0.1795,0.1795,0.1795,0.1795,0.1795,0.1795,0.1795,0.1795,0.1795,0.1795,0.1795,0.1795,0.1795,0.1795,0.1795,0.1795,0.1795,0.1795,0.1795,0.1795,0.1795,0.1795,0.1795,0.1795,0.1795,0.1795,0.1795,0.1795,0.0,0.0,0.0,0.0,0.0,0.0,0.0,-0.1296,-0.1296,-0.1296,-0.1414,-0.1531,-0.1531,-0.1529,-0.149,-0.1413,-0.1333,0.0,0.0,0.0,0.0,0.0,0.0,0.0,0.051,0.1021,0.1296,0.1296,0.1308,0.1299,0.1306,0.1316,0.1346,0.1391,0.1391,0.1391,0.0,0.0,0.0,0.0,0.0,0.0,0.1451,0.0,0.0,0.0,0.0,0.0,0.0,0.0,0.0,0.0,0.0,0.0,0.0,0.0,-0.4784,-0.4784,-0.4784,-0.4784,-0.4784,-0.4784,-0.4784,-0.4684,-0.428,-0.3676,-0.3073,-0.267,-0.1209,0.0,0.0,0.0858,0.1617,0.1617,0.1617,0.1637,0.1696,0.1704,0.1727,0.1788,0.1795,0.1795,0.1795,0.1795,0.1795,0.1795,0.1795,0.1795,0.1795,0.1795,0.1795,0.1795,0.1795,0.1795,0.1795,0.1795,0.1795,0.1795,0.1795,0.1795,0.1795,0.1795,0.1795,0.1795,0.1795,0.1795,0.0,0.1795,0.1795,0.1795,0.1795,0.1795,0.1795,0.1795,0.1795,0.1795,0.0,0.0,0.0,0.0,0.0,0.0,0.0,-0.1296,-0.1296,-0.1335,-0.1648,-0.1882,-0.1882,-0.1293,-0.1058,-0.1489,0.0,0.0,0.0,0.0,0.0,0.0,0.0,0.0,0.1296,0.1296,0.1298,0.13,0.1288,0.1319,0.1309,0.1378,0.1406,0.1391,0.1391,0.1391,0.1391,0.1391,0.1453,0.1483,0.1514,0.1544,0.0,0.0,0.0,0.0,0.0,0.0,0.0,0.0,0.0,0.0,0.0,0.0,0.0,0.0,0.0,0.0,0.0,-0.4684,-0.4684,-0.4582,-0.4582,-0.4331,-0.3324,-0.3022,0.0,-0.1714,-0.0655,0.0101,0.0101,0.0908,0.1617,0.1617,0.1617,0.1637,0.1696,0.1708,0.1732,0.1789,0.1795,0.1795,0.1795,0.1795,0.1795,0.1795,0.1795,0.1795,0.1795,0.1795,0.1795,0.1795,0.1795,0.1795,0.1795,0.1795,0.1795,0.1795,0.1795,0.1795,0.1795,0.1795,0.1795,0.1795,0.1795,0.1795,0.1795,0.1795,0.1795,0.1795,0.1795,0.1795,0.1795,0.1795,0.1795,0.1795,0.0,0.0,0.0,0.0,0.0,0.0,0.0,0.0,0.0,0.0,-0.1569,-0.157,-0.1882,-0.1293,-0.0902,0.0,0.0,0.0,0.0,0.0,0.0,0.0,0.0,0.0,0.1296,0.1296,0.1308,0.1292,0.1299,0.1329,0.138,0.1386,0.1406,0.1391,0.1391,0.1391,0.1391,0.1391,0.1453,0.1483,0.1514,0.1544,0.0,0.0,0.0,0.0,0.1313,0.0706,0.0,0.0,0.0,0.0,0.0,0.0,0.0,0.0,-0.4784,-0.4634,-0.3776,0.0,-0.3374,-0.2569,-0.2368,-0.2267,0.0,-0.136,-0.0705,-0.0403,0.0454,0.1212,0.1212,0.1414,0.1617,0.1617,0.1617,0.1637,0.1696,0.1744,0.1779,0.1793,0.1795,0.1795,0.1795,0.1795,0.1795,0.1795,0.1795,0.1795,0.1795,0.1795,0.1795,0.1795,0.1795,0.1795,0.1795,0.1795,0.1795,0.1795,0.1795,0.1795,0.1795,0.1795,0.1795,0.1795,0.1795,0.1795,0.1795,0.1795,0.1795,0.1795,0.1795,0.1795,0.1795,0.1795,0.1795,0.1795,0.0,0.0,0.0,0.0,0.0,0.0,0.0,0.0,0.0,0.0,0.0,0.0,0.0,0.0,0.0,0.0,0.0,0.0,0.0,0.0,0.0,0.0,0.0,0.1296,0.1296,0.131,0.1286,0.1303,0.1329,0.1358,0.1391,0.1404,0.142,0.1391,0.1391,0.1391,0.1391,0.1451,0.1474,0.1504,0.1535,0.0,0.0,0.0,0.0,0.0,0.1465,0.1111,0.0,0.0151,-0.0756,-0.1813,0.0,0.0,0.0,0.0,-0.3324,-0.3123,-0.2015,-0.2468,-0.2922,-0.1865,-0.1613,-0.1462,-0.0958,-0.0403,0.0151,0.0656,0.1212,0.1617,0.1617,0.1617,0.1617,0.1617,0.1628,0.1658,0.1717,0.1765,0.1795,0.1795,0.1795,0.1795,0.1795,0.1795,0.1795,0.1795,0.1795,0.1795,0.1795,0.1795,0.1795,0.1795,0.1795,0.1795,0.1795,0.1795,0.1795,0.1795,0.1795,0.1795,0.1795,0.1795,0.1795,0.1795,0.1795,0.1795,0.1795,0.1795,0.1795,0.1795,0.1795,0.1795,0.1795,0.1795,0.1795,0.1795,0.0,0.0,0.0,0.0,0.0,0.0,0.0,0.0,0.0,0.0,0.0,0.0,0.0,0.0,0.0,0.0,0.0,0.0,0.0,0.0,0.0,0.0,0.1306,0.1304,0.1304,0.1294,0.1311,0.1316,0.1365,0.1393,0.1397,0.1379,0.1391,0.1391,0.1391,0.1393,0.1399,0.147,0.1501,0.1535,0.1561,0.0,0.0,0.0,0.0,0.0,0.0,0.0,0.0,0.0555,0.0151,-0.0151,-0.1058,0.0,0.0,0.0,0.0,0.0,-0.0302,-0.1309,-0.2468,-0.1361,-0.1109,-0.0857,0.005,0.0252,0.0504,0.1414,0.1617,0.1617,0.1617,0.1617,0.1617,0.1617,0.1646,0.174,0.1797,0.1776,0.1795,0.1795,0.1795,0.1795,0.1795,0.1795,0.1795,0.1795,0.1795,0.1795,0.1795,0.1795,0.1795,0.1795,0.1795,0.1795,0.1795,0.1795,0.1795,0.1795,0.1795,0.1795,0.1795,0.1795,0.1795,0.1795,0.1795,0.1795,0.1795,0.1795,0.1795,0.1795,0.1795,0.1795,0.1795,0.1795,0.1795,0.1795,0.0,0.0,0.0,0.0,0.0,0.0,0.0,0.0,0.0,0.0,0.0,0.0,0.0,0.0,0.0,0.0,0.0,0.0,0.0,0.0,0.0,0.1665,0.1431,0.1296,0.1296,0.1284,0.131,0.1377,0.1385,0.1403,0.1383,0.1388,0.1391,0.1391,0.1391,0.145,0.1474,0.1478,0.1513,0.1565,0.1619,0.0,0.0,0.0,0.0,0.0,0.0,0.0,0.0,0.1414,0.0757,-0.005,-0.0202,0.0,0.0,0.0,0.0,0.0,-0.0302,-0.0252,-0.0252,0.0858,0.1111,0.1161,0.1313,0.1364,0.1414,0.1566,0.1617,0.1617,0.1617,0.1617,0.1617,0.1617,0.1662,0.171,0.1799,0.1776,0.1795,0.1795,0.1795,0.1795,0.1795,0.1795,0.1795,0.1795,0.1795,0.1795,0.1795,0.1795,0.1795,0.1795,0.1795,0.1795,0.1795,0.1795,0.1795,0.1795,0.1795,0.1795,0.1795,0.1795,0.1795,0.1795,0.1795,0.1795,0.1795,0.1795,0.1795,0.1795,0.1795,0.1795,0.1795,0.1795,0.1795,0.1795,0.0,0.0,0.0,0.0,0.0,0.0,0.0,0.0,0.0,0.0,0.0,0.0,0.0,0.0,0.0,0.0,0.0,0.0,0.0,0.0,0.185,0.1934,0.1643,0.151,0.1533,0.1397,0.1377,0.139,0.1406,0.1422,0.1391,0.1391,0.1391,0.1391,0.1453,0.1468,0.1483,0.1516,0.1594,0.1622,0.0,0.0,0.0,0.0,0.0,0.0,0.0,0.0,0.0,0.0,0.1262,0.0858,0.0858,0.0,0.0,0.0,0.0,0.0,0.0706,0.0858,0.0959,0.1465,0.1617,0.1617,0.1617,0.1617,0.1617,0.1617,0.1617,0.1617,0.1617,0.1617,0.1627,0.1658,0.1686,0.172,0.1767,0.1787,0.1795,0.1795,0.1795,0.1795,0.1795,0.1795,0.1795,0.1795,0.1795,0.1795,0.1795,0.1795,0.1795,0.1795,0.1795,0.1795,0.1795,0.1795,0.1795,0.1795,0.1795,0.1795,0.1795,0.1795,0.1795,0.1795,0.1795,0.1795,0.1795,0.1795,0.1795,0.1795,0.1795,0.1795,0.1795,0.1795,0.1795,0.1795,0.0,0.0,0.0,0.0,0.0,0.0,0.0,0.0,0.0,0.0,0.0,0.0,0.0,0.0,0.0,0.0,0.0,0.0,0.0,0.0,0.1921,0.2135,0.1822,0.1646,0.1738,0.1515,0.14,0.14,0.1379,0.1391,0.1391,0.1397,0.1401,0.1447,0.1478,0.1495,0.1505,0.16,0.1576,0.1584,0.0,0.0,0.0,0.0,0.0,0.0,0.0,0.0,0.0,0.0,0.0,0.0,0.0,0.0,0.0,0.1617,0.1617,0.1617,0.1617,0.1617,0.1617,0.1617,0.1617,0.1617,0.1617,0.1617,0.1617,0.1617,0.1617,0.1617,0.1617,0.1617,0.1636,0.1695,0.1704,0.1725,0.1786,0.1795,0.1795,0.1795,0.1795,0.1795,0.1795,0.1795,0.1795,0.1795,0.1795,0.1795,0.1795,0.1795,0.1795,0.1795,0.1795,0.1791,0.1785,0.1791,0.1795,0.1795,0.1795,0.1795,0.1795,0.1795,0.1795,0.1795,0.1795,0.1795,0.1795,0.1795,0.1795,0.1795,0.1795,0.1795,0.1795,0.1795,0.1795,0.1795,0.0,0.0,0.0,0.0,0.0,0.0,0.0,0.0,0.0,0.0,0.0,0.0,0.0,0.0,0.0,0.0,0.0,0.0,0.0,0.0,0.2189,0.2189,0.1699,0.1551,0.1778,0.1549,0.1387,0.1387,0.1389,0.1391,0.1391,0.1464,0.1478,0.1478,0.1509,0.1538,0.1614,0.1619,0.1588,0.1613,0.1615,0.0,0.0,0.0,0.0,0.0,0.0,0.0,0.0,0.0,0.0,0.0,0.0,0.0,0.1617,0.1617,0.1617,0.1617,0.1617,0.1617,0.1617,0.1617,0.1617,0.1617,0.1617,0.1617,0.1617,0.1617,0.1617,0.1617,0.1617,0.1617,0.1636,0.1695,0.1704,0.1725,0.1786,0.1795,0.1795,0.1795,0.1795,0.1795,0.1795,0.1795,0.1795,0.1795,0.1795,0.1795,0.1795,0.1795,0.1795,0.1795,0.1795,0.1781,0.1808,0.1781,0.1795,0.1795,0.1795,0.1795,0.1795,0.1795,0.1795,0.1795,0.1795,0.1795,0.1795,0.1795,0.1795,0.1795,0.1795,0.1795,0.1795,0.1795,0.1795,0.1795,0.0,0.0,0.0,0.0,0.0,0.0,0.0,0.0,0.0,0.0,0.0,0.0,0.0,0.0,0.0,0.0,0.0,0.0,0.0,0.2189,0.2199,0.2199,0.1839,0.1698,0.1818,0.1519,0.1391,0.1391,0.1391,0.14,0.1464,0.1476,0.1491,0.151,0.154,0.1561,0.1622,0.1592,0.1607,0.1617,0.1617,0.1617,0.0,0.0,0.0,0.0,0.0,0.0,0.0,0.0,0.1617,0.1617,0.1617,0.1617,0.1617,0.1617,0.1617,0.1617,0.1617,0.1465,0.1415,0.1566,0.1465,0.1364,0.1364,0.1364,0.1111,0.0303,0.0757,0.1415,0.1566,0.1633,0.1658,0.1698,0.172,0.1747,0.1789,0.1795,0.1795,0.1795,0.1795,0.1795,0.1795,0.1795,0.1795,0.1795,0.1795,0.1795,0.1795,0.1777,0.1822,0.1822,0.1748,0.1733,0.1721,0.1752,0.1822,0.1822,0.1786,0.1795,0.1795,0.1795,0.1795,0.1795,0.1795,0.1795,0.1795,0.1795,0.1795,0.1795,0.1795,0.1795,0.1795,0.1795,0.1795,0.1795,0.0,0.0,0.0,0.0,0.0,0.0,0.0,0.0,0.0,0.0,0.0,0.0,0.0,0.0,0.0,0.0,0.0,0.0,0.2064,0.2064,0.2064,0.2064,0.1839,0.1665,0.1722,0.154,0.14,0.1391,0.14,0.1466,0.1495,0.1505,0.1521,0.1542,0.1572,0.1585,0.1587,0.1608,0.1617,0.1617,0.1617,0.1617,0.0,0.0,0.0,0.0,0.0,0.0,0.0,0.0,0.1617,0.1617,0.1617,0.1617,0.1617,0.1617,0.1617,0.1617,0.1617,0.1415,0.1263,0.1516,0.1415,0.1212,0.1212,0.1263,0.1061,0.0151,0.0353,0.0858,0.1465,0.1282,0.12,0.1646,0.173,0.1815,0.1791,0.1795,0.1795,0.1795,0.1795,0.1795,0.1795,0.1787,0.178,0.178,0.1772,0.1766,0.1766,0.1746,0.179,0.179,0.1715,0.17,0.1691,0.1784,0.1799,0.179,0.1776,0.1795,0.1795,0.1795,0.1795,0.1795,0.1795,0.1795,0.1795,0.1795,0.1795,0.1795,0.1795,0.1795,0.1795,0.1795,0.1795,0.1795,0.0,0.0,0.0,0.0,0.0,0.0,0.0,0.0,0.0,0.0,0.0,0.0,0.0,0.0,0.0,0.0,0.0,0.0,0.184,0.1795,0.1795,0.1795,0.1526,0.1451,0.148,0.1481,0.1466,0.1391,0.1466,0.1497,0.1479,0.1558,0.162,0.1622,0.1603,0.1617,0.1617,0.1617,0.1617,0.1617,0.1617,0.1617,0.1617,0.0,0.0,0.0,0.0,0.0,0.0,0.0,0.1617,0.1617,0.1617,0.1617,0.1617,0.1617,0.1617,0.1617,0.1617,0.1415,0.1263,0.1516,0.1415,0.1212,0.1212,0.1415,0.1617,0.1617,0.0555,0.0,0.1364,0.0512,0.0052,0.1487,0.173,0.1816,0.1791,0.1795,0.1795,0.1795,0.1795,0.1795,0.1795,0.1823,0.1804,0.1804,0.1721,0.1704,0.1704,0.1704,0.1704,0.1704,0.1703,0.169,0.1714,0.1773,0.1788,0.1705,0.1766,0.1795,0.1795,0.1795,0.1795,0.1795,0.1795,0.1795,0.1795,0.1795,0.1795,0.1795,0.1795,0.1795,0.1795,0.1795,0.1795,0.1795,0.0,0.0,0.0,0.0,0.0,0.0,0.0,0.0,0.0,0.0,0.0,0.0,0.0,0.0,0.0,0.0,0.0,0.0,0.1834,0.186,0.1781,0.1593,0.1499,0.1503,0.1513,0.1513,0.1508,0.1452,0.1508,0.1528,0.1558,0.1567,0.1583,0.1604,0.1613,0.1617,0.1617,0.1617,0.1617,0.1617,0.1617,0.1617,0.1617,0.0,0.0,0.0,0.0,0.0,0.0,0.0,0.0,0.0,0.1617,0.1617,0.1617,0.1617,0.1617,0.1566,0.1364,0.1263,0.1212,0.1313,0.1263,0.1263,0.1415,0.1263,0.1061,0.1061,0.0252,0.0,0.1439,0.1358,0.1222,0.1677,0.1762,0.1785,0.1793,0.1795,0.1795,0.1795,0.1795,0.1795,0.1795,0.1823,0.1804,0.1804,0.1721,0.1704,0.1704,0.1685,0.1675,0.1675,0.1654,0.1639,0.163,0.1688,0.1713,0.1705,0.1766,0.1795,0.1795,0.1795,0.1795,0.1795,0.1795,0.1795,0.1795,0.1795,0.1782,0.1821,0.1787,0.1795,0.1795,0.1795,0.1795,0.1795,0.0,0.0,0.0,0.0,0.0,0.0,0.0,0.0,0.0,0.0,0.0,0.0,0.0,0.0,0.0,0.0,0.0,0.0,0.0,0.18,0.1669,0.1526,0.1478,0.1722,0.2168,0.2185,0.2387,0.2824,0.2369,0.219,0.2232,0.2232,0.2246,0.222,0.1768,0.1617,0.1617,0.1617,0.1617,0.1617,0.1617,0.1617,0.1617,0.0,0.0,0.0,0.0,0.0,0.0,0.0,0.0,0.0,0.1617,0.1617,0.1617,0.1617,0.1617,0.1566,0.1415,0.1263,0.1212,0.1314,0.1263,0.1263,0.1415,0.1263,0.1111,0.1111,0.0303,0.0051,0.1449,0.1263,0.1124,0.169,0.1775,0.1795,0.1795,0.1795,0.1795,0.1795,0.1795,0.1795,0.1795,0.1757,0.1785,0.1785,0.1693,0.1669,0.1669,0.1654,0.1644,0.1644,0.1626,0.1617,0.1617,0.1675,0.1704,0.1705,0.1766,0.1795,0.1795,0.1795,0.1795,0.1795,0.1795,0.1788,0.1778,0.179,0.1777,0.1807,0.1783,0.1795,0.1795,0.1795,0.1795,0.1795,0.0,0.0,0.0,0.0,0.0,0.0,0.0,0.0,0.0,0.0,0.3097,0.0,0.0,0.0,0.0,0.0,0.0,0.0,0.0,0.0,0.1534,0.1534,0.1534,0.2028,0.3189,0.3195,0.3723,0.4824,0.3808,0.3367,0.3324,0.3324,0.3274,0.3173,0.217,0.1667,0.1617,0.1617,0.1617,0.1617,0.1617,0.1617,0.1617,0.1617,0.0,0.0,0.0,0.0,0.0,0.0,0.0,0.0,0.1617,0.1617,0.1617,0.1617,0.1617,0.1617,0.1566,0.1415,0.1313,0.1516,0.1415,0.1212,0.1212,0.1415,0.1617,0.1566,0.0605,0.0152,0.1449,0.0683,0.032,0.158,0.1773,0.1792,0.1795,0.1795,0.1795,0.1795,0.1795,0.1795,0.1795,0.174,0.1704,0.1704,0.165,0.1617,0.1617,0.1617,0.1617,0.1617,0.1617,0.1617,0.1617,0.1675,0.1704,0.1705,0.1766,0.1795,0.1795,0.1795,0.1795,0.1795,0.1795,0.1778,0.1807,0.1782,0.1777,0.1807,0.1783,0.1795,0.1795,0.1795,0.1795,0.1795,0.0,0.0,0.0,0.0,0.0,0.0,0.0,0.0,0.0,0.0,0.0,0.0,0.0,0.0,0.0,0.0,0.0,0.0,0.0,0.0,0.1897,0.1897,0.1697,0.2099,0.3154,0.3217,0.3723,0.4824,0.4556,0.4457,0.4474,0.4474,0.4024,0.3173,0.2973,0.2371,0.1617,0.1617,0.1617,0.1617,0.1617,0.1617,0.1617,0.1617,0.1617,0.0,0.0,0.0,0.0,0.0,0.0,0.0,0.1617,0.1617,0.1617,0.1617,0.1617,0.1566,0.1364,0.1415,0.1465,0.1314,0.1415,0.1516,0.1516,0.1566,0.1516,0.1314,0.1212,0.127,0.1656,0.1458,0.1371,0.1741,0.181,0.1823,0.1791,0.1795,0.1795,0.1795,0.1795,0.1795,0.1795,0.174,0.1704,0.1704,0.165,0.1617,0.1617,0.1617,0.1617,0.1617,0.1617,0.1617,0.1617,0.1675,0.1704,0.1705,0.1766,0.1795,0.1795,0.1795,0.1795,0.1795,0.1795,0.1778,0.1807,0.1782,0.1777,0.1807,0.1783,0.1795,0.1795,0.1795,0.1795,0.1795,0.0,0.0,0.0,0.0,0.0,0.0,0.0,0.0,0.0,0.0,0.0,0.0,0.0,0.0,0.0,0.0,0.0,0.0,0.0,0.0,0.1921,0.1819,0.217,0.2873,0.3924,0.4477,0.5279,0.6329,0.6329,0.6079,0.5579,0.5579,0.5279,0.4678,0.3676,0.2873,0.2321,0.1818,0.1617,0.1617,0.1617,0.1617,0.1617,0.1617,0.1617,0.1617,0.1617,0.0,0.0,0.0,0.0,0.0,0.0,0.0,0.1617,0.1617,0.1617,0.1566,0.1415,0.1516,0.1566,0.1415,0.1516,0.1617,0.1617,0.1617,0.1566,0.1415,0.1516,0.1626,0.1708,0.1714,0.1729,0.172,0.1728,0.1738,0.1769,0.1774,0.1778,0.1793,0.1795,0.1795,0.1795,0.174,0.1704,0.1704,0.165,0.1617,0.1617,0.1617,0.1617,0.1617,0.1617,0.1617,0.1617,0.1675,0.1704,0.1705,0.1766,0.1795,0.1795,0.1795,0.1795,0.1795,0.1795,0.1778,0.1807,0.1782,0.1777,0.1807,0.1783,0.1795,0.1795,0.1795,0.1795,0.1795,0.0,0.0,0.0,0.0,0.0,0.0,0.0,0.0,0.0,0.0,0.0,0.0,0.0,0.0,0.0,0.0,0.0,0.0,0.0,0.0,0.0,0.1969,0.2773,0.3825,0.5027,0.5932,0.6936,0.7988,0.7988,0.754,0.6686,0.6686,0.6587,0.6337,0.4327,0.3374,0.3123,0.207,0.1617,0.1617,0.1617,0.1617,0.1617,0.1617,0.1617,0.1617,0.1617,0.1617,0.1617,0.1617,0.0,0.0,0.0,0.0,0.1617,0.1617,0.1617,0.1617,0.1617,0.1617,0.1617,0.1617,0.1617,0.1617,0.1617,0.1617,0.1617,0.1617,0.1617,0.1624,0.165,0.1706,0.1664,0.1692,0.1697,0.1707,0.1792,0.1796,0.1806,0.1776,0.1784,0.1787,0.1787,0.1737,0.1704,0.1704,0.165,0.1617,0.1617,0.1617,0.1617,0.1617,0.1617,0.1617,0.1617,0.1675,0.1704,0.1705,0.1766,0.1795,0.1795,0.1795,0.1795,0.1795,0.1795,0.178,0.1814,0.1785,0.178,0.1815,0.1785,0.1795,0.1795,0.1795,0.1795,0.1795,0.0,0.0,0.0,0.0,0.0,0.0,0.0,0.0,0.0,0.0,0.318,0.0,0.0,0.0,0.0,0.0,0.0,0.0,0.0,0.0,0.0,0.3327,0.3478,0.4379,0.6134,0.6334,0.6936,0.7988,0.7988,0.7939,0.7789,0.7789,0.7288,0.6334,0.5127,0.4074,0.3123,0.207,0.1617,0.1617,0.1617,0.1617,0.1617,0.1617,0.1617,0.1617,0.1617,0.1617,0.1617,0.1617,0.1617,0.0,0.0,0.0,0.1617,0.1617,0.1617,0.1617,0.1617,0.1617,0.1617,0.1617,0.1617,0.1617,0.1617,0.1617,0.1617,0.1617,0.1617,0.1618,0.1622,0.1623,0.1633,0.1715,0.172,0.1677,0.1706,0.171,0.1712,0.1716,0.174,0.181,0.181,0.1725,0.1704,0.1704,0.165,0.1617,0.1617,0.1617,0.1617,0.1617,0.1617,0.1617,0.1617,0.1675,0.1704,0.1705,0.1766,0.1795,0.1795,0.1795,0.1795,0.1795,0.1795,0.1793,0.1789,0.1793,0.1793,0.1789,0.1793,0.1795,0.1795,0.1795,0.1795,0.1795,0.0,0.0,0.0,0.0,0.0,0.0,0.0,0.0,0.0,0.0,0.0,0.318,0.0,0.0,0.0,0.0,0.0,0.0,0.0,0.0,0.0,0.3376,0.4678,0.5732,0.6387,0.6989,0.7537,0.7988,0.7988,0.7988,0.7988,0.7988,0.7739,0.7235,0.5527,0.4524,0.3974,0.2321,0.1617,0.1617,0.1617,0.1617,0.1617,0.1617,0.1617,0.1617,0.1617,0.1617,0.1617,0.1617,0.1617,0.1617,0.1617,0.0,0.0,0.0,0.1617,0.1617,0.1617,0.1617,0.1617,0.1617,0.1617,0.1617,0.1617,0.1617,0.1617,0.1617,0.1617,0.1617,0.1617,0.1617,0.1622,0.1635,0.1637,0.1647,0.1677,0.1681,0.1686,0.1703,0.1716,0.1724,0.1724,0.1698,0.1785,0.1889,0.1846,0.1819,0.1819,0.1819,0.1768,0.1617,0.1617,0.1617,0.1617,0.166,0.1697,0.173,0.1774,0.1795,0.1795,0.1795,0.1795,0.1795,0.1795,0.1795,0.1795,0.1795,0.1795,0.1795,0.1795,0.1795,0.1795,0.1795,0.1795,0.1795,0.0,0.0,0.0,0.0,0.0,0.0,0.0,0.0,0.0,0.0,0.0,0.0,0.0,0.0,0.0,0.0,0.0,0.0,0.0,0.0,0.0,0.3725,0.5677,0.6783,0.6786,0.7587,0.7988,0.7988,0.7988,0.7988,0.7988,0.7988,0.7988,0.7939,0.6029,0.5074,0.4674,0.2822,0.1869,0.1617,0.1617,0.1617,0.1617,0.1617,0.1617,0.1617,0.1617,0.1617,0.1617,0.1617,0.1617,0.1617,0.1617,0.1617,0.0,0.0,0.0,0.1617,0.1617,0.1617,0.1617,0.1617,0.1617,0.1617,0.1617,0.1617,0.1617,0.1617,0.1617,0.1617,0.1617,0.1617,0.1617,0.1617,0.1617,0.1625,0.1647,0.1651,0.1658,0.168,0.1689,0.1694,0.1694,0.1675,0.1817,0.2074,0.2041,0.2021,0.2122,0.2121,0.202,0.1818,0.1718,0.1718,0.1718,0.1698,0.1745,0.1804,0.1773,0.1783,0.1784,0.1791,0.1791,0.1784,0.1791,0.1795,0.1795,0.1795,0.1795,0.1795,0.1795,0.1795,0.1795,0.1795,0.1795,0.1795,0.0,0.0,0.0,0.0,0.0,0.0,0.0,0.0,0.0,0.0,0.0,0.0,0.318,0.318,0.318,0.318,0.318,0.0,0.0,0.0,0.0,0.5079,0.6179,0.0,0.7889,0.7988,0.7988,0.7988,0.7988,0.7988,0.7988,0.7988,0.7988,0.7939,0.6836,0.5729,0.4724,0.3574,0.2521,0.1617,0.1617,0.1617,0.1617,0.1617,0.1617,0.1617,0.1617,0.1617,0.1617,0.1617,0.1617,0.1617,0.1617,0.1617,0.1617,0.0,0.0,0.0,0.1617,0.1617,0.1617,0.1617,0.1617,0.1617,0.1617,0.1617,0.1617,0.1617,0.1617,0.1617,0.1617,0.1617,0.1617,0.1617,0.1617,0.1618,0.1619,0.162,0.162,0.1622,0.1647,0.1717,0.1717,0.1715,0.1817,0.2074,0.2041,0.2121,0.2371,0.2371,0.2371,0.2371,0.2121,0.1971,0.1971,0.1801,0.1745,0.1804,0.1806,0.1807,0.1808,0.1782,0.1779,0.1808,0.1782,0.1795,0.1795,0.1795,0.1795,0.1795,0.1795,0.1795,0.1795,0.1795,0.1795,0.1795,0.0,0.0,0.0,0.0,0.0,0.0,0.0,0.0,0.0,0.0,0.0,0.0,0.0,0.318,0.318,0.318,0.3681,0.0,0.0,0.0,0.0,0.6229,0.7425,0.8081,0.7988,0.7988,0.7988,0.7988,0.7988,0.7988,0.7988,0.7988,0.7988,0.7939,0.6886,0.5782,0.4724,0.3674,0.2572,0.1617,0.1617,0.1617,0.1617,0.1617,0.1617,0.1617,0.1617,0.1617,0.1617,0.1617,0.1617,0.1617,0.1617,0.1617,0.1617,0.1617,0.1617,0.1617,0.1617,0.1617,0.1617,0.1617,0.1617,0.1617,0.1617,0.1617,0.1617,0.1617,0.1617,0.1617,0.1617,0.1617,0.1617,0.1617,0.1617,0.1617,0.1617,0.1617,0.1617,0.1617,0.1626,0.1633,0.1633,0.1786,0.1989,0.2292,0.2432,0.2575,0.2674,0.2674,0.2573,0.2422,0.2321,0.2171,0.2022,0.1801,0.1725,0.1747,0.1712,0.172,0.1721,0.1732,0.1742,0.1805,0.1816,0.1777,0.1795,0.1795,0.1795,0.1795,0.1795,0.1795,0.1795,0.1795,0.1795,0.1795,0.0,0.0,0.0,0.0,0.0,0.0,0.0,0.0,0.0,0.423,0.0,0.0,0.0,0.0,0.428,0.428,0.468,0.5179,0.5677,0.6819,0.7319,0.6927,0.8127,0.8577,0.8137,0.8137,0.8088,0.7988,0.7988,0.7988,0.7988,0.7988,0.7988,0.7939,0.6886,0.5782,0.4724,0.3674,0.2572,0.1617,0.1617,0.1617,0.1617,0.1617,0.1617,0.1617,0.1617,0.1617,0.1617,0.1617,0.1617,0.1617,0.1617,0.1617,0.1617,0.1617,0.1617,0.1617,0.1617,0.1617,0.1617,0.1617,0.1617,0.1617,0.1617,0.1617,0.1617,0.1617,0.1617,0.1617,0.1617,0.1617,0.1617,0.1617,0.1617,0.1617,0.1617,0.1617,0.1617,0.1617,0.1617,0.1617,0.1617,0.1819,0.2121,0.2371,0.2623,0.2826,0.2927,0.2927,0.2826,0.2522,0.2472,0.2271,0.2022,0.179,0.1704,0.1714,0.1681,0.169,0.169,0.17,0.171,0.1775,0.1795,0.1822,0.1795,0.1795,0.1795,0.1795,0.1795,0.1795,0.1795,0.1795,0.1795,0.1795,0.0,0.0,0.0,0.0,0.0,0.0,0.0,0.0,0.5236,0.6279,0.0,0.0,0.0,0.0,0.0,0.6484,0.6234,0.6084,0.6134,0.6828,0.7273,0.7273,0.0,0.0,0.8432,0.8432,0.8283,0.8038,0.8041,0.7988,0.7988,0.7988,0.7988,0.7939,0.6836,0.5782,0.4724,0.3674,0.2572,0.1617,0.1617,0.1617,0.1617,0.1617,0.1617,0.1617,0.1617,0.1617,0.1617,0.1617,0.1617,0.1617,0.1617,0.1617,0.1617,0.1617,0.1617,0.1617,0.0,0.0,0.0,0.1617,0.1617,0.1617,0.1617,0.1617,0.1617,0.1617,0.1617,0.1617,0.1617,0.1617,0.1617,0.1617,0.1617,0.1617,0.1617,0.1617,0.1617,0.1617,0.1617,0.1617,0.1617,0.1869,0.2122,0.2371,0.2674,0.2927,0.318,0.318,0.3079,0.2826,0.2573,0.2271,0.2022,0.1768,0.1632,0.1713,0.1713,0.1713,0.1714,0.1689,0.1687,0.1717,0.1776,0.182,0.1793,0.1795,0.1795,0.1795,0.1795,0.1795,0.1795,0.1795,0.1795,0.1795,0.0,0.0,0.0,0.0,0.0,0.6074,0.6373,0.6247,0.6304,0.0,0.0,0.0,0.6432,0.6638,0.7154,0.793,0.7789,0.7985,0.8794,0.8888,0.8825,0.868,0.8931,0.8981,0.8676,0.8676,0.8676,0.8581,0.8382,0.8283,0.8283,0.8088,0.7988,0.7939,0.6079,0.5074,0.4724,0.3674,0.2572,0.1617,0.1617,0.1617,0.1617,0.1617,0.1617,0.1617,0.1617,0.1617,0.1617,0.1617,0.1617,0.1617,0.1617,0.1617,0.1617,0.1617,0.1617,0.1617,0.1617,0.0,0.0,0.0,0.0,0.0,0.1617,0.1617,0.1617,0.1617,0.1617,0.1617,0.1617,0.1617,0.1617,0.1617,0.1617,0.1617,0.1617,0.1617,0.1617,0.1617,0.1617,0.1667,0.1869,0.2121,0.2423,0.2674,0.2927,0.313,0.318,0.318,0.318,0.3079,0.2826,0.2574,0.2271,0.2021,0.1823,0.1629,0.1629,0.1629,0.163,0.1637,0.1649,0.1716,0.174,0.1771,0.1809,0.1783,0.1795,0.1795,0.1795,0.1795,0.1795,0.1795,0.1795,0.1795,0.0,0.0,0.0,0.0,0.0,0.749,0.7899,0.7715,0.7665,0.0,0.0,0.0,0.8318,0.7947,0.8105,0.9156,0.9176,0.9381,1.0002,0.9904,0.9764,0.9488,0.9488,0.9352,0.8981,0.8977,0.8928,0.8825,0.8627,0.8581,0.8577,0.8283,0.8187,0.8084,0.5827,0.4824,0.4726,0.32,0.2186,0.1617,0.1617,0.1617,0.1617,0.1617,0.1617,0.1617,0.1617,0.1617,0.1617,0.1617,0.1617,0.1617,0.1617,0.1617,0.1617,0.1617,0.1617,0.1617,0.1617,0.1617,0.1617,0.1617,0.0,0.0,0.1617,0.1617,0.1617,0.1617,0.1617,0.1617,0.1617,0.1617,0.1617,0.1617,0.1617,0.1617,0.1617,0.1617,0.1617,0.1617,0.1718,0.1819,0.1971,0.2323,0.2623,0.2775,0.3029,0.318,0.318,0.318,0.318,0.318,0.2927,0.2725,0.2573,0.2172,0.1921,0.1768,0.1667,0.1617,0.1617,0.1617,0.1626,0.1645,0.1662,0.1728,0.1745,0.1765,0.1795,0.1795,0.1795,0.1795,0.1795,0.1795,0.1795,0.1795,0.0,0.0,1.0264,1.0264,0.9522,0.9205,1.016,0.9485,0.9234,0.0,1.0314,1.0326,1.0326,0.9474,0.9313,1.0221,1.0305,1.0245,1.0245,1.0224,1.0139,0.9925,0.9916,0.9742,0.9345,0.9291,0.918,0.8901,0.8901,0.8844,0.8825,0.8581,0.8443,0.8357,0.5942,0.4845,0.4758,0.2582,0.1652,0.1626,0.1623,0.1622,0.1622,0.1618,0.1617,0.1617,0.1617,0.1617,0.1617,0.1617,0.1617,0.1617,0.1617,0.1617,0.1617,0.1617,0.1617,0.1617,0.1617,0.1617,0.1617,0.1617,0.1617,0.0,0.1617,0.1617,0.1617,0.1617,0.1617,0.1617,0.1617,0.1617,0.1617,0.1617,0.1617,0.1617,0.1617,0.1617,0.1617,0.1617,0.1819,0.2022,0.2021,0.2523,0.2826,0.2826,0.3079,0.318,0.318,0.318,0.318,0.318,0.2977,0.2826,0.2775,0.2323,0.2021,0.2022,0.1718,0.1617,0.1617,0.1617,0.1617,0.1618,0.1645,0.1693,0.1727,0.1738,0.1789,0.1795,0.1795,0.1795,0.1795,0.1795,0.1795,0.1795,0.0,1.0837,1.0837,1.0837,1.0677,1.062,1.0832,1.0809,1.0748,1.0756,1.0878,1.0912,1.0912,1.0962,1.1016,1.0912,1.0836,1.065,1.0379,1.0245,1.0196,1.0159,1.0159,1.0091,1.0007,1.0007,0.9883,0.968,0.9482,0.9261,0.9133,0.8829,0.8796,0.8878,0.631,0.5281,0.5198,0.2747,0.1692,0.1685,0.1662,0.1705,0.1651,0.1626,0.1617,0.1617,0.1617,0.1617,0.1617,0.1617,0.1617,0.1617,0.1617,0.1617,0.1617,0.1617,0.1617,0.1617,0.1617,0.1617,0.1617,0.1617,0.1617,0.0,0.1617,0.1617,0.1617,0.1617,0.1617,0.1617,0.1617,0.1617,0.1617,0.1617,0.1617,0.1617,0.1617,0.1617,0.1617,0.1617,0.1819,0.2071,0.2321,0.2624,0.2876,0.313,0.318,0.318,0.318,0.318,0.318,0.318,0.313,0.3027,0.2826,0.2472,0.2222,0.2022,0.1718,0.1617,0.1617,0.1617,0.1617,0.1617,0.1623,0.1673,0.1724,0.1693,0.175,0.1795,0.1795,0.1795,0.1795,0.1795,0.1795,0.1795,1.1278,1.1278,1.1278,1.1278,1.1278,1.1278,1.1278,1.1366,1.1374,1.1266,1.1293,1.135,1.135,1.1514,1.1514,1.135,1.1263,1.1158,1.0995,1.0799,1.0601,1.0566,1.0404,1.0253,1.0216,1.0212,1.0167,1.0073,0.9919,0.9776,0.9693,0.9435,0.9277,0.9098,0.6536,0.5363,0.5151,0.2738,0.1727,0.1725,0.1695,0.1675,0.1712,0.1645,0.163,0.1617,0.1617,0.1617,0.1617,0.1617,0.1617,0.1617,0.1617,0.1617,0.1617,0.1617,0.1617,0.1617,0.1617,0.1617,0.1617,0.1617,0.1617,0.0,0.0,0.1617,0.1617,0.1617,0.1617,0.1617,0.1617,0.1617,0.1617,0.1617,0.1617,0.1617,0.1617,0.1617,0.1617,0.1617,0.1969,0.2271,0.2371,0.2775,0.3079,0.318,0.318,0.318,0.318,0.318,0.318,0.318,0.318,0.3079,0.2826,0.2522,0.2271,0.2022,0.1718,0.1617,0.1617,0.1617,0.1617,0.1617,0.1617,0.1617,0.167,0.17,0.1714,0.1739,0.1795,0.1795,0.1795,0.1795,0.1795,0.1795,1.1732,1.1732,1.1732,1.1732,1.1732,1.1732,1.1732,1.1732,1.1732,1.1678,1.1678,1.1678,1.1678,1.1732,1.1732,1.1678,1.1678,1.1678,1.1623,1.1291,1.1063,1.0923,1.0646,1.0416,1.0322,1.0318,1.0302,1.0213,1.0213,1.0249,1.0212,0.9955,0.9766,0.9425,0.7029,0.5714,0.5153,0.3054,0.2032,0.1811,0.1731,0.1705,0.1731,0.1725,0.1652,0.1625,0.1619,0.1617,0.1617,0.1617,0.1617,0.1617,0.1617,0.1617,0.1617,0.1617,0.1617,0.1617,0.1617,0.1617,0.1617,0.1617,0.1617,0.1617,0.0,0.0,0.0,0.1617,0.1617,0.1617,0.1617,0.1617,0.1615,0.1609,0.1613,0.1615,0.1609,0.1613,0.1617,0.1617,0.207,0.2422,0.2422,0.2876,0.318,0.318,0.318,0.318,0.318,0.318,0.318,0.318,0.318,0.3079,0.2826,0.2522,0.2271,0.2022,0.1718,0.1617,0.1617,0.1617,0.1617,0.1617,0.1617,0.1617,0.1617,0.1674,0.1682,0.1715,0.178,0.1789,0.1795,0.1795,0.1795,0.1795,1.2327,1.2327,1.2327,1.2327,1.2327,1.2327,1.2327,1.2327,1.2219,1.2005,1.1951,1.1951,1.1951,1.2169,1.2223,1.2005,1.1951,1.1841,1.1623,1.1291,1.1063,1.1101,1.0828,1.0655,1.0631,1.0631,1.0558,1.0404,1.0404,1.0322,1.0212,1.0164,1.0197,1.0186,0.8344,0.6997,0.5939,0.4177,0.2792,0.1789,0.1786,0.1767,0.1791,0.171,0.1682,0.1705,0.1626,0.1617,0.1617,0.1617,0.1617,0.1617,0.1617,0.1617,0.1617,0.1617,0.1617,0.1617,0.1617,0.1617,0.1617,0.1617,0.1617,0.1617,0.1617,0.0,0.1617,0.1617,0.0,0.1617,0.1617,0.0,0.0,0.1581,0.1599,0.1607,0.1581,0.16,0.1617,0.1617,0.207,0.2422,0.2422,0.2876,0.318,0.318,0.318,0.318,0.318,0.318,0.318,0.318,0.318,0.3079,0.2826,0.2522,0.2271,0.2022,0.1718,0.1617,0.1617,0.1617,0.1617,0.1617,0.1617,0.1617,0.1619,0.1698,0.1717,0.1682,0.1779,0.1819,0.1795,0.1795,0.1795,0.1795,1.2434,1.2387,1.2387,1.2387,1.2387,1.2387,1.2387,1.2387,1.2387,1.2278,1.2219,1.2219,1.2219,1.2332,1.2327,1.2223,1.2219,1.2164,1.206,1.1787,1.1618,1.1618,1.1185,1.0907,1.0907,1.0802,1.0655,1.0586,1.0586,1.0546,1.0469,1.0469,1.0459,1.026,0.8821,0.7367,0.5864,0.4414,0.3022,0.1795,0.1795,0.1787,0.1773,0.1742,0.1755,0.1712,0.1648,0.1632,0.1617,0.1617,0.1617,0.1617,0.1617,0.1617,0.1617,0.1617,0.1617,0.1617,0.1617,0.1617,0.1617,0.1617,0.1617,0.1617,0.1617,0.1617,0.1617,0.1617,0.0,0.0,0.0,0.0,0.0,0.0,0.1609,0.1612,0.16,0.1609,0.1667,0.1819,0.2021,0.2271,0.2623,0.2977,0.318,0.318,0.318,0.318,0.318,0.318,0.318,0.318,0.318,0.2977,0.2573,0.2472,0.217,0.1768,0.1667,0.1617,0.1617,0.1617,0.1617,0.1617,0.1617,0.1617,0.1618,0.163,0.1646,0.1717,0.1738,0.1766,0.1744,0.1762,0.1824,0.1824,1.2673,1.2611,1.2611,1.2611,1.2611,1.2611,1.2611,1.2611,1.2611,1.2611,1.2611,1.2611,1.2611,1.2564,1.2531,1.2531,1.2419,1.2387,1.2387,1.2169,1.2005,1.2005,1.1509,1.1236,1.1236,1.0966,1.0802,1.0802,1.0747,1.0692,1.0692,1.0692,1.0582,1.0366,0.9416,0.7861,0.5864,0.4914,0.3467,0.1795,0.1795,0.1795,0.1791,0.1816,0.1772,0.1725,0.1717,0.1643,0.1617,0.1617,0.1617,0.1617,0.1617,0.1617,0.1617,0.1617,0.1617,0.1617,0.1617,0.1617,0.1617,0.1617,0.1617,0.1617,0.1617,0.1617,0.1617,0.1617,0.1617,0.0,0.0,0.0,0.1614,0.1606,0.0,0.1614,0.1606,0.1611,0.1667,0.1869,0.2011,0.2305,0.2854,0.3054,0.3156,0.3156,0.3171,0.318,0.318,0.318,0.318,0.318,0.318,0.2977,0.2522,0.2422,0.217,0.1718,0.1617,0.1617,0.1617,0.1617,0.1617,0.1617,0.1617,0.1617,0.1617,0.1617,0.163,0.1651,0.1711,0.1669,0.1685,0.1723,0.1791,0.1791,1.3108,1.3103,1.3103,1.3103,1.3103,1.3103,1.3103,1.3103,1.3103,1.3103,1.3103,1.3103,1.3103,1.2871,1.2813,1.2813,1.2564,1.2387,1.2387,1.2169,1.2005,1.2005,1.1732,1.1568,1.1568,1.124,1.1072,1.1072,1.0857,1.0692,1.0692,1.0692,1.0692,1.0692,1.0366,0.8751,0.6195,0.5864,0.4195,0.1795,0.1795,0.1795,0.1791,0.1816,0.1784,0.1699,0.1724,0.1643,0.1617,0.1617,0.1617,0.1617,0.1617,0.1617,0.1617,0.1617,0.1617,0.1617,0.1617,0.1617,0.1617,0.1617,0.1617,0.1617,0.1617,0.1617,0.1617,0.1617,0.1617,0.1617,0.1617,0.1617,0.1607,0.1578,0.1598,0.0,0.0,0.1598,0.1617,0.1617,0.2036,0.2502,0.3044,0.3093,0.3093,0.3093,0.3146,0.318,0.318,0.318,0.318,0.318,0.318,0.3079,0.2775,0.2522,0.2271,0.1971,0.1718,0.1617,0.1617,0.1617,0.1617,0.1617,0.1617,0.1617,0.1617,0.1617,0.1618,0.1622,0.1651,0.1645,0.1626,0.1684,0.1705,0.1705,1.3476,1.3476,1.3391,1.3174,1.3122,1.3122,1.3122,1.3122,1.3122,1.3122,1.3122,1.3122,1.3122,1.3065,1.2913,1.2837,1.2701,1.2597,1.2396,1.2332,1.2273,1.2273,1.2005,1.1841,1.1841,1.1345,1.1072,1.1072,1.0857,1.0692,1.0692,1.0692,1.0692,1.0692,1.0637,0.9078,0.6523,0.6195,0.4528,0.2076,0.1851,0.1795,0.1794,0.1783,0.1748,0.1703,0.1693,0.1658,0.1617,0.1617,0.1617,0.1617,0.1617,0.1617,0.1617,0.1617,0.1617,0.1617,0.1617,0.1617,0.1617,0.1617,0.1617,0.1617,0.1617,0.1617,0.1617,0.1617,0.1617,0.1617,0.1617,0.1617,0.1613,0.1603,0.161,0.1613,0.0,0.1593,0.1686,0.1835,0.2266,0.2489,0.2314,0.2776,0.3041,0.2894,0.3097,0.318,0.318,0.318,0.318,0.318,0.318,0.2977,0.2522,0.2422,0.217,0.1718,0.1667,0.1617,0.1617,0.1617,0.1617,0.1617,0.1617,0.1617,0.1617,0.1617,0.1617,0.1618,0.1628,0.1626,0.1622,0.1662,0.1677,0.1679,1.3688,1.3688,1.3603,1.3334,1.3287,1.3287,1.3287,1.3287,1.3287,1.3287,1.3287,1.3287,1.3287,1.3225,1.3126,1.2999,1.2975,1.2814,1.2673,1.2597,1.2554,1.2554,1.2265,1.2164,1.2164,1.1568,1.1291,1.1291,1.0911,1.0692,1.0692,1.0692,1.0692,1.0692,1.0692,0.9189,0.6687,0.6359,0.4639,0.2188,0.1907,0.1795,0.1795,0.1795,0.1757,0.1704,0.1704,0.1667,0.1617,0.1617,0.1617,0.1617,0.1617,0.1617,0.1617,0.1617,0.1617,0.1617,0.1617,0.1617,0.1617,0.1617,0.1617,0.1617,0.1617,0.1617,0.1617,0.1617,0.1617,0.1617,0.1617,0.1617,0.1617,0.1617,0.1617,0.1617,0.0,0.1591,0.1665,0.18,0.2173,0.235,0.2194,0.2635,0.2901,0.2892,0.3077,0.3157,0.3179,0.318,0.318,0.318,0.318,0.2977,0.2522,0.2472,0.217,0.1718,0.1667,0.1617,0.1617,0.1617,0.1617,0.1617,0.1617,0.1617,0.1617,0.1617,0.1617,0.1617,0.1617,0.1617,0.162,0.1639,0.1646,0.1649,1.3688,1.3688,1.3688,1.3688,1.3688,1.3688,1.3688,1.3688,1.3688,1.3688,1.3688,1.3688,1.3688,1.3518,1.34,1.3391,1.3202,1.3136,1.3122,1.2942,1.2832,1.2823,1.2569,1.2396,1.2387,1.1896,1.1623,1.1623,1.1021,1.0692,1.0692,1.0692,1.0692,1.0692,1.0692,0.9244,0.68,0.6415,0.4695,0.2188,0.1907,0.1795,0.1795,0.1795,0.1757,0.1704,0.1704,0.1667,0.1617,0.1617,0.1617,0.1617,0.1617,0.1617,0.1617,0.1617,0.1617,0.1617,0.1617,0.1617,0.1617,0.1617,0.1617,0.1617,0.1617,0.1617,0.1617,0.1617,0.1617,0.1617,0.1617,0.1617,0.1617,0.1617,0.1617,0.1616,0.1615,0.1589,0.1558,0.1528,0.1685,0.2002,0.2559,0.2618,0.2728,0.3025,0.3085,0.3113,0.3172,0.3176,0.3177,0.318,0.318,0.3079,0.2826,0.2522,0.2271,0.2022,0.1718,0.1617,0.1617,0.1617,0.1617,0.1617,0.1617,0.1617,0.1617,0.1617,0.1617,0.1617,0.1617,0.1617,0.1617,0.1617,0.1617,0.1617,1.3688,1.3688,1.3688,1.3688,1.3688,1.3688,1.3688,1.3688,1.3688,1.3688,1.3688,1.3688,1.3688,1.3646,1.3551,1.34,1.3339,1.324,1.3136,1.3074,1.2979,1.2832,1.2715,1.2606,1.2387,1.206,1.1787,1.1623,1.1181,1.0911,1.0692,1.0692,1.0692,1.0692,1.0692,0.9805,0.8251,0.708,0.486,0.2188,0.1907,0.1795,0.1795,0.1795,0.1757,0.1704,0.1704,0.1667,0.1617,0.1617,0.1617,0.1617,0.1617,0.1617,0.1617,0.1617,0.1617,0.1617,0.1617,0.1617,0.1617,0.1617,0.1617,0.1617,0.1617,0.1617,0.1617,0.1617,0.1617,0.1617,0.1617,0.1617,0.1617,0.1617,0.1617,0.1609,0.1586,0.1557,0.1526,0.1496,0.1694,0.1767,0.173,0.2255,0.2558,0.2443,0.2666,0.2905,0.311,0.2965,0.2984,0.3179,0.318,0.3079,0.2826,0.2522,0.2271,0.2022,0.1718,0.1617,0.1617,0.1617,0.1617,0.1617,0.1617,0.1617,0.1617,0.1617,0.1617,0.1617,0.1617,0.1617,0.1617,0.1617,0.1617,0.1617,1.3808,1.3688,1.3688,1.3688,1.3688,1.3688,1.3688,1.3688,1.3688,1.3688,1.3688,1.3688,1.3688,1.3688,1.3646,1.3528,1.3518,1.3471,1.3343,1.3254,1.3159,1.3046,1.2866,1.271,1.2587,1.2215,1.1951,1.1787,1.1345,1.1017,1.0857,1.0747,1.0692,1.0692,1.0692,1.0029,0.8809,0.7301,0.5025,0.2468,0.2857,0.2689,0.0,0.202,0.1977,0.1917,0.1757,0.1667,0.1617,0.1617,0.1617,0.1617,0.1617,0.1617,0.1617,0.1617,0.1617,0.1617,0.1617,0.1617,0.1617,0.1617,0.1617,0.1617,0.1617,0.1617,0.1617,0.1617,0.1617,0.1617,0.1617,0.1617,0.1617,0.1617,0.1617,0.1607,0.1576,0.1545,0.1515,0.1484,0.159,0.157,0.1436,0.2492,0.2897,0.2296,0.3003,0.3269,0.2951,0.2929,0.3006,0.314,0.3065,0.2977,0.2826,0.2423,0.2171,0.2022,0.1718,0.1617,0.1617,0.1617,0.1617,0.1617,0.1617,0.1617,0.1617,0.1617,0.1617,0.1617,0.1617,0.1617,0.1617,0.1617,0.1617,0.1617,1.3923,1.3688,1.3688,1.3688,1.3688,1.3688,1.3688,1.3748,1.3808,1.3808,1.3868,1.3928,1.3808,1.3808,1.3808,1.3688,1.3688,1.3688,1.3688,1.3528,1.3419,1.3391,1.3041,1.2824,1.2823,1.2358,1.2032,1.1951,1.14,1.1131,1.1017,1.0802,1.0692,1.0692,1.0692,1.0029,0.8809,0.7467,0.5417,0.3085,0.4083,0.3749,0.2581,0.23,0.2197,0.2077,0.1811,0.1667,0.1617,0.1617,0.1617,0.1617,0.1617,0.1617,0.1617,0.1617,0.1617,0.1617,0.1617,0.1617,0.1617,0.1617,0.1617,0.1617,0.1617,0.1617,0.1617,0.1617,0.1617,0.1617,0.1617,0.1617,0.1617,0.1617,0.1613,0.1602,0.1624,0.1542,0.151,0.1484,0.1454,0.0,0.1391,0.2731,0.3228,0.2313,0.3345,0.3709,0.289,0.3038,0.3123,0.3188,0.304,0.2869,0.2725,0.2273,0.2022,0.2022,0.1718,0.1617,0.1617,0.1617,0.1617,0.1617,0.1617,0.1617,0.1617,0.1617,0.1617,0.1617,0.1617,0.1617,0.1617,0.1617,0.1617,0.1617,1.3923,1.3688,1.3688,1.3688,1.3688,1.3688,1.3688,1.4097,1.4451,1.4451,1.4937,1.5056,1.451,1.4451,1.4217,1.3748,1.3688,1.3688,1.3688,1.3655,1.3561,1.3395,1.332,1.3117,1.2832,1.2729,1.2344,1.1678,1.1568,1.124,1.0747,1.0747,1.0692,1.0692,1.0692,1.0029,0.8865,0.8416,0.675,0.4531,0.4528,0.3638,0.23,0.2244,0.2032,0.1757,0.1704,0.1667,0.1617,0.1617,0.1617,0.1617,0.1617,0.1617,0.1617,0.1617,0.1617,0.1617,0.1617,0.1617,0.1617,0.1617,0.1617,0.1617,0.1617,0.1617,0.1617,0.1617,0.1617,0.1617,0.1617,0.1617,0.1617,0.1617,0.1596,0.1577,0.1621,0.1523,0.1487,0.1481,0.1636,0.166,0.1436,0.1883,0.2069,0.1904,0.2123,0.2636,0.3476,0.3351,0.341,0.3671,0.3638,0.3275,0.2471,0.2172,0.2022,0.2022,0.1718,0.1617,0.1617,0.1617,0.1617,0.1617,0.1617,0.1617,0.1617,0.1617,0.1617,0.1617,0.1617,0.1617,0.1617,0.1617,0.1617,0.1617,1.4808,1.4162,1.3923,1.4575,1.4689,1.4981,1.5741,1.5682,1.5219,1.4277,1.4401,1.4461,1.4162,1.4102,1.4043,1.3748,1.3688,1.3688,1.3688,1.3688,1.3646,1.3551,1.3443,1.3296,1.3093,1.2932,1.2604,1.2225,1.1786,1.1459,1.1185,1.0857,1.0692,1.0692,1.0692,1.0029,0.892,0.9416,0.8247,0.6028,0.5917,0.5029,0.3752,0.297,0.2471,0.2131,0.2024,0.1823,0.1617,0.1617,0.1617,0.1617,0.1617,0.1617,0.1617,0.1617,0.1617,0.1617,0.1617,0.1617,0.1617,0.1617,0.1617,0.1617,0.1617,0.1617,0.1617,0.1617,0.1617,0.1617,0.1617,0.1617,0.1617,0.1617,0.1605,0.159,0.1623,0.2011,0.2246,0.2222,0.2721,0.2865,0.224,0.2731,0.291,0.242,0.2598,0.3148,0.4129,0.3762,0.3817,0.4462,0.4454,0.4275,0.397,0.3609,0.3527,0.3677,0.3374,0.3274,0.3224,0.2671,0.2422,0.2422,0.1818,0.1617,0.1617,0.1617,0.1617,0.1617,0.1617,0.1617,0.1617,0.1617,0.1617,0.1617,1.5983,1.4986,1.4515,1.5747,1.5983,1.6391,1.7612,1.7149,1.6155,1.4629,1.4222,1.4047,1.3923,1.3966,1.3921,1.3693,1.3731,1.374,1.3693,1.3688,1.3688,1.3688,1.3537,1.3433,1.3391,1.3022,1.281,1.2711,1.1995,1.1601,1.1457,1.1004,1.0747,1.0692,1.0692,1.0194,0.9364,1.0304,0.9471,0.7473,0.7193,0.6364,0.5144,0.3682,0.29,0.2556,0.2334,0.2076,0.1768,0.1768,0.1718,0.1617,0.1617,0.1617,0.1617,0.1617,0.1617,0.1617,0.1617,0.1617,0.1617,0.1617,0.1617,0.1617,0.1617,0.1617,0.1617,0.1617,0.1617,0.1617,0.1617,0.1617,0.1617,0.1617,0.1611,0.1601,0.1583,0.2411,0.2969,0.2934,0.3725,0.4022,0.3267,0.3844,0.4067,0.3535,0.3667,0.4069,0.4781,0.4406,0.4362,0.489,0.5104,0.5109,0.4937,0.4831,0.4924,0.5129,0.4924,0.4824,0.4774,0.3674,0.3323,0.3473,0.2422,0.1919,0.1919,0.1718,0.1617,0.1617,0.1617,0.1617,0.1617,0.1617,0.1617,0.1617,1.7208,1.6273,1.5806,1.7038,1.7208,1.7267,1.7443,1.7384,1.7149,1.6733,1.5935,1.5175,1.457,1.4761,1.4564,1.3763,1.3868,1.3896,1.3703,1.3688,1.3688,1.3688,1.367,1.3575,1.3395,1.3159,1.2833,1.2371,1.2105,1.1643,1.0947,1.1054,1.0907,1.0692,1.0692,1.0637,1.0527,1.0637,0.9915,0.8644,0.7529,0.6253,0.4803,0.3582,0.2872,0.2606,0.251,0.2412,0.2321,0.2321,0.2019,0.1617,0.1617,0.1617,0.1617,0.1617,0.1617,0.1617,0.1617,0.1617,0.1617,0.1617,0.1617,0.1617,0.1617,0.1617,0.1617,0.1617,0.1617,0.1617,0.1617,0.1617,0.1617,0.1617,0.1594,0.1584,0.1609,0.2355,0.2937,0.2987,0.3756,0.4243,0.4156,0.4245,0.4601,0.5361,0.4692,0.4645,0.5542,0.5552,0.5153,0.4422,0.5364,0.5088,0.3425,0.4335,0.4824,0.4824,0.4824,0.4824,0.4774,0.3674,0.3723,0.4574,0.3524,0.3074,0.2973,0.2019,0.1617,0.1617,0.1617,0.1617,0.1617,0.1617,0.1617,0.1617,1.8848,1.7677,1.7091,1.8325,1.8732,1.9138,2.0069,1.9594,1.9118,1.9234,1.7735,1.6338,1.5505,1.5479,1.511,1.4008,1.3962,1.3977,1.3887,1.3759,1.3688,1.3688,1.3688,1.3651,1.357,1.324,1.297,1.2777,1.2275,1.1855,1.1567,1.1424,1.124,1.0966,1.0966,1.0857,1.0692,1.0692,1.0417,0.9864,0.864,0.7418,0.6075,0.4886,0.3783,0.2818,0.2767,0.2614,0.2422,0.2422,0.227,0.207,0.1869,0.1819,0.1819,0.1667,0.1617,0.1617,0.1617,0.1617,0.1617,0.1617,0.1617,0.1617,0.1617,0.1617,0.1617,0.1617,0.1617,0.1617,0.1617,0.1617,0.1617,0.1617,0.1607,0.1802,0.2469,0.3328,0.4155,0.4752,0.5604,0.5885,0.5188,0.5669,0.5894,0.5719,0.4825,0.4956,0.6473,0.5985,0.5785,0.5964,0.6626,0.6623,0.586,0.6435,0.6731,0.6731,0.6731,0.6731,0.6681,0.5632,0.5029,0.4724,0.3674,0.3224,0.3123,0.2019,0.1617,0.1617,0.1617,0.1617,0.1617,0.1617,0.1617,0.1515,2.0556,1.9314,1.8609,1.9903,2.0307,2.0831,2.1824,2.1238,2.0759,2.1045,1.9601,1.8058,1.6831,1.6353,1.569,1.4673,1.4308,1.4048,1.3925,1.3773,1.3688,1.3688,1.3688,1.3688,1.3688,1.3343,1.3131,1.3122,1.2543,1.2146,1.1918,1.1543,1.1298,1.1072,1.1017,1.0857,1.0692,1.0692,1.0692,1.0582,0.9364,0.8195,0.6956,0.5725,0.4355,0.3082,0.3011,0.2857,0.2623,0.2623,0.2623,0.2574,0.2222,0.2071,0.1971,0.1768,0.1667,0.1617,0.1617,0.1617,0.1617,0.1617,0.1617,0.1617,0.1617,0.1617,0.1617,0.1617,0.1617,0.1617,0.1617,0.1617,0.1617,0.1617,0.1617,0.1969,0.3073,0.4012,0.4953,0.5894,0.6805,0.7083,0.6177,0.6697,0.683,0.6163,0.5492,0.5714,0.7007,0.6473,0.6299,0.6697,0.73,0.7456,0.7171,0.7742,0.7988,0.7988,0.7988,0.7988,0.7988,0.7238,0.6282,0.5227,0.4124,0.3674,0.3574,0.217,0.1617,0.1617,0.1617,0.1617,0.1617,0.1617,0.1617,0.1465,2.2314,2.1271,2.058,2.1816,2.2051,2.2002,2.1725,2.1668,2.1782,2.2059,2.1546,2.044,1.8574,1.7335,1.6413,1.6001,1.4918,1.4133,1.3717,1.3693,1.3688,1.3688,1.3688,1.3688,1.3688,1.349,1.3282,1.3122,1.2862,1.244,1.1665,1.1136,1.0961,1.1072,1.0802,1.0692,1.0692,1.0692,1.0692,1.0582,0.9364,0.8195,0.6948,0.5703,0.4468,0.3397,0.3224,0.3181,0.318,0.318,0.318,0.3079,0.2573,0.2222,0.2022,0.1971,0.1819,0.1617,0.1617,0.1617,0.1617,0.1617,0.1617,0.1617,0.1617,0.1617,0.1617,0.1617,0.1617,0.1617,0.1617,0.1617,0.1617,0.1617,0.1617,0.1969,0.3073,0.4012,0.4953,0.5894,0.6805,0.7312,0.7112,0.7095,0.7095,0.7095,0.7095,0.7095,0.7095,0.7095,0.6653,0.5764,0.6931,0.7167,0.6217,0.7397,0.7988,0.7988,0.7988,0.7988,0.7988,0.7988,0.7388,0.6334,0.5227,0.4774,0.4624,0.2471,0.1617,0.1617,0.1617,0.1617,0.1617,0.1617,0.1617,0.1465,2.3242,2.2498,2.1982,2.2402,2.244,2.24,2.2343,2.2456,2.2626,2.2675,2.2562,2.2116,2.1321,1.9887,1.8563,1.7564,1.6411,1.5592,1.523,1.424,1.3688,1.3688,1.3688,1.3688,1.3688,1.349,1.3282,1.3122,1.2923,1.2565,1.218,1.1806,1.1566,1.1459,1.1126,1.0857,1.0692,1.0692,1.0692,1.0692,1.0304,0.9352,0.8087,0.69,0.5586,0.4319,0.3512,0.318,0.318,0.318,0.318,0.318,0.2977,0.2775,0.2523,0.2322,0.207,0.1869,0.1869,0.1718,0.1617,0.1617,0.1617,0.1617,0.1617,0.1617,0.1617,0.1617,0.1617,0.1617,0.1617,0.1617,0.1617,0.1617,0.1617,0.222,0.4024,0.4553,0.5342,0.703,0.7508,0.7573,0.7322,0.7299,0.7255,0.7102,0.7095,0.7095,0.7095,0.7095,0.7009,0.6886,0.7353,0.7503,0.7305,0.7743,0.7988,0.7988,0.7988,0.7988,0.7988,0.7988,0.7839,0.7388,0.5577,0.4824,0.4624,0.2471,0.1617,0.1617,0.1617,0.1617,0.1617,0.1617,0.1617,0.1465,2.3948,2.3555,2.3154,2.3154,2.3048,2.2879,2.265,2.2769,2.2788,2.2675,2.2675,2.2637,2.2581,2.1545,2.0327,1.893,1.7657,1.6763,1.6455,1.559,1.4867,1.4456,1.4396,1.4162,1.3688,1.3566,1.3362,1.3122,1.2786,1.2573,1.2382,1.2114,1.1896,1.1732,1.1291,1.1017,1.0852,1.0747,1.0692,1.0692,1.0692,0.9872,0.8572,0.7419,0.6138,0.4743,0.3604,0.318,0.318,0.318,0.318,0.318,0.318,0.3079,0.2876,0.2623,0.2372,0.2171,0.2171,0.197,0.1768,0.1768,0.1667,0.1617,0.1617,0.1617,0.1617,0.1617,0.1617,0.1617,0.1617,0.1617,0.1617,0.1617,0.1919,0.2822,0.4574,0.5127,0.5986,0.7631,0.7811,0.7719,0.7482,0.7458,0.7417,0.7274,0.7267,0.7267,0.7267,0.7258,0.7272,0.7412,0.7573,0.7723,0.7811,0.7914,0.7988,0.7988,0.7988,0.7988,0.7988,0.7988,0.7988,0.7889,0.5727,0.4824,0.4624,0.2471,0.1617,0.1617,0.1617,0.1617,0.1617,0.1617,0.1617,0.1465,2.4619,2.4333,2.4086,2.4086,2.375,2.3281,2.2678,2.2639,2.2536,2.223,2.2165,2.2288,2.2551,2.2291,2.1525,2.0035,1.8731,1.7845,1.7578,1.7443,1.6921,1.5747,1.5634,1.5046,1.3868,1.3748,1.3485,1.3122,1.2644,1.2387,1.2382,1.2114,1.2005,1.1951,1.1404,1.1131,1.1072,1.0857,1.0692,1.0692,1.0692,0.9918,0.8662,0.7522,0.624,0.4838,0.3704,0.3281,0.318,0.318,0.318,0.318,0.318,0.318,0.313,0.2876,0.2623,0.2422,0.2422,0.2222,0.2022,0.2022,0.1819,0.1617,0.1617,0.1617,0.1617,0.1617,0.1617,0.1617,0.1617,0.1617,0.1617,0.1718,0.2572,0.3624,0.4774,0.5782,0.6743,0.7696,0.7828,0.777,0.7628,0.7614,0.7611,0.76,0.76,0.76,0.76,0.7472,0.7446,0.7446,0.7668,0.7818,0.7828,0.7917,0.7988,0.7988,0.7988,0.7988,0.8038,0.8038,0.8038,0.7889,0.5777,0.4824,0.4624,0.2521,0.1617,0.1617,0.1617,0.1617,0.1617,0.1617,0.1617,0.1465,2.4984,2.4516,2.4092,2.4092,2.358,2.3153,2.2941,2.289,2.2858,2.282,2.2788,2.2771,2.263,2.2288,2.1887,2.1313,2.0051,1.9161,1.8868,1.7917,1.7267,1.6979,1.6101,1.5456,1.5159,1.4217,1.3485,1.3122,1.2644,1.2387,1.2382,1.2114,1.2005,1.2001,1.1623,1.135,1.1072,1.1021,1.0911,1.0692,1.0692,1.0339,0.9741,0.8643,0.7322,0.5909,0.479,0.3882,0.318,0.318,0.318,0.318,0.318,0.318,0.318,0.313,0.2927,0.2724,0.2724,0.2373,0.2022,0.2022,0.1819,0.1617,0.1617,0.1617,0.1617,0.1617,0.1617,0.1617,0.1617,0.1617,0.1869,0.2671,0.3022,0.3877,0.5732,0.6234,0.6775,0.7839,0.7934,0.7877,0.7777,0.7763,0.7716,0.7607,0.76,0.76,0.76,0.7668,0.7706,0.7706,0.7773,0.7868,0.7934,0.7971,0.7988,0.7988,0.7988,0.8088,0.8283,0.8283,0.8283,0.8184,0.6276,0.5172,0.4674,0.2724,0.1768,0.1617,0.1617,0.1617,0.1617,0.1617,0.1617,0.1566,2.4857,2.4454,2.4078,2.4078,2.3679,2.323,2.2887,2.2828,2.2729,2.2438,2.2505,2.2505,2.2237,2.201,2.1782,2.1497,2.0837,2.0387,2.0155,1.9499,1.8855,1.8267,1.7624,1.7038,1.645,1.5219,1.4065,1.3122,1.2644,1.2387,1.2387,1.2278,1.2164,1.2169,1.1896,1.1673,1.1509,1.1236,1.1017,1.0857,1.0747,1.0481,1.0056,0.8996,0.7971,0.6924,0.5384,0.4435,0.3833,0.3381,0.318,0.318,0.318,0.318,0.318,0.318,0.3079,0.2977,0.2977,0.2676,0.2323,0.2071,0.1819,0.1617,0.1617,0.1617,0.1617,0.1617,0.1617,0.1768,0.222,0.2321,0.2671,0.3775,0.4327,0.5079,0.6237,0.6836,0.7338,0.7939,0.7988,0.7958,0.7874,0.7916,0.7882,0.7807,0.7801,0.7801,0.7801,0.7875,0.7882,0.7814,0.7879,0.7907,0.7988,0.7988,0.7988,0.7988,0.7988,0.8137,0.8382,0.8382,0.8482,0.8478,0.6473,0.5422,0.5024,0.3024,0.202,0.1768,0.1768,0.1718,0.1617,0.1617,0.1617,0.1617,2.4479,2.4232,2.4046,2.4046,2.3748,2.3323,2.2812,2.2666,2.2407,2.1895,2.1976,2.2002,2.1782,2.1725,2.1611,2.1325,2.1211,2.1211,2.1211,2.1211,2.0737,1.9615,1.9383,1.8797,1.7735,1.6258,1.4691,1.3122,1.2644,1.2387,1.2387,1.2387,1.2387,1.2382,1.2169,1.206,1.1951,1.1455,1.1181,1.1072,1.0857,1.0551,1.0144,0.9216,0.8504,0.7806,0.5937,0.5083,0.4684,0.3732,0.3331,0.318,0.318,0.318,0.318,0.318,0.318,0.318,0.318,0.3027,0.2675,0.2122,0.1819,0.1667,0.1617,0.1617,0.1617,0.1617,0.1617,0.1919,0.3022,0.3224,0.3624,0.4826,0.5782,0.6437,0.6637,0.7437,0.7988,0.7988,0.7988,0.7988,0.7988,0.7988,0.7988,0.7988,0.7988,0.7988,0.7988,0.7988,0.7931,0.7848,0.7921,0.7988,0.7988,0.7988,0.7988,0.7988,0.7988,0.8187,0.8482,0.8482,0.8627,0.8726,0.6623,0.5672,0.5422,0.3324,0.2322,0.2071,0.2071,0.192,0.1717,0.1717,0.1718,0.1667,2.4417,2.3922,2.3673,2.3673,2.338,2.3177,2.3057,2.2789,2.2571,2.2473,2.2234,2.2059,2.2059,2.1839,2.1668,2.1611,2.1382,2.1211,2.1211,2.1211,2.1096,2.0917,1.9853,1.921,1.9029,1.6373,1.437,1.3122,1.2644,1.2387,1.2387,1.2387,1.2387,1.2387,1.2387,1.2223,1.2005,1.1896,1.1568,1.1072,1.1072,1.0787,1.0322,1.006,0.9253,0.8201,0.7669,0.6329,0.4784,0.4583,0.3932,0.318,0.318,0.318,0.318,0.318,0.318,0.318,0.318,0.3027,0.2675,0.2122,0.1971,0.187,0.1667,0.1617,0.1617,0.1617,0.1617,0.1919,0.3022,0.3224,0.3825,0.5832,0.6284,0.6736,0.764,0.7889,0.7988,0.7988,0.7988,0.7988,0.7988,0.7988,0.7988,0.7988,0.7988,0.7988,0.7988,0.7988,0.7978,0.7955,0.7978,0.7988,0.7988,0.7988,0.7988,0.7988,0.7988,0.8237,0.8726,0.8726,0.8878,0.9034,0.7123,0.6024,0.5475,0.3527,0.2574,0.2321,0.2321,0.2321,0.227,0.227,0.2121,0.197,2.6042,2.566,2.524,2.4517,2.4278,2.3855,2.2987,2.2555,2.2297,2.2148,2.1812,2.1603,2.1603,2.1497,2.1439,2.1439,2.1268,2.1211,2.1211,2.1211,2.1211,2.1211,2.0622,1.9975,1.9325,1.7094,1.5305,1.4076,1.2971,1.2387,1.2387,1.2387,1.2387,1.2387,1.2387,1.2332,1.2223,1.2055,1.1841,1.1568,1.1236,1.0912,1.0642,1.0396,0.9819,0.906,0.8426,0.7441,0.6329,0.5183,0.4483,0.3982,0.3381,0.318,0.318,0.318,0.318,0.318,0.318,0.3027,0.2725,0.2474,0.2223,0.1971,0.1819,0.1718,0.1768,0.2321,0.2471,0.2973,0.463,0.4931,0.5429,0.6986,0.7238,0.7437,0.7939,0.7988,0.7988,0.7988,0.7988,0.7988,0.7988,0.7988,0.7988,0.7988,0.7988,0.7988,0.7988,0.7988,0.7988,0.7988,0.7988,0.7988,0.7988,0.7988,0.7988,0.7988,0.7988,0.8283,0.8825,0.8825,0.9027,0.9282,0.7273,0.6274,0.5874,0.3828,0.2876,0.2623,0.2623,0.2522,0.2422,0.2422,0.2321,0.2221,2.7366,2.7177,2.6693,2.5737,2.5562,2.5098,2.3795,2.33,2.2839,2.2354,2.1907,2.1482,2.1211,2.1211,2.1211,2.1211,2.1211,2.1211,2.1211,2.1211,2.1211,2.1211,2.1211,2.0622,1.9325,1.7943,1.659,1.5305,1.3622,1.2817,1.2817,1.2545,1.2387,1.2387,1.2387,1.2387,1.2382,1.2164,1.206,1.1951,1.1509,1.1155,1.0919,1.0613,1.0314,0.9899,0.8995,0.8275,0.7419,0.5739,0.4832,0.4282,0.3482,0.318,0.318,0.318,0.318,0.318,0.318,0.3029,0.2876,0.2826,0.2474,0.2172,0.2022,0.2021,0.227,0.3022,0.3374,0.4176,0.6034,0.6387,0.6736,0.7839,0.7988,0.7988,0.7988,0.7988,0.7988,0.7988,0.7988,0.7988,0.7988,0.7988,0.7988,0.7988,0.7988,0.7988,0.7988,0.7988,0.7988,0.7988,0.7988,0.7988,0.7988,0.7988,0.7988,0.7988,0.7988,0.8283,0.8825,0.8825,0.9076,0.9476,0.7322,0.6423,0.6224,0.4081,0.3079,0.2876,0.2876,0.2775,0.2573,0.2573,0.2522,0.2522,2.7254,2.7013,2.6952,2.6892,2.684,2.6823,2.6677,2.6101,2.5219,2.4101,2.3281,2.2425,2.1318,2.1211,2.1211,2.1211,2.1211,2.1211,2.1211,2.1211,2.1211,2.1211,2.1211,2.0622,1.9325,1.8681,1.7759,1.6584,1.4882,1.4062,1.4056,1.2925,1.2387,1.2387,1.2387,1.2387,1.2387,1.2387,1.2219,1.2005,1.1951,1.161,1.1088,1.0928,1.0634,1.0298,0.9903,0.8493,0.6728,0.6411,0.4979,0.3281,0.323,0.318,0.318,0.318,0.318,0.318,0.318,0.318,0.313,0.2876,0.2775,0.2624,0.2123,0.2775,0.3426,0.3224,0.3974,0.5027,0.6184,0.6387,0.6736,0.7839,0.7988,0.7988,0.7988,0.7988,0.7988,0.7988,0.7988,0.7988,0.7988,0.7988,0.7988,0.7988,0.7988,0.7988,0.7988,0.7988,0.7988,0.7988,0.7988,0.7988,0.7988,0.7988,0.7988,0.7988,0.7988,0.8283,0.8825,0.8825,0.9076,0.9476,0.7322,0.6423,0.6224,0.4081,0.318,0.318,0.318,0.318,0.313,0.313,0.2977,0.2826,2.949,2.9431,2.9185,2.8325,2.8206,2.7907,2.7134,2.6354,2.5741,2.5286,2.3918,2.2813,2.2377,2.1653,2.1211,2.1211,2.1211,2.1211,2.1211,2.1211,2.1211,2.1211,2.1211,2.0974,2.05,1.9193,1.8258,1.7815,1.6121,1.4911,1.4169,1.3738,1.3142,1.2387,1.2387,1.2387,1.2387,1.2387,1.2327,1.2219,1.206,1.1841,1.1614,1.1435,1.1069,1.0683,1.0594,0.9709,0.8493,0.7062,0.5984,0.4929,0.363,0.318,0.318,0.318,0.318,0.318,0.318,0.318,0.318,0.3079,0.2927,0.2925,0.3377,0.3528,0.3927,0.5177,0.5629,0.6132,0.7188,0.7388,0.7537,0.7939,0.7988,0.7988,0.7988,0.7988,0.7988,0.7988,0.7988,0.7988,0.7988,0.7988,0.7988,0.7988,0.7988,0.7988,0.7988,0.7988,0.7988,0.7988,0.7988,0.7988,0.7988,0.7988,0.7988,0.7988,0.7988,0.8283,0.8825,0.8825,0.9076,0.9476,0.7322,0.6423,0.6224,0.4081,0.318,0.318,0.318,0.318,0.318,0.318,0.313,0.3079,3.0889,3.0889,3.0587,2.9658,2.954,2.9235,2.8343,2.7701,2.7102,2.6566,2.5204,2.3995,2.3103,2.2263,2.1596,2.1211,2.1211,2.1211,2.1211,2.1211,2.1211,2.1211,2.1211,2.1211,2.1211,1.9766,1.9043,1.9043,1.7313,1.6027,1.5232,1.4541,1.3732,1.2925,1.2545,1.2387,1.2387,1.2387,1.2387,1.2382,1.2223,1.206,1.2005,1.1787,1.1489,1.1102,1.1046,1.048,0.9471,0.7917,0.7066,0.6329,0.478,0.4001,0.3632,0.3281,0.318,0.318,0.318,0.318,0.318,0.318,0.333,0.3578,0.4228,0.458,0.5131,0.6531,0.6833,0.7138,0.7839,0.7988,0.7988,0.7988,0.7988,0.7988,0.7988,0.7988,0.7988,0.7988,0.7988,0.7988,0.7988,0.7988,0.7988,0.7988,0.7988,0.7988,0.7988,0.7988,0.7988,0.7988,0.7988,0.7988,0.7988,0.7988,0.7988,0.7988,0.7988,0.8283,0.8825,0.8825,0.9076,0.9476,0.7322,0.6423,0.6224,0.4081,0.318,0.318,0.318,0.318,0.318,0.318,0.318,0.318,3.0889,3.0889,3.0889,3.0889,3.0889,3.0889,3.0889,3.0498,2.9631,2.8002,2.7436,2.6134,2.3352,2.303,2.2539,2.1318,2.1211,2.1211,2.1211,2.1211,2.1211,2.1211,2.1211,2.1211,2.1211,2.0511,2.0183,2.0183,1.8464,1.7635,1.7529,1.5292,1.4218,1.4164,1.2925,1.2387,1.2387,1.2387,1.2387,1.2387,1.2387,1.2223,1.2005,1.2005,1.1841,1.1596,1.1362,1.0477,0.9262,0.9095,0.8102,0.6981,0.6749,0.5819,0.4585,0.3533,0.3232,0.3181,0.318,0.318,0.318,0.323,0.4033,0.4734,0.4479,0.5882,0.7135,0.688,0.7434,0.7988,0.7988,0.7988,0.7988,0.7988,0.7988,0.7988,0.7988,0.7988,0.7988,0.7988,0.7988,0.7988,0.7988,0.7988,0.7988,0.7988,0.7988,0.7988,0.7988,0.7988,0.7988,0.7988,0.7988,0.7988,0.7988,0.7988,0.7988,0.7988,0.7988,0.8283,0.8825,0.8825,0.9076,0.9476,0.7322,0.6423,0.6224,0.4081,0.318,0.318,0.318,0.318,0.318,0.318,0.318,0.318,3.0889,3.0889,3.0889,3.0889,3.0889,3.0889,3.0889,3.0498,2.9925,2.9161,2.7949,2.6755,2.5569,2.3975,2.2869,2.2482,2.171,2.1211,2.1211,2.1211,2.1211,2.1211,2.1211,2.1211,2.1211,2.0511,2.0183,2.0183,1.9269,1.8377,1.7582,1.6889,1.5713,1.4164,1.384,1.3197,1.2387,1.2387,1.2387,1.2387,1.2387,1.2327,1.2278,1.2278,1.2114,1.1887,1.1828,1.1343,1.0576,0.9762,0.9029,0.8249,0.7218,0.6086,0.5008,0.4637,0.3957,0.3285,0.3192,0.318,0.3381,0.4133,0.4583,0.5183,0.6625,0.7229,0.763,0.8127,0.823,0.8233,0.8038,0.7988,0.7988,0.7988,0.7988,0.7988,0.7988,0.7988,0.7988,0.7988,0.7988,0.7988,0.7988,0.7988,0.7988,0.7988,0.7988,0.7988,0.7988,0.7988,0.7988,0.7988,0.7988,0.7988,0.7988,0.7988,0.7988,0.7988,0.7988,0.8283,0.8825,0.8825,0.9076,0.9476,0.7322,0.6423,0.6224,0.4081,0.318,0.318,0.318,0.318,0.318,0.318,0.318,0.318,3.0889,3.0889,3.0889,3.0889,3.0889,3.0889,3.0889,3.0654,3.0254,2.9704,2.877,2.7715,2.6646,2.525,2.403,2.3087,2.1873,2.1211,2.1211,2.1211,2.1211,2.1211,2.1211,2.1211,2.1211,2.0511,2.0183,2.0183,1.9594,1.8959,1.8272,1.7793,1.6836,1.5506,1.4595,1.3786,1.3088,1.2599,1.2387,1.2387,1.2387,1.2387,1.2387,1.2387,1.2278,1.2169,1.2169,1.1928,1.1505,1.0845,1.0239,0.9512,0.8295,0.7302,0.6348,0.5398,0.4966,0.4646,0.4133,0.4325,0.4932,0.5959,0.5814,0.5879,0.7624,0.8127,0.8382,0.8878,0.868,0.8333,0.8187,0.8088,0.7988,0.7988,0.7988,0.8012,0.8123,0.813,0.815,0.8208,0.8214,0.8214,0.8214,0.8214,0.8214,0.8214,0.8214,0.8214,0.8214,0.8214,0.8214,0.8214,0.8214,0.8214,0.8214,0.8214,0.8157,0.7988,0.8088,0.8382,0.8825,0.8928,0.9179,0.9476,0.7322,0.6423,0.6224,0.4081,0.318,0.318,0.318,0.318,0.318,0.318,0.318,0.318,3.0889,3.0889,3.0889,3.0889,3.0889,3.0889,3.0889,3.0889,3.0576,2.9687,2.9626,2.8841,2.6891,2.6581,2.5643,2.348,2.2116,2.134,2.1211,2.1211,2.1211,2.1211,2.1211,2.1211,2.1211,2.0511,2.0183,2.0183,1.9594,1.9279,1.9279,1.8213,1.7687,1.7477,1.5339,1.4277,1.4116,1.2925,1.2387,1.2387,1.2387,1.2387,1.2387,1.2387,1.2387,1.2387,1.2387,1.2223,1.2005,1.2005,1.1562,1.0832,0.9796,0.9097,0.824,0.6169,0.6275,0.6751,0.5684,0.6157,0.7238,0.81,0.7452,0.6851,0.7928,0.8726,0.9236,0.9187,0.8832,0.8482,0.8432,0.8197,0.8058,0.8012,0.8022,0.813,0.8272,0.834,0.8336,0.8465,0.8482,0.8482,0.8482,0.8482,0.8482,0.8482,0.8482,0.8482,0.8482,0.8482,0.8482,0.8482,0.8482,0.8482,0.8482,0.8482,0.8347,0.8029,0.8325,0.8564,0.8847,0.9103,0.9347,0.9476,0.7322,0.6423,0.6224,0.4081,0.318,0.318,0.318,0.318,0.318,0.318,0.318,0.318,3.0889,3.0889,3.0889,3.0889,3.0889,3.0889,3.0889,3.0889,3.0576,2.9687,2.9626,2.9183,2.8047,2.7079,2.6309,2.5808,2.3811,2.2219,2.1275,2.1211,2.1211,2.1211,2.1211,2.1211,2.1211,2.0511,2.0183,2.0183,1.9594,1.9279,1.9272,1.9063,1.8482,1.7529,1.6133,1.5018,1.4116,1.2925,1.2387,1.2387,1.2387,1.2387,1.2387,1.2387,1.2387,1.2387,1.2387,1.2387,1.2278,1.206,1.1864,1.167,1.123,1.0218,0.9124,0.8572,0.7782,0.7011,0.6709,0.679,0.7258,0.8272,0.8342,0.8309,0.9084,0.9377,0.943,0.9236,0.9084,0.8886,0.8482,0.8485,0.8472,0.8272,0.8313,0.8397,0.8431,0.8435,0.8445,0.8479,0.8482,0.8482,0.8482,0.8482,0.8482,0.8482,0.8482,0.8482,0.8482,0.8482,0.8482,0.8482,0.8482,0.8482,0.8482,0.8482,0.8448,0.8387,0.8643,0.8885,0.9022,0.9326,0.9507,0.9476,0.7322,0.6423,0.6224,0.4081,0.318,0.318,0.318,0.318,0.318,0.318,0.318,0.318,3.0889,3.0889,3.0889,3.0889,3.0889,3.0889,3.0889,3.0889,3.0644,2.9961,2.9697,2.9316,2.8662,2.786,2.7133,2.6527,2.4868,2.3326,2.2139,2.2082,2.1815,2.1211,2.1211,2.1211,2.1211,2.072,2.0336,2.0183,1.9747,1.9485,1.9279,1.9279,1.8959,1.8377,1.7199,1.608,1.4911,1.3786,1.2925,1.2387,1.2387,1.2387,1.2387,1.2387,1.2387,1.2387,1.2387,1.2387,1.2387,1.2223,1.2114,1.2005,1.1841,1.1181,1.028,0.9588,0.9178,0.8832,0.8113,0.8309,0.8887,0.9345,0.9485,0.9527,0.9839,0.9884,0.9833,0.9681,0.9579,0.9376,0.8914,0.883,0.8729,0.8422,0.8435,0.8509,0.8581,0.8591,0.8618,0.8693,0.8699,0.8699,0.8699,0.8699,0.8699,0.8699,0.8699,0.8699,0.8699,0.8699,0.8699,0.8699,0.8699,0.8699,0.8699,0.8699,0.8699,0.8699,0.8977,0.9123,0.9198,0.9662,0.9867,0.9774,0.75,0.6561,0.6353,0.4145,0.318,0.318,0.318,0.318,0.318,0.318,0.318,0.318,3.0889,3.0889,3.0889,3.0889,3.0889,3.0889,3.0889,3.0889,3.0723,3.0264,2.9834,2.9404,2.8965,2.8545,2.7833,2.6625,2.5578,2.4516,2.3375,2.3269,2.2865,2.1824,2.1596,2.1489,2.1489,2.1053,2.0618,2.0183,1.9916,1.9647,1.9279,1.9279,1.9279,1.9279,1.8108,1.7094,1.6074,1.475,1.363,1.2708,1.2495,1.2387,1.2387,1.2387,1.2387,1.2387,1.2387,1.2387,1.2387,1.2387,1.2278,1.206,1.206,1.1896,1.1459,1.0186,1.0464,1.0852,0.9581,0.9974,1.066,1.0513,1.0427,1.044,1.0286,1.0257,1.0212,1.0212,0.9955,0.9694,0.938,0.9081,0.8832,0.8572,0.8543,0.8604,0.873,0.875,0.8798,0.8868,0.8885,0.8885,0.8885,0.8885,0.8885,0.8885,0.8885,0.8885,0.8885,0.8885,0.8885,0.8885,0.8885,0.8885,0.8885,0.8885,0.8885,0.8881,0.9169,0.9346,0.9369,0.989,1.0084,0.9787,0.7617,0.6586,0.6267,0.4082,0.3195,0.3195,0.3184,0.318,0.318,0.318,0.318,0.3181,3.0889,3.0889,3.0889,3.0889,3.0889,3.0889,3.0889,3.0889,3.0723,3.0264,2.9834,2.9404,2.8965,2.8545,2.781,2.66,2.6323,2.5775,2.4543,2.4497,2.4421,2.4228,2.3303,2.2757,2.2757,2.1665,2.0845,2.0183,1.9916,1.9647,1.9279,1.9279,1.9279,1.9279,1.8108,1.7529,1.7206,1.5078,1.4116,1.3846,1.2817,1.2387,1.2387,1.2387,1.2387,1.2387,1.2387,1.2387,1.2387,1.2387,1.2387,1.2327,1.2327,1.2169,1.1896,1.1728,1.14,1.1072,1.0852,1.0747,1.0684,1.0664,1.066,1.0651,1.0627,1.0437,1.0212,1.0212,0.9951,0.9642,0.9328,0.9175,0.8997,0.8733,0.8791,0.8828,0.8851,0.8851,0.8861,0.8881,0.8885,0.8885,0.8885,0.8885,0.8885,0.8885,0.8885,0.8885,0.8885,0.8885,0.8885,0.8885,0.8885,0.8885,0.8885,0.8885,0.8885,0.8885,0.9226,0.9403,0.9476,0.985,0.9504,0.8584,0.7352,0.6185,0.5124,0.3849,0.3309,0.3304,0.32,0.318,0.318,0.318,0.318,0.3188,3.1005,3.0889,3.0889,3.0889,3.0889,3.0889,3.0889,3.0889,3.082,3.0615,3.0195,2.9756,2.9326,2.8691,2.8082,2.7573,2.751,2.6974,2.5755,2.5701,2.539,2.4718,2.4236,2.3631,2.303,2.2482,2.1632,2.0453,2.0186,1.9864,1.9595,1.9412,1.9279,1.9279,1.875,1.822,1.7477,1.5867,1.4804,1.4116,1.2871,1.2387,1.2387,1.2387,1.2387,1.2387,1.2387,1.2387,1.2387,1.2387,1.2387,1.2387,1.2387,1.2332,1.2164,1.206,1.1782,1.1509,1.1181,1.1017,1.0911,1.0747,1.0692,1.0692,1.0692,1.057,1.0461,1.0461,1.0349,1.0188,0.9923,0.966,0.9377,0.9108,0.9003,0.8885,0.8885,0.8885,0.8885,0.8885,0.8885,0.8885,0.8885,0.8885,0.8885,0.8885,0.8885,0.8885,0.8885,0.8885,0.8885,0.8885,0.8885,0.8885,0.8885,0.8885,0.8885,0.8885,0.9047,0.934,0.9704,1.0031,0.9989,0.9585,0.7773,0.6669,0.602,0.4133,0.3372,0.3367,0.3305,0.3209,0.318,0.318,0.3655,0.4251]}]]